     2.11           OBSERVATION DATA    G (GPS)             RINEX VERSION / TYPE
teqc 2010Oct21 OPUS Account 20111028 16:41:20UTC            PGM / RUN BY / DATE
L 1527                                                      MARKER NAME
3071                                                        MARKER NUMBER
CSMIDDLETON NGS                                             OBSERVER / AGENCY
0220284361 TRIMBLE 5700 NP 1.22 / SP 1.22                   REC # / TYPE / VERS
12234991 TRM41249.00 NONE                                   ANT # / TYPE
  -723066.5193 -5591075.9445  2972869.4033                  APPROX POSITION XYZ
        2.0000        0.0000        0.0000                  ANTENNA: DELTA H/E/N
     1     1                                                WAVELENGTH FACT L1/2
     5    L1    L2    C1    P1    P2                        # / TYPES OF OBSERV
    15                                                      LEAP SECONDS
  2011     8    24     0     0   30.0000000     GPS         TIME OF FIRST OBS
                                                            END OF HEADER
 11  8 24  0  0 30.0000000  0  9G09G17G02G12G25G10G04G05G30
 -15159799.05956 -11793722.48554  23541656.3754                   23541658.5314
 -33072073.42657 -25750711.48954  23085237.2814                   23085238.1764
 -33124968.47757 -25791547.23257  20636800.4614                   20636796.7894
 -22289181.97357 -17349595.21056  21563669.8594                   21563668.5634
  -2277981.08657  -1755675.69054  24323965.6804                   24323967.9884
 -29601521.06258 -23049048.14056  20862231.0704                   20862230.0554
 -33012567.80158 -25703367.23456  21599041.2034                   21599040.2114
 -18247573.98857 -14199729.17056  22058920.7584                   22058921.3164
   -807299.23856   -609468.57753  24246168.8754                   24246169.6844
 11  8 24  0  1  0.0000000  0  9G09G17G02G12G25G10G04G05G30
 -15116436.91046 -11759933.88144  23549907.6724                   23549910.1334
 -33054144.66447 -25736741.09145  23088649.1334                   23088649.5434
 -33159499.16048 -25818454.22747  20630229.9694                   20630226.0394
 -22385837.81247 -17424911.39946  21545276.7894                   21545275.2664
  -2411366.34847  -1859612.16144  24298583.4224                   24298585.3714
 -29636796.28547 -23076535.30146  20855518.3834                   20855517.4344
 -32969497.46547 -25669805.95246  21607237.2974                   21607236.4884
 -18371408.55947 -14296223.52746  22035355.7344                   22035356.2774
   -942773.52346   -715032.94043  24220388.9534                   24220389.2584
 11  8 24  0  1 30.0000000  0  9G09G17G02G12G25G10G04G05G30
 -15072882.10546 -11725995.14244  23558196.0864                   23558198.8164
 -33036061.16047 -25722650.13244  23092090.8134                   23092090.6684
 -33193737.27747 -25845133.25347  20623714.4064                   20623711.0004
 -22482085.50447 -17499909.56746  21526961.5004                   21526960.1804
  -2544599.73847  -1963430.30844  24273229.3914                   24273231.8204
 -29671441.58647 -23103531.61246  20848926.0004                   20848924.5124
 -32926280.87148 -25636130.71645  21615461.1884                   21615460.5004
 -18494953.40247 -14392492.12046  22011846.1334                   22011846.1994
  -1078039.28146   -820434.81543  24194648.5864                   24194648.5514
 11  8 24  0  2  0.0000000  0  9G09G17G02G12G25G10G04G05G30
 -15029137.44147 -11691908.48344  23566520.3754                   23566523.1914
 -33017821.59047 -25708437.53144  23095561.3524                   23095561.4024
 -33227683.13347 -25871584.53147  20617254.6954                   20617251.0124
 -22577921.98847 -17574587.30646  21508724.3834                   21508722.6994
  -2677678.19947  -2067127.73544  24247905.5474                   24247907.9734
 -29705455.98847 -23130036.32246  20842452.9064                   20842451.8874
 -32882919.02348 -25602342.28945  21623712.6804                   21623712.0514
 -18618204.77747 -14488532.02546  21988391.8914                   21988391.9924
  -1213093.09046   -925671.43843  24168949.0164                   24168949.1054
 11  8 24  0  2 30.0000000  0  9G09G17G02G12G25G10G04G05G30
 -14985206.48847 -11657676.64844  23574880.6484                   23574882.9344
 -32999425.48047 -25694102.95844  23099062.3054                   23099061.9224
 -33261338.10547 -25897809.15147  20610850.4844                   20610846.6844
 -22673344.43747 -17648942.41746  21490566.2664                   21490564.5084
  -2810598.93446  -2170702.21344  24222611.6024                   24222614.0124
 -29738839.28148 -23156049.25146  20836099.9774                   20836099.1254
 -32839414.18448 -25568442.44345  21631991.2114                   21631990.6644
 -18741159.59047 -14584340.85146  21964994.1884                   21964994.3204
  -1347931.91046  -1030740.59243  24143289.5314                   24143290.6024
 11  8 24  0  3  0.0000000  0  9G09G17G02G12G25G10G04G05G30
 -14941095.48447 -11623304.53544  23583275.1334                   23583277.5204
 -32980874.98847 -25679648.10144  23102592.1804                   23102592.2974
 -33294706.02347 -25923810.10247  20604500.6414                   20604497.1804
 -22768353.89547 -17722975.72346  21472486.5704                   21472484.4804
  -2943362.39847  -2274154.14544  24197347.6254                   24197350.3134
 -29771594.18448 -23181572.52046  20829867.1484                   20829866.4144
 -32795771.27048 -25534435.00845  21640296.1804                   21640295.5944
 -18863818.03547 -14679918.73746  21941653.2424                   21941652.8444
  -1482556.05146  -1135642.49143  24117671.1334                   24117672.1174
 11  8 24  0  3 30.0000000  0  9G09G17G02G12G25G10G04G05G30
 -14896806.97747 -11588794.09044  23591702.3984                   23591704.9924
 -32962168.93747 -25665072.01244  23106152.2814                   23106151.9534
 -33327787.32047 -25949587.70147  20598205.0944                   20598201.5314
 -22862947.21547 -17796684.77246  21454485.7344                   21454484.2664
  -3075965.18047  -2377480.88144  24172113.2814                   24172116.3484
 -29803719.65248 -23206605.32946  20823754.0084                   20823752.7424
 -32751991.39848 -25500320.84945  21648626.9694                   21648626.6994
 -18986176.10947 -14775262.57446  21918368.7894                   21918369.0784
  -1616961.79746  -1240374.20743  24092094.7344                   24092095.0124
 11  8 24  0  4  0.0000000  0  9G09G17G02G12G25G10G04G05G30
 -14852347.59847 -11554150.51944  23600162.9534                   23600165.5434
 -32943309.38347 -25650376.32244  23109741.1644                   23109740.6914
 -33360586.35548 -25975145.37046  20591964.1024                   20591959.8714
 -22957124.41047 -17870069.56546  21436564.5394                   21436562.8054
  -3208407.79747  -2480682.85044  24146910.7814                   24146913.3874
 -29835218.36347 -23231149.74746  20817759.5474                   20817758.8134
 -32708079.73048 -25466104.00545  21656983.4454                   21656982.9964
 -19108234.55147 -14870372.92146  21895142.0944                   21895141.7704
  -1751149.52746  -1344935.98843  24066560.1644                   24066559.6604
 11  8 24  0  4 30.0000000  0  9G09G17G02G12G25G10G04G05G30
 -14807716.37147 -11519373.05144  23608656.1094                   23608658.3714
 -32924291.54747 -25635557.30344  23113360.2974                   23113360.1844
 -33393099.82448 -26000480.49846  20585776.6484                   20585772.8524
 -23050879.34047 -17943125.32246  21418723.2814                   21418721.8284
  -3340683.46147  -2583754.70644  24121739.4534                   24121742.1414
 -29866085.76648 -23255202.23646  20811885.9774                   20811884.8914
 -32664033.90648 -25431782.60046  21665365.3754                   21665364.4264
 -19229985.85247 -14965243.95646  21871973.4384                   21871973.2584
  -1885112.16046  -1449322.32943  24041066.7114                   24041067.4964
 11  8 24  0  5  0.0000000  0  9G09G17G02G12G25G10G04G05G30
 -14762915.96946 -11484463.71644  23617181.6414                   23617184.1214
 -32905114.11747 -25620613.88945  23117009.5314                   23117009.6094
 -33425328.38747 -26025593.62947  20579643.8984                   20579640.0514
 -23144209.09047 -18015849.78246  21400963.3054                   21400961.7274
  -3472788.78147  -2686693.81044  24096600.2664                   24096603.4964
 -29896321.14548 -23278762.24346  20806131.8834                   20806130.9614
 -32619855.41448 -25397357.84145  21673772.3834                   21673771.4454
 -19351426.80547 -15059873.13746  21848863.6954                   21848863.8634
  -2018846.04746  -1553530.51543  24015618.3754                   24015618.8834
 11  8 24  0  5 30.0000000  0  9G09G17G02G12G25G10G04G05G30
 -14717954.37946 -11449428.81644  23625737.6564                   23625739.8484
 -32885781.37147 -25605549.48145  23120688.3204                   23120688.7704
 -33457277.50448 -26050489.02047  20573563.9144                   20573560.3204
 -23237115.82847 -18088244.61046  21383283.6724                   21383282.0944
  -3604725.66047  -2789501.66244  24071493.7194                   24071496.2154
 -29925929.09447 -23301833.33646  20800498.1954                   20800496.7814
 -32575550.66847 -25362834.69645  21682203.3444                   21682202.4494
 -19472558.70347 -15154261.52946  21825813.0314                   21825813.1054
  -2152352.96946  -1657561.73443  23990213.2424                   23990213.7234
 11  8 24  0  6  0.0000000  0  9G09G17G02G12G25G10G04G05G30
 -14672834.63746 -11414270.69544  23634323.0474                   23634326.3054
 -32866292.40647 -25590363.33445  23124396.9534                   23124397.8204
 -33488947.97747 -26075167.28246  20567537.4774                   20567533.5164
 -23329596.56647 -18160307.51646  21365685.0704                   21365683.3324
  -3736491.14147  -2892175.99944  24046419.5084                   24046422.0704
 -29954908.62948 -23324414.76246  20794983.2974                   20794982.0354
 -32531121.12948 -25328214.30645  21690658.1414                   21690657.0314
 -19593378.56647 -15248406.74646  21802821.9694                   21802822.0864
  -2285629.76646  -1761413.60543  23964850.6884                   23964851.3524
 11  8 24  0  6 30.0000000  0  9G09G17G02G12G25G10G04G05G30
 -14627554.30147 -11378987.40844  23642939.6884                   23642943.0784
 -32846640.80147 -25575050.45445  23128136.9224                   23128137.1254
 -33520335.30947 -26099624.91246  20561564.9454                   20561560.7774
 -23421643.53547 -18232032.38946  21348169.2034                   21348167.6334
  -3868076.93047  -2994710.31644  24021379.4064                   24021382.1604
 -29983254.02748 -23346502.07046  20789589.1884                   20789588.3364
 -32486563.14848 -25293493.82145  21699136.9454                   21699136.3914
 -19713877.75047 -15342302.10446  21779891.4694                   21779891.5004
  -2418667.87147  -1865079.60443  23939534.5784                   23939534.8404
 11  8 24  0  7  0.0000000  0  9G09G17G02G12G25G10G04G05G30
 -14582119.74647 -11343583.95844  23651586.0234                   23651588.4224
 -32826828.82047 -25559612.59645  23131906.6334                   23131907.4224
 -33551443.68747 -26123865.19047  20555644.9924                   20555641.1524
 -23513257.55947 -18303419.94146  21330735.6254                   21330734.3164
  -3999483.53147  -3097104.92544  23996373.3524                   23996376.1914
 -30010968.41448 -23368097.67146  20784315.5634                   20784314.6054
 -32441881.79348 -25258677.19446  21707639.4614                   21707638.9024
 -19834056.25047 -15435947.57746  21757021.9144                   21757022.0594
  -2551467.63346  -1968559.80243  23914264.0944                   23914263.7664
 11  8 24  0  7 30.0000000  0  9G09G17G02G12G25G10G04G05G30
 -14536534.25046 -11308062.90244  23660260.5864                   23660262.9804
 -32806855.35547 -25544048.88744  23135707.8444                   23135708.0704
 -33582274.15647 -26147888.90446  20549778.0234                   20549773.9454
 -23604435.59447 -18374467.74846  21313384.8674                   21313383.3164
  -4130707.91047  -3199357.60744  23971402.1094                   23971404.8244
 -30038051.71548 -23389201.52146  20779161.5944                   20779160.5944
 -32397078.52748 -25223765.57245  21716165.6024                   21716164.9884
 -19953911.10547 -15529340.85946  21734214.4384                   21734214.6334
  -2684025.89146  -2071851.81243  23889038.6954                   23889038.7464
 11  8 24  0  8  0.0000000  0  9G09G17G02G12G25G10G04G05G30
 -14490805.28946 -11272430.07944  23668962.5474                   23668965.0554
 -32786724.57847 -25528362.59344  23139538.2584                   23139538.8014
 -33612832.02347 -26171700.21847  20543962.9924                   20543959.3834
 -23695179.71147 -18445177.43346  21296117.3364                   21296115.5904
  -4261751.71147  -3301469.60444  23946465.5314                   23946467.8014
 -30064507.73848 -23409816.57046  20774127.4454                   20774126.2664
 -32352159.60948 -25188763.84745  21724712.8674                   21724712.2664
 -20073443.87147 -15622483.16846  21711467.9064                   21711468.3524
  -2816343.93746  -2174956.70243  23863859.4064                   23863859.3954
 11  8 24  0  8 30.0000000  0  9G09G17G02G12G25G10G04G05G30
 -14444928.39547 -11236681.95543  23677692.7584                   23677695.4694
 -32766427.98047 -25512547.09745  23143400.5944                   23143401.0354
 -33643110.60247 -26195293.89846  20538201.4844                   20538197.4184
 -23785480.17647 -18515541.41746  21278933.2974                   21278931.8524
  -4392604.59847  -3403432.82844  23921565.0864                   23921567.1134
 -30090328.78148 -23429936.84446  20769213.7584                   20769212.7544
 -32307119.36748 -25153667.55145  21733283.8524                   21733283.7114
 -20192643.64847 -15715366.00146  21688785.1414                   21688784.9614
  -2948411.35246  -2277866.26443  23838727.7814                   23838727.9804
 11  8 24  0  9  0.0000000  0  9G09G17G02G12G25G10G04G05G30
 -14398914.06247 -11200826.71544  23686449.2344                   23686451.1804
 -32745972.05147 -25496607.42844  23147293.3524                   23147293.8324
 -33673118.35547 -26218676.54747  20532490.7584                   20532486.9414
 -23875341.44948 -18585563.18946  21261833.8204                   21261831.5664
  -4523271.06647  -3505250.77244  23896699.4614                   23896701.9804
 -30115522.16048 -23449568.02646  20764419.4774                   20764418.6524
 -32261966.34448 -25118483.39145  21741875.9224                   21741875.6604
 -20311514.97347 -15807992.90346  21666164.4064                   21666164.3634
  -3080232.30946  -2380583.80143  23813642.6644                   23813642.5864
 11  8 24  0  9 30.0000000  0  9G09G17G02G12G25G10G04G05G30
 -14352761.69547 -11164863.92244  23695232.1484                   23695234.4224
 -32725352.02047 -25480539.91344  23151217.1414                   23151217.4304
 -33702851.88347 -26241845.51247  20526832.7814                   20526828.8914
 -23964757.16447 -18655237.75746  21244818.7034                   21244816.3364
  -4653744.12947  -3606918.05044  23871871.1174                   23871873.4574
 -30140083.75048 -23468706.91546  20759745.7034                   20759744.7624
 -32216698.72748 -25083209.92945  21750490.4454                   21750490.0784
 -20430051.16047 -15900358.65846  21643607.7424                   21643607.5864
  -3211799.82446  -2483103.86243  23788605.9694                   23788605.7234
 11  8 24  0 10  0.0000000  0  9G09G17G02G12G25G10G04G05G30
 -14306474.35547 -11128795.93644  23704039.8984                   23704042.3954
 -32704567.16047 -25464343.97244  23155172.5314                   23155173.1564
 -33732312.34848 -26264801.70346  20521226.5004                   20521222.5044
 -24053725.17248 -18724563.46946  21227887.9304                   21227886.1844
  -4784021.13747  -3708432.55144  23847080.8364                   23847082.8984
 -30164013.68048 -23487353.58846  20755191.7504                   20755190.8244
 -32171318.02748 -25047848.35145  21759125.9924                   21759125.5044
 -20548248.76247 -15992460.58046  21621115.3364                   21621115.2464
  -3343110.82447  -2585424.09243  23763618.9614                   23763618.0944
 11  8 24  0 10 30.0000000  0  9G09G17G02G12G25G10G04G05G30
 -14260056.24247 -11092626.06344  23712873.2504                   23712875.8714
 -32683617.57447 -25448019.67644  23159159.2194                   23159160.0474
 -33761501.52748 -26287546.49447  20515672.1564                   20515668.3244
 -24142243.46947 -18793538.75646  21211043.9224                   21211042.2894
  -4914100.08647  -3809792.71944  23822327.3674                   23822329.7584
 -30187312.75048 -23505508.69446  20750758.5314                   20750756.9384
 -32125826.94148 -25012400.75645  21767782.8204                   21767782.4024
 -20666105.57447 -16084296.96146  21598687.7034                   21598687.5084
  -3474163.27746  -2687542.80243  23738680.0944                   23738679.7154
 11  8 24  0 11  0.0000000  0  9G09G17G02G12G25G10G04G05G30
 -14213510.89847 -11056357.05744  23721730.5784                   23721733.2704
 -32662503.35947 -25431567.06944  23163176.5554                   23163177.9224
 -33790421.31648 -26310081.38547  20510168.7814                   20510164.9264
 -24230310.75847 -18862162.60146  21194284.8134                   21194283.1094
  -5043978.60947  -3910996.73144  23797612.2664                   23797614.5864
 -30209981.29348 -23523172.47446  20746444.5004                   20746443.5784
 -32080227.62548 -24976868.83145  21776459.7664                   21776459.7274
 -20783619.55947 -16175866.19946  21576325.4924                   21576325.4574
  -3604954.59447  -2789458.08944  23713791.6564                   23713791.3594
 11  8 24  0 11 30.0000000  0  9G09G17G02G12G25G10G04G05G30
 -14166840.28147 -11019990.39444  23730612.4774                   23730614.1604
 -32641222.47747 -25414984.62644  23167226.3364                   23167227.1174
 -33819071.49247 -26332406.17946  20504716.8754                   20504713.1374
 -24317923.30547 -18930432.09946  21177612.7584                   21177611.2464
  -5173652.93447  -4012041.62644  23772935.2424                   23772937.7424
 -30232018.27048 -23540344.10646  20742251.0704                   20742249.5824
 -32034520.67248 -24941253.04245  21785157.7974                   21785157.3834
 -20900786.59847 -16267165.10246  21554029.7974                   21554029.1804
  -3735480.66047  -2891166.63544  23688952.9384                   23688952.9454
 11  8 24  0 12  0.0000000  0  9G09G17G02G12G25G10G04G05G30
 -12544625.19147  -9755926.75544  24039308.6334                   24039312.1374
 -31044350.87147 -24170669.12244  23471101.2114                   23471102.2464
 -32272027.97748 -25126917.70946  20799109.1414                   20799105.6484
 -22829651.35548 -17770739.63746  21460821.6564                   21460819.8054
  -3727691.77346  -2885318.61544  24048093.5164                   24048095.1134
 -28677998.76248 -22329419.79346  21037970.8594                   21037969.5634
 -30413285.15248 -23677952.66045  22093668.4924                   22093667.8164
 -19442175.56247 -15130584.98246  21831593.9454                   21831593.5354
  -2290310.16046  -1765059.71644  23963959.7034                   23963959.5084
 11  8 24  0 12 30.0000000  0  9G09G17G02G12G25G10G04G05G30
 -12497713.21947  -9719372.05444  24048235.7584                   24048239.3914
 -31022733.44947 -24153824.49744  23475214.8444                   23475215.6174
 -32300141.25047 -25148824.13647  20793759.4304                   20793755.9964
 -22916346.46948 -17838294.25346  21444324.0554                   21444321.9264
  -3856948.23847  -2986037.86144  24023496.2034                   24023498.4654
 -28698771.86348 -22345606.59546  21034018.0084                   21034016.5864
 -30367367.17647 -23642172.43545  22102406.4224                   22102406.3554
 -19558639.00847 -15221335.61946  21809431.6954                   21809431.4144
  -2420296.18746  -1866347.44443  23939223.9924                   23939224.2384
 11  8 24  0 13  0.0000000  0  9G09G17G02G12G25G10G04G05G30
 -12450694.51647  -9682734.18544  24057183.5634                   24057186.3794
 -31000956.35247 -24136855.39644  23479359.4304                   23479359.9534
 -32327996.47748 -25170529.49347  20788458.8204                   20788455.4064
 -23002588.62948 -17905495.90446  21427912.7194                   21427910.7274
  -3986000.77347  -3086598.19344  23998938.2734                   23998940.5274
 -28718922.35548 -22361308.25246  21030183.2814                   21030182.2544
 -30321355.35248 -23606319.08945  22111161.8134                   22111161.3794
 -19674755.67248 -15311816.05646  21787335.3914                   21787335.0864
  -2550016.69946  -1967428.32144  23914539.7114                   23914539.2894
 11  8 24  0 13 30.0000000  0  9G09G17G02G12G25G10G04G05G30
 -12403563.82047  -9646009.04044  24066152.6024                   24066154.8404
 -30979010.19147 -24119754.57445  23483535.6884                   23483536.4064
 -32355586.57848 -25192028.25347  20783208.5234                   20783205.1764
 -23088366.94948 -17972336.12246  21411589.4844                   21411587.7584
  -4114838.11347  -3186990.84444  23974421.3754                   23974423.9924
 -28738442.04748 -22376518.38546  21026468.9384                   21026467.6884
 -30275242.95747 -23570387.38145  22119937.0164                   22119936.6954
 -19790513.83248 -15402017.14346  21765307.1414                   21765306.7154
  -2679460.40247  -2068293.50843  23889906.6884                   23889906.7814
 11  8 24  0 14  0.0000000  0  9G09G17G02G12G25G10G04G05G30
 -12356324.30146  -9609199.10844  24075141.5004                   24075144.5554
 -30956894.03147 -24102521.26745  23487743.8984                   23487744.5394
 -32382912.66048 -25213321.29247  20778009.0004                   20778004.9454
 -23173679.23448 -18038813.18646  21395355.0084                   21395353.1684
  -4243457.53547  -3287213.68644  23949946.0474                   23949948.1644
 -28757331.07448 -22391237.07846  21022874.6644                   21022873.3094
 -30229031.67247 -23534378.59845  22128730.7034                   22128730.1054
 -19905911.05948 -15491936.96346  21743347.6024                   21743347.3984
  -2808624.41046  -2168940.67044  23865327.7814                   23865327.3984
 11  8 24  0 14 30.0000000  0  9G09G17G02G12G25G10G04G05G30
 -12308979.71146  -9572307.30044  24084150.8524                   24084154.0354
 -30934607.91447 -24085155.53644  23491984.7274                   23491985.6414
 -32409976.08648 -25234409.65347  20772858.8284                   20772855.0864
 -23258523.53548 -18104925.59346  21379209.7584                   21379208.1294
  -4371856.64847  -3387264.85844  23925512.6804                   23925515.0904
 -28775590.58648 -22405465.25346  21019400.1564                   21019398.4804
 -30182723.80547 -23498294.59145  22137542.7814                   22137542.7344
 -20020944.43448 -15581573.26046  21721457.4694                   21721457.1334
  -2937506.17246  -2269367.94244  23840802.1564                   23840801.9924
 11  8 24  0 15  0.0000000  0  9G09G17G02G12G25G10G04G05G30
 -12261533.66846  -9535336.44944  24093179.8204                   24093182.9774
 -30912151.52747 -24067657.10444  23496258.2194                   23496258.9734
 -32436778.64548 -25255294.74346  20767758.1564                   20767754.7344
 -23342898.43748 -18170672.22746  21363153.7664                   21363152.0434
  -4500033.32447  -3487142.68444  23901121.6254                   23901123.5824
 -28793220.98848 -22419203.21146  21016044.7814                   21016043.6454
 -30136321.34447 -23462136.86745  22146372.8674                   22146372.8164
 -20135611.93748 -15670924.47946  21699637.0084                   21699636.3244
  -3066103.30546  -2369573.40344  23816331.5164                   23816330.8834
 11  8 24  0 15 30.0000000  0  9G09G17G02G12G25G10G04G05G30
 -12213994.10546  -9498292.74844  24102226.0704                   24102229.9344
 -30889529.44147 -24050029.60044  23500562.7194                   23500563.3554
 -32463326.02048 -25275980.99347  20762706.4384                   20762703.0474
 -23426806.19948 -18236054.85246  21347186.6724                   21347184.9964
  -4627989.41047  -3586848.62544  23876771.8444                   23876773.8874
 -28810227.58248 -22432455.08646  21012808.5864                   21012807.3874
 -30089830.72748 -23425910.45745  22155220.3674                   22155219.3554
 -20249915.63747 -15759992.19546  21677885.3674                   21677884.9774
  -3194417.53946  -2469558.44944  23791912.8834                   23791913.7034
 11  8 24  0 16  0.0000000  0  9G09G17G02G12G25G10G04G05G30
 -12166360.81247  -9461176.06144  24111290.7734                   24111293.7624
 -30866737.46947 -24032269.71244  23504900.3674                   23504900.9534
 -32489616.09848 -25296466.74846  20757703.4694                   20757699.9804
 -23510241.36748 -18301069.23046  21331309.2734                   21331307.7194
  -4755718.82047  -3686377.93944  23852465.4304                   23852467.6764
 -28826607.38748 -22445218.54846  21009691.5634                   21009690.5274
 -30043250.57847 -23389614.25745  22164083.4844                   22164083.1914
 -20363849.29348 -15848771.57446  21656204.6644                   21656204.1174
  -3322442.65647  -2569318.18844  23767550.8204                   23767550.8134
 11  8 24  0 16 30.0000000  0  9G09G17G02G12G25G10G04G05G30
 -12118640.16847  -9423991.23644  24120371.7114                   24120374.7734
 -30843777.82847 -24014379.15944  23509269.2194                   23509270.0594
 -32515652.82048 -25316755.07947  20752749.0704                   20752745.3594
 -23593204.74248 -18365715.97946  21315522.0164                   21315520.1024
  -4883221.84047  -3785730.82744  23828202.5634                   23828205.0314
 -28842363.80948 -22457496.27246  21006693.1174                   21006692.5904
 -29996585.29347 -23353251.72945  22172964.1884                   22172963.4844
 -20477413.11748 -15937262.76946  21634593.9844                   21634593.6454
  -3450178.66447  -2668852.68843  23743243.5554                   23743243.2154
 11  8 24  0 17  0.0000000  0  9G09G17G02G12G25G10G04G05G30
 -12070835.01647  -9386740.60044  24129469.0164                   24129471.8954
 -30820649.84847 -23996357.42344  23513670.8204                   23513670.8554
 -32541437.10548 -25336846.72147  20747842.4224                   20747838.8594
 -23675693.65648 -18429993.02846  21299825.0314                   21299823.0164
  -5010495.18747  -3884904.77145  23803983.4384                   23803985.3244
 -28857496.79748 -22469288.21146  21003813.6484                   21003812.4844
 -29949836.10247 -23316823.84545  22181860.2664                   22181859.5864
 -20590604.02048 -16025463.38146  21613054.1884                   21613054.1454
  -3577622.23447  -2768159.29544  23718992.5634                   23718991.1914
 11  8 24  0 17 30.0000000  0  9G09G17G02G12G25G10G04G05G30
 -12022944.59447  -9349423.55944  24138582.4064                   24138585.0164
 -30797348.60247 -23978200.67544  23518104.7194                   23518105.6914
 -32566965.80948 -25356739.19646  20742984.5704                   20742980.9494
 -23757702.32048 -18493895.83946  21284218.8594                   21284216.9534
  -5137532.27047  -3983894.58845  23779808.9614                   23779811.1764
 -28872002.82448 -22480591.59446  21001053.5164                   21001051.9024
 -29903000.89847 -23280328.91745  22190772.8984                   22190772.2344
 -20703415.06648 -16113368.00546  21591587.0944                   21591586.4574
  -3704766.58646  -2867232.74144  23694796.6174                   23694796.2664
 11  8 24  0 18  0.0000000  0  9G09G17G02G12G25G10G04G05G30
 -11974974.97346  -9312044.76244  24147710.9844                   24147714.1294
 -30773876.59447 -23959910.85044  23522571.4304                   23522572.1024
 -32592243.25448 -25376435.89047  20738174.1884                   20738170.7274
 -23839231.44947 -18557425.00846  21268704.5944                   21268702.4494
  -5264333.32047  -4082700.51144  23755679.2114                   23755681.3054
 -28885885.13348 -22491408.97446  20998411.3754                   20998409.9804
 -29856084.23847 -23243770.52045  22199700.8284                   22199700.1454
 -20815846.64547 -16200976.93846  21570192.0474                   21570191.5784
  -3831611.75447  -2966073.03644  23670658.9384                   23670658.8984
 11  8 24  0 18 30.0000000  0  9G09G17G02G12G25G10G04G05G30
 -11926928.89846  -9274606.40644  24156853.5864                   24156856.9024
 -30750233.07047 -23941487.40644  23527071.0004                   23527071.5634
 -32617270.21148 -25395937.39647  20733411.6884                   20733407.9654
 -23920278.57048 -18620578.58546  21253281.6564                   21253279.8914
  -5390895.10247  -4181319.99145  23731595.5474                   23731597.6174
 -28899144.23848 -22501740.74246  20995888.1724                   20995886.9884
 -29809087.27347 -23207149.55045  22208643.9144                   22208643.5744
 -20927895.83248 -16288287.91446  21548869.7504                   21548869.5944
  -3958154.43747  -3064677.65643  23646578.4694                   23646578.0864
 11  8 24  0 19  0.0000000  0  9G09G17G02G12G25G10G04G05G30
 -11878807.82846  -9237109.58344  24166011.0394                   24166014.1484
 -30726415.20347 -23922928.10644  23531603.7194                   23531603.6134
 -32642045.91448 -25415243.11547  20728697.0634                   20728693.7344
 -24000839.53148 -18683353.33646  21237951.6724                   21237949.6914
  -5517212.88747  -4279749.33944  23707557.6174                   23707560.0234
 -28911778.66848 -22511585.75546  20993484.0394                   20993482.9774
 -29762009.75847 -23170465.80545  22217602.4384                   22217602.0704
 -21039557.96148 -16375297.26846  21527621.2114                   21527620.3444
  -4084389.68747  -3163042.70744  23622556.6484                   23622556.0824
 11  8 24  0 19 30.0000000  0  9G09G17G02G12G25G10G04G05G30
 -11830615.75446  -9199557.51844  24175181.6884                   24175184.8284
 -30702423.69547 -23904233.50444  23536168.9694                   23536168.9964
 -32666572.35548 -25434354.61546  20724029.9694                   20724026.3984
 -24080913.21947 -18745748.40046  21222714.2734                   21222711.9304
  -5643285.01647  -4377987.24544  23683567.0704                   23683569.7384
 -28923790.06248 -22520945.28646  20991198.3674                   20991197.1644
 -29714854.40647 -23133721.41945  22226575.8754                   22226575.3134
 -21150830.98847 -16462003.44046  21506446.2424                   21506445.8874
  -4210315.77747  -3261166.85443  23598593.6564                   23598593.0234
 11  8 24  0 20  0.0000000  0  9G09G17G02G12G25G10G04G05G30
 -11782355.52746  -9161952.25444  24184365.5164                   24184369.2034
 -30678257.46547 -23885402.75344  23540767.8444                   23540768.0704
 -32690850.09848 -25453272.31247  20719409.9064                   20719406.4734
 -24160497.27348 -18807761.92646  21207569.4924                   21207567.6294
  -5769108.21947  -4476031.20444  23659623.1174                   23659625.0274
 -28935178.26648 -22529819.21546  20989031.3284                   20989030.1844
 -29667622.14147 -23096917.09545  22235563.8754                   22235563.6134
 -21261711.84848 -16548404.02946  21485346.5394                   21485345.9494
  -4335929.24647  -3359047.42043  23574690.4924                   23574689.8324
 11  8 24  0 20 30.0000000  0  9G09G17G02G12G25G10G04G05G30
 -11734026.55946  -9124293.42644  24193562.4224                   24193566.4774
 -30653912.21947 -23866432.51044  23545400.4924                   23545400.9104
 -32714876.62148 -25471994.25446  20714838.0234                   20714834.4344
 -24239585.77348 -18869389.30646  21192519.5004                   21192517.5084
  -5894675.90247  -4573876.05944  23635728.5554                   23635730.7194
 -28945940.25848 -22538205.17746  20986983.1564                   20986982.0744
 -29620311.01647 -23060051.33745  22244566.9924                   22244566.6024
 -21372193.93448 -16634493.88946  21464322.4694                   21464321.1524
  -4461223.47347  -3456679.18844  23550847.1484                   23550847.0634
 11  8 24  0 21  0.0000000  0  9G09G17G02G12G25G10G04G05G30
 -11685635.03146  -9086585.91744  24202770.8524                   24202774.2194
 -30629390.34847 -23847324.57944  23550066.8674                   23550067.3054
 -32738656.00848 -25490523.62046  20710312.9304                   20710309.3164
 -24318180.02348 -18930631.56446  21177563.7344                   21177561.7344
  -6019988.32847  -4671521.95345  23611882.1254                   23611884.7074
 -28956079.68048 -22546106.01446  20985054.0164                   20985053.0164
 -29572925.34047 -23023127.44645  22253584.1884                   22253583.5784
 -21482278.09448 -16720273.64946  21443374.1094                   21443372.8874
  -4586198.44546  -3554062.18544  23527065.4454                   23527064.7344
 11  8 24  0 21 30.0000000  0  9G09G17G02G12G25G10G04G05G30
 -11637184.76247  -9048832.51143  24211990.8674                   24211994.0274
 -30604692.07047 -23828079.23944  23554766.5234                   23554767.4184
 -32762189.93048 -25508861.72547  20705834.2974                   20705830.8594
 -24396278.09048 -18991487.17646  21162702.0234                   21162700.0434
  -6145043.34447  -4768967.30445  23588085.5944                   23588086.9774
 -28965598.06248 -22553522.93046  20983242.5634                   20983241.5744
 -29525467.71147 -22986147.52245  22262615.0944                   22262614.8794
 -21591962.07447 -16805741.60246  21422501.7584                   21422500.8404
  -4710851.94947  -3651194.67744  23503344.9614                   23503344.3834
 11  8 24  0 22  0.0000000  0  9G09G17G02G12G25G10G04G05G30
 -11588681.03547  -9011037.56643  24221221.0554                   24221224.0124
 -30579818.39847 -23808697.20844  23559499.8834                   23559500.8674
 -32785481.78548 -25527011.21047  20701401.9454                   20701398.7344
 -24473880.29748 -19051956.40746  21147934.7194                   21147932.6174
  -6269840.30947  -4866211.57344  23564336.8674                   23564338.7154
 -28974498.26648 -22560458.14946  20981549.0864                   20981547.6914
 -29477941.52747 -22949114.16345  22271659.4304                   22271658.3754
 -21701245.28948 -16890897.27346  21401705.9534                   21401704.7854
  -4835183.10547  -3748075.99344  23479685.3594                   23479685.2734
 11  8 24  0 22 30.0000000  0  9G09G17G02G12G25G10G04G05G30
 -11540128.79347  -8973204.72243  24230459.4614                   24230463.6684
 -30554771.09047 -23789179.86244  23564266.0944                   23564266.9264
 -32808534.75048 -25544974.52646  20697015.3524                   20697011.9264
 -24550986.49248 -19112039.14146  21133261.8054                   21133260.1054
  -6394378.41447  -4963254.14745  23540638.0164                   23540640.2704
 -28982782.66448 -22566913.51446  20979972.3204                   20979971.3874
 -29430350.16847 -22912030.01345  22280715.2034                   22280714.9064
 -21810126.93748 -16975740.03646  21380986.3834                   21380985.1844
  -4959191.09046  -3844705.49544  23456087.2974                   23456087.0314
 11  8 24  0 23  0.0000000  0  9G09G17G02G12G25G10G04G05G30
 -11491525.55946  -8935332.20443  24239709.0234                   24239711.8834
 -30529544.31247 -23769522.66144  23569066.5864                   23569067.7464
 -32831344.29348 -25562748.18247  20692674.6724                   20692671.1094
 -24627589.31248 -19171729.63146  21118684.7584                   21118683.0664
  -6518649.35547  -5060088.54345  23516990.5084                   23516991.8914
 -28990446.55148 -22572885.37646  20978514.1884                   20978513.1094
 -29382689.85547 -22874892.14145  22289784.9454                   22289784.4454
 -21918598.89848 -17060263.57446  21360344.7974                   21360343.8244
  -5082867.49246  -3941076.60444  23432552.2734                   23432551.7894
 11  8 24  0 23 30.0000000  0  9G09G17G02G12G25G10G04G05G30
 -11442876.21946  -8897423.70343  24248966.6024                   24248969.2424
 -30504139.10946 -23749726.41144  23573901.7424                   23573902.2544
 -32853913.00448 -25580334.17546  20688380.0164                   20688376.3054
 -24703688.14548 -19231027.40246  21104203.7034                   21104201.9184
  -6642651.91447  -5156713.78145  23493393.1094                   23493395.3484
 -28997492.47748 -22578375.70446  20977173.3054                   20977171.8164
 -29334963.85547 -22837703.06945  22298866.9774                   22298866.6884
 -22026659.97748 -17144466.91946  21339781.2424                   21339780.4384
  -5206210.98846  -4037188.28944  23409080.7504                   23409080.1454
 11  8 24  0 24  0.0000000  0  9G09G17G02G12G25G10G04G05G30
 -11394188.33647  -8859485.18743  24258232.1094                   24258234.6914
 -30478559.09846 -23729793.98244  23578769.4384                   23578769.4224
 -32876246.32848 -25597736.74546  20684130.1094                   20684126.6334
 -24779285.62948 -19289934.50946  21089817.8914                   21089815.9104
  -6766387.69547  -5253131.18145  23469847.0474                   23469848.7384
 -29003925.49248 -22583388.40946  20975949.2344                   20975947.7814
 -29287177.77347 -22800467.18045  22307960.0634                   22307959.8834
 -22134312.21148 -17228351.69046  21319295.8834                   21319294.7034
  -5329222.87946  -4133041.57644  23385672.3364                   23385671.9414
 11  8 24  0 24 30.0000000  0  9G09G17G02G12G25G10G04G05G30
 -11345461.41847  -8821516.27643  24267505.0474                   24267507.7114
 -30452800.28146 -23709722.18644  23583670.7194                   23583671.5634
 -32898342.13748 -25614954.25147  20679925.3674                   20679921.7034
 -24854376.42648 -19348446.80046  21075528.5554                   21075527.0044
  -6889850.38347  -5349335.78345  23446352.9384                   23446354.4104
 -29009743.04748 -22587921.55346  20974841.9304                   20974840.7974
 -29239329.53947 -22763182.85145  22317065.5084                   22317064.9654
 -22241549.22348 -17311912.92246  21298889.1724                   21298888.1764
  -5451896.97346  -4228631.64244  23362328.1484                   23362327.4734
 11  8 24  0 25  0.0000000  0  9G09G17G02G12G25G10G04G05G30
 -11296700.76247  -8783521.02543  24276783.0314                   24276787.1054
 -30426864.07046 -23689512.19244  23588605.7664                   23588607.4694
 -32920203.62548 -25631989.17747  20675765.1174                   20675761.6764
 -24928960.59848 -19406564.31846  21061335.9534                   21061333.8244
  -7013039.46147  -5445327.20345  23422910.2114                   23422912.1844
 -29014947.96148 -22591977.30146  20973851.4924                   20973850.6174
 -29191423.06247 -22725853.13645  22326182.0394                   22326181.0824
 -22348370.85548 -17395150.47446  21278561.6334                   21278560.4804
  -5574232.45747  -4323957.86344  23339048.4924                   23339047.0474
 11  8 24  0 25 30.0000000  0  9G09G17G02G12G25G10G04G05G30
 -11247910.15247  -8745502.48843  24286068.3134                   24286071.4534
 -30400751.00046 -23669164.38844  23593575.7734                   23593576.4924
 -32941832.78148 -25648843.05547  20671649.3754                   20671645.6844
 -25003037.02048 -19464286.17846  21047239.4924                   21047237.6024
  -7135952.97347  -5541103.90144  23399520.9614                   23399522.3594
 -29019542.01248 -22595557.05046  20972977.0164                   20972976.0904
 -29143460.53547 -22688479.73745  22335308.3834                   22335308.2704
 -22454774.99248 -17478062.70846  21258313.5084                   21258312.6094
  -5696227.35246  -4419018.70444  23315833.4454                   23315832.7384
 11  8 24  0 26  0.0000000  0  9G09G17G02G12G25G10G04G05G30
 -11199092.98046  -8707463.22043  24295357.9064                   24295360.5944
 -30374460.57046 -23648678.38344  23598578.5084                   23598579.7854
 -32963230.41848 -25665516.53447  20667577.6094                   20667573.9774
 -25076603.84448 -19521610.94646  21033240.1804                   21033238.3954
  -7258588.04347  -5636663.64545  23376183.5634                   23376185.3524
 -29023526.50447 -22598661.81646  20972219.1024                   20972217.7234
 -29095443.53547 -22651063.89845  22344446.1724                   22344445.4884
 -22560759.44948 -17560647.91446  21238145.5234                   21238144.6254
  -5817878.85546  -4513811.95744  23292683.6174                   23292683.0514
 11  8 24  0 26 30.0000000  0  9G09G17G02G12G25G10G04G05G30
 -11150249.27346  -8669403.33743  24304652.3444                   24304656.3094
 -30347989.23446 -23628051.44544  23603616.0634                   23603617.4264
 -32984394.68748 -25682008.16447  20663550.0864                   20663546.0634
 -25149656.35248 -19578534.96046  21019338.7974                   21019336.8284
  -7380938.95347  -5732002.00945  23352901.7664                   23352902.9454
 -29026898.76247 -22601289.51946  20971577.1254                   20971576.0434
 -29047370.37947 -22613604.31545  22353594.0474                   22353593.3794
 -22666318.66848 -17642901.77446  21218058.0234                   21218057.0204
  -5939180.85246  -4608332.90244  23269600.3594                   23269599.8954
 11  8 24  0 27  0.0000000  0  9G09G17G02G12G25G10G04G05G30
 -11101384.16446  -8631326.78843  24313950.9454                   24313954.8954
 -30321338.90246 -23607285.02944  23608687.1724                   23608688.2154
 -33005329.48448 -25698320.99046  20659566.1884                   20659562.6134
 -25222195.05148 -19635058.58046  21005535.0084                   21005532.9264
  -7503005.24647  -5827118.59045  23329673.2034                   23329674.4574
 -29029662.53148 -22603443.07146  20971051.4844                   20971050.3014
 -28999244.84447 -22576103.90145  22362752.0474                   22362751.7194
 -22771452.38748 -17724824.07446  21198051.4534                   21198050.4064
  -6060133.01646  -4702581.21344  23246584.0474                   23246583.6644
 11  8 24  0 27 30.0000000  0  9G09G17G02G12G25G10G04G05G30
 -11052500.82046  -8593236.04043  24323253.3364                   24323257.9104
 -30294508.72746 -23586378.49744  23613793.2504                   23613794.5234
 -33026035.54348 -25714455.58046  20655626.0864                   20655622.3444
 -25294217.59848 -19691180.02046  20991829.4454                   20991827.3134
  -7624784.21147  -5922011.30645  23306499.4454                   23306500.6604
 -29031818.90647 -22605123.34446  20970640.8444                   20970639.8244
 -28951068.66047 -22538564.03145  22371920.1024                   22371919.6024
 -22876158.22348 -17806412.95146  21178126.6804                   21178125.8164
  -6180732.40246  -4796554.70644  23223634.3984                   23223634.4844
 11  8 24  0 28  0.0000000  0  9G09G17G02G12G25G10G04G05G30
 -11003600.47746  -8555132.00843  24332558.5634                   24332563.2464
 -30267496.80946 -23565330.31244  23618933.5084                   23618934.8674
 -33046512.02748 -25730411.28547  20651729.7664                   20651725.7464
 -25365720.66048 -19746896.66546  20978222.6954                   20978220.9804
  -7746270.95347  -6016676.33345  23283381.5004                   23283383.0394
 -29033366.68047 -22606329.37046  20970346.1484                   20970345.1214
 -28902840.79747 -22500983.86945  22381096.8674                   22381096.6954
 -22980431.31248 -17887664.63346  21158284.0944                   21158282.9804
  -6300974.21946  -4890249.55144  23200753.3754                   23200752.3594
 11  8 24  0 28 30.0000000  0  9G09G17G02G12G25G10G04G05G30
 -10954689.56646  -8517019.74643  24341866.7504                   24341870.6844
 -30240305.72346 -23544142.54844  23624107.4064                   23624108.8094
 -33066763.47348 -25746191.63946  20647875.8054                   20647872.0864
 -25436705.74248 -19802209.68746  20964714.8674                   20964712.7274
  -7867466.19546  -6111114.18845  23260318.3834                   23260319.7304
 -29034310.33247 -22607064.66946  20970166.8284                   20970165.4344
 -28854566.28147 -22463367.37045  22390283.6884                   22390283.2424
 -23084272.60948 -17968579.85546  21138523.6564                   21138522.6804
  -6420858.90247  -4983666.19344  23177940.1094                   23177939.0704
 11  8 24  0 29  0.0000000  0  9G09G17G02G12G25G10G04G05G30
 -10905769.22346  -8478900.13843  24351175.5554                   24351179.7624
 -30212933.46146 -23522813.60944  23629316.0554                   23629317.8404
 -33086789.03948 -25761795.98146  20644065.3054                   20644061.1254
 -25507169.14848 -19857116.21646  20951306.5944                   20951303.8754
  -7988365.10247  -6205321.15345  23237312.0234                   23237313.6724
 -29034649.01247 -22607328.54846  20970102.2734                   20970100.9304
 -28806244.67247 -22425714.18245  22399478.7894                   22399478.8874
 -23187677.24648 -18049154.82246  21118846.4614                   21118845.5354
  -6540381.82047  -5076800.89944  23155195.6954                   23155195.1954
 11  8 24  0 29 30.0000000  0  9G09G17G02G12G25G10G04G05G30
 -10856845.34046  -8440777.77743  24360485.7344                   24360489.2154
 -30185381.98846 -23501345.00444  23634559.7974                   23634560.3594
 -33106593.02048 -25777227.65546  20640296.6254                   20640292.9144
 -25577112.19148 -19911617.26146  20937996.2344                   20937994.4654
  -8108968.06247  -6299297.49945  23214362.3204                   23214363.7854
 -29034387.19548 -22607124.51946  20970152.1884                   20970150.7504
 -28757880.26647 -22388027.65645  22408682.1564                   22408682.2424
 -23290646.83248 -18129390.78946  21099251.8444                   21099250.9454
  -6659543.11747  -5169653.85244  23132520.1884                   23132519.3284
 11  8 24  0 30  0.0000000  0  9G09G17G02G12G25G10G04G05G30
 -10807918.04346  -8402652.77544  24369796.6024                   24369800.3404
 -30157648.21546 -23479734.34644  23639837.4534                   23639838.2894
 -33126173.39148 -25792485.10046  20636570.6094                   20636567.0944
 -25646530.17648 -19965709.18346  20924786.5004                   20924784.7814
  -8229269.29747  -6393038.68345  23191469.4924                   23191470.6174
 -29033522.68748 -22606450.86746  20970316.5634                   20970315.0634
 -28709471.75447 -22350306.77245  22417893.4224                   22417894.0594
 -23393175.35248 -18209283.06746  21079741.2734                   21079740.1994
  -6778336.93047  -5262220.47444  23109913.7504                   23109913.7624
 11  8 24  0 30 30.0000000  0  9G09G17G02G12G25G10G04G05G30
 -10758986.46146  -8364524.40444  24379108.2424                   24379111.8874
 -30129727.75047 -23457978.20344  23645150.0944                   23645151.4184
 -33145527.48848 -25807566.21746  20632887.4924                   20632883.5204
 -25715417.44948 -20019387.55146  20911677.9224                   20911675.7624
  -8349262.23447  -6486539.65645  23168635.6334                   23168636.8674
 -29032052.67248 -22605305.38346  20970596.3674                   20970595.0474
 -28661016.32047 -22312549.31645  22427114.7974                   22427114.7114
 -23495256.85548 -18288827.02946  21060315.5554                   21060314.6994
  -6896756.64547  -5354495.59844  23087380.0474                   23087379.5084
 11  8 24  0 31  0.0000000  0  9G09G17G02G12G25G10G04G05G30
 -10710056.23446  -8326397.10344  24388419.8674                   24388423.0084
 -30101622.84446 -23436078.36844  23650498.5554                   23650499.5164
 -33164659.07448 -25822473.94246  20629246.8134                   20629243.0864
 -25783775.21948 -20072653.32246  20898669.8364                   20898668.0514
  -8468946.74247  -6579800.25845  23145860.3984                   23145861.7074
 -29029981.08248 -22603691.15146  20970990.9924                   20970989.5354
 -28612518.24647 -22274758.64545  22436343.1954                   22436343.5084
 -23596891.28948 -18368022.61346  21040975.4064                   21040974.6994
  -7014802.16447  -5446479.09044  23064916.4924                   23064916.0474
 11  8 24  0 31 30.0000000  0  9G09G17G02G12G25G10G04G05G30
 -10661133.66046  -8288275.77544  24397729.3754                   24397733.2234
 -30073335.78946 -23414036.55644  23655881.9844                   23655882.1294
 -33183572.14548 -25837211.40446  20625648.1564                   20625644.3794
 -25851604.44948 -20125507.25546  20885762.4614                   20885760.1804
  -8588322.89147  -6672820.56545  23123144.2424                   23123145.3914
 -29027312.25848 -22601611.53946  20971498.3834                   20971497.3754
 -28563981.79747 -22236938.06945  22445580.0234                   22445579.8324
 -23698079.37948 -18446870.40746  21021719.5784                   21021718.6414
  -7132473.47347  -5538171.04344  23042524.4224                   23042523.8284
 11  8 24  0 32  0.0000000  0  9G09G17G02G12G25G10G04G05G30
 -10612218.78946  -8250160.40444  24407037.8834                   24407041.8054
 -30044863.31646 -23391850.25844  23661299.6804                   23661300.7234
 -33202265.24648 -25851777.47247  20622090.4384                   20622087.0434
 -25918900.63748 -20177945.82346  20872956.2974                   20872954.2464
  -8707385.46947  -6765596.52845  23100486.8364                   23100487.9884
 -29024044.85948 -22599065.49646  20972120.4844                   20972119.0864
 -28515405.68447 -22199086.57845  22454823.5004                   22454823.7194
 -23798815.90248 -18525366.32546  21002550.2034                   21002549.5474
  -7249765.04747  -5629567.07944  23020204.4224                   23020204.0864
 11  8 24  0 32 30.0000000  0  9G09G17G02G12G25G10G04G05G30
 -10563317.68747  -8212055.73544  24416342.8134                   24416346.7624
 -30016208.80546 -23369522.11244  23666752.6094                   23666753.3914
 -33220742.50848 -25866175.34247  20618574.7274                   20618570.7974
 -25985665.58648 -20229970.44546  20860250.8914                   20860249.2664
  -8826134.60947  -6858128.25144  23077889.8134                   23077890.7234
 -29020183.07848 -22596056.29246  20972855.2194                   20972853.8984
 -28466794.04747 -22161207.42545  22464073.7974                   22464073.6484
 -23899101.55548 -18603510.90946  20983466.2584                   20983465.5984
  -7366677.19947  -5720667.41444  22997956.8754                   22997956.2424
 11  8 24  0 33  0.0000000  0  9G09G17G02G12G25G10G04G05G30
 -10514434.17647  -8173964.79244  24425645.5554                   24425649.7424
 -29987372.08646 -23347051.99644  23672239.7504                   23672240.6214
 -33239005.62548 -25880406.35146  20615099.2194                   20615095.6414
 -26051898.41448 -20281580.42946  20847647.5554                   20847645.4024
  -8944568.33247  -6950414.13445  23055352.6094                   23055353.2664
 -29015728.77048 -22592585.37346  20973702.6644                   20973701.4844
 -28418149.10247 -22123302.33045  22473331.1254                   22473330.8674
 -23998934.58248 -18681302.82146  20964468.9694                   20964467.9144
  -7483207.77747  -5811470.42944  22975781.7274                   22975780.8754
 11  8 24  0 33 30.0000000  0  9G09G17G02G12G25G10G04G05G30
 -10465566.89847  -8135886.47544  24434944.4844                   24434948.5744
 -29958348.42246 -23324436.23744  23677762.8914                   23677764.3054
 -33257051.56248 -25894468.13346  20611665.3524                   20611661.7304
 -26117593.13748 -20332771.11746  20835146.1334                   20835144.0514
  -9062679.68447  -7042448.87644  23032876.7504                   23032877.4454
 -29010679.12148 -22588650.58346  20974663.2814                   20974662.2194
 -28369467.91447 -22085368.98545  22482594.7584                   22482594.6644
 -24098308.12548 -18758736.68646  20945558.8594                   20945557.6254
  -7599349.82446  -5901970.66744  22953680.6724                   22953679.8244
 11  8 24  0 34  0.0000000  0  9G09G17G02G12G25G10G04G05G30
 -10416722.94947  -8097826.39643  24444238.9454                   24444243.3794
 -29929141.77347 -23301677.84044  23683320.3364                   23683321.9574
 -33274885.73448 -25908364.89546  20608271.4774                   20608267.7154
 -26182751.88748 -20383544.15246  20822746.9844                   20822744.6374
  -9180470.26247  -7134233.64345  23010461.5474                   23010462.5314
 -29005039.75448 -22584256.25846  20975736.5084                   20975735.3794
 -28320756.05147 -22047411.72745  22491864.6644                   22491864.6914
 -24197224.79748 -18835814.54047  20926735.5394                   20926734.4344
  -7715104.88747  -5992169.34744  22931652.9844                   22931652.5744
 11  8 24  0 34 30.0000000  0  9G09G17G02G12G25G10G04G05G30
 -10367900.27046  -8059782.76443  24453530.1254                   24453534.1054
 -29899746.25446 -23278772.28544  23688914.7194                   23688915.6094
 -33292503.76648 -25922093.22546  20604918.5864                   20604914.9144
 -26247368.44948 -20433894.72146  20810451.0084                   20810448.6954
  -9297931.82847  -7225762.04145  22988109.2734                   22988110.4104
 -28998806.56648 -22579399.22246  20976922.9614                   20976921.5784
 -28272009.44947 -22009427.43645  22501140.6564                   22501140.4414
 -24295676.74248 -18912530.28446  20908000.4924                   20907999.6954
  -7830464.64847  -6082060.00944  22909700.8134                   22909700.5204
 11  8 24  0 35  0.0000000  0  9G09G17G02G12G25G10G04G05G30
 -10319104.51646  -8021760.16343  24462815.4304                   24462819.5004
 -29870164.58646 -23255721.68444  23694544.3054                   23694544.8014
 -33309909.58248 -25935656.20846  20601606.5084                   20601603.3404
 -26311444.48448 -20483824.09046  20798257.6254                   20798255.5864
  -9415064.58647  -7317034.23545  22965819.6254                   22965820.9224
 -28991983.85248 -22574082.80846  20978221.0704                   20978219.5784
 -28223232.10247 -21971419.14845  22510422.9064                   22510422.4964
 -24393664.57848 -18988884.38046  20889354.0164                   20889353.1294
  -7945429.34447  -6171642.81644  22887823.7974                   22887823.0864
 11  8 24  0 35 30.0000000  0  9G09G17G02G12G25G10G04G05G30
 -10270338.52746  -7983760.78643  24472095.2034                   24472099.0704
 -29840396.13346 -23232525.53444  23700209.1804                   23700209.6174
 -33327104.13348 -25949054.55946  20598334.7664                   20598330.8834
 -26374977.31648 -20533330.18146  20786167.5474                   20786165.3324
  -9531865.52047  -7408047.86445  22943593.3134                   22943594.9804
 -28984572.75848 -22568307.92346  20979631.4304                   20979630.2544
 -28174425.18047 -21933387.84245  22519710.4064                   22519710.0234
 -24491185.43448 -19064874.58746  20870796.4144                   20870795.3794
  -8059995.91047  -6260915.39744  22866022.6884                   22866021.6804
 11  8 24  0 36  0.0000000  0  9G09G17G02G12G25G10G04G05G30
 -10221608.77746  -7945789.59543  24481367.9534                   24481372.0434
 -29810444.20746 -23209186.44644  23705908.5394                   23705909.1844
 -33344092.27048 -25962292.06346  20595102.2274                   20595098.2194
 -26437969.97748 -20582415.37346  20774180.6024                   20774178.5634
  -9648335.80547  -7498803.87445  22921429.6564                   22921431.1294
 -28976579.02748 -22562079.03146  20981152.4224                   20981151.2464
 -28125593.94147 -21895337.55745  22529002.8054                   22529002.2384
 -24588240.96948 -19140502.20546  20852327.2504                   20852326.0314
  -8174165.54347  -6349878.66744  22844296.7894                   22844295.8364
 11  8 24  0 36 30.0000000  0  9G09G17G02G12G25G10G04G05G30
  -8597498.10946  -6680248.92642  24790426.0704                   24790430.6374
 -28204887.53146 -21958103.39544  24011435.7424                   24011436.4774
 -31785452.87948 -24747767.86346  20891701.1254                   20891697.3094
 -24924996.49648 -19403474.98046  21062089.9614                   21062087.4144
  -8189047.14547  -6361695.75345  23199122.7664                   23199124.5274
 -27392582.29748 -21327795.84646  21282576.9924                   21282575.3834
 -26501319.35547 -20629669.10744  22838091.7114                   22838091.6294
 -23109404.11348 -17988161.72146  21133740.3054                   21133739.2584
  -6712510.00047  -5210926.23944  23122440.3674                   23122439.4614
 11  8 24  0 37  0.0000000  0  9G09G17G02G12G25G10G04G05G30
  -8548841.49246  -6642334.70843  24799685.2114                   24799689.7304
 -28174558.75846 -21934470.66343  24017206.9144                   24017207.9104
 -31802023.16448 -24760679.74946  20888547.7424                   20888544.2234
 -24986895.20748 -19451707.72646  21050310.9614                   21050308.9654
  -8304839.39547  -6451923.44245  23177088.1094                   23177089.7504
 -27383418.22748 -21320655.01146  21284320.8984                   21284319.5944
 -26452434.25047 -20591576.85844  22847394.6884                   22847393.9534
 -23205514.04348 -18063052.51446  21115450.9774                   21115449.8714
  -6825868.89847  -5299257.78744  23100869.1724                   23100867.9804
 11  8 24  0 37 30.0000000  0  9G09G17G02G12G25G10G04G05G30
  -8500227.10946  -6604453.45043  24808936.1804                   24808941.1454
 -28144042.23446 -21910691.61944  24023013.7974                   24023015.0904
 -31818387.08248 -24773430.84346  20885434.1954                   20885430.1054
 -25048245.93747 -19499513.47746  21038636.2344                   21038634.1764
  -8420289.78147  -6541884.73745  23155118.7664                   23155119.5824
 -27373672.37948 -21313060.82846  21286175.6884                   21286174.0944
 -26403525.14547 -20553465.90644  22856701.9064                   22856701.5394
 -23301149.01248 -18137573.20846  21097252.4224                   21097251.2974
  -6938819.52347  -5387271.20244  23079374.8754                   23079374.0474
 11  8 24  0 38  0.0000000  0  9G09G17G02G12G25G10G04G05G30
  -8451654.96946  -6566605.16042  24818179.4144                   24818183.4454
 -28113335.23446 -21886764.20244  24028857.1334                   24028859.1484
 -31834543.34448 -24786020.11146  20882359.6804                   20882355.9024
 -25109044.82448 -19546889.21646  21027066.4534                   21027064.4844
  -8535393.01647  -6631575.54545  23133215.0784                   23133215.9694
 -27363343.79748 -21305012.57246  21288141.2114                   21288140.0904
 -26354590.85247 -20515335.31444  22866013.5704                   22866013.2114
 -23396304.34048 -18211720.14146  21079145.1024                   21079143.8714
  -7051356.63347  -5474962.36344  23057959.7664                   23057959.3914
 11  8 24  0 38 30.0000000  0  9G09G17G02G12G25G10G04G05G30
  -8403126.60946  -6528790.96942  24827414.3674                   24827418.4454
 -28082435.71546 -21862686.72944  24034737.8754                   24034739.2624
 -31850491.34048 -24798447.10146  20879324.6174                   20879320.8914
 -25169288.54348 -19593832.36046  21015602.5634                   21015600.3674
  -8650144.66447  -6720992.37845  23111379.1884                   23111380.0314
 -27352432.35248 -21296510.14346  21290217.3284                   21290216.0664
 -26305631.11347 -20477184.91744  22875329.9924                   22875330.0234
 -23490976.02348 -18285490.21146  21061129.5394                   21061128.0824
  -7163475.80947  -5562327.90044  23036624.0704                   23036623.4924
 11  8 24  0 39  0.0000000  0  9G09G17G02G12G25G10G04G05G30
  -8354653.40646  -6491019.77743  24836638.0634                   24836642.7034
 -28051351.95746 -21838465.69144  24040652.7424                   24040653.9144
 -31866240.74648 -24810719.34646  20876327.7114                   20876324.0394
 -25228984.51648 -19640348.68246  21004242.7194                   21004240.7704
  -8764550.77347  -6810139.98245  23089608.2344                   23089609.2234
 -27340948.56648 -21287561.72446  21292402.7424                   21292401.4844
 -26256655.35947 -20439022.04344  22884649.9224                   22884650.0044
 -23585170.57448 -18358888.51346  21043204.8594                   21043203.6884
  -7275182.95747  -5649372.39344  23015366.8134                   23015366.2704
 11  8 24  0 39 30.0000000  0  9G09G17G02G12G25G10G04G05G30
  -8306234.68446  -6453290.97843  24845852.5554                   24845856.6564
 -28020079.91846 -21814097.96444  24046603.5634                   24046604.9654
 -31881789.31648 -24822835.08846  20873369.0704                   20873365.0594
 -25288128.12148 -19686434.59146  20992988.1724                   20992986.0984
  -8878605.19547  -6899013.53545  23067904.1024                   23067905.3954
 -27328890.29748 -21278165.67146  21294697.4614                   21294696.1414
 -26207661.73847 -20400845.23944  22893973.6564                   22893973.0634
 -23678882.44148 -18431910.68446  21025371.9614                   21025370.6254
  -7386472.10247  -5736091.13844  22994189.4384                   22994189.0044
 11  8 24  0 40  0.0000000  0  9G09G17G02G12G25G10G04G05G30
  -8257880.67246  -6415612.60744  24855053.8054                   24855058.9224
 -27988626.73846 -21789589.06044  24052589.2114                   24052590.7584
 -31897145.49248 -24834800.90246  20870446.6254                   20870442.7734
 -25346725.12148 -19732094.56846  20981837.5164                   20981835.5084
  -8992312.40647  -6987616.54045  23046266.2344                   23046267.9104
 -27316266.31648 -21268328.80846  21297099.4384                   21297097.7934
 -26158658.34847 -20362660.79444  22903298.2974                   22903298.1684
 -23772116.61748 -18504560.63246  21007630.2194                   21007628.9104
  -7497347.68447  -5822487.63844  22973090.5864                   22973089.9414
 11  8 24  0 40 30.0000000  0  9G09G17G02G12G25G10G04G05G30
  -8209584.40247  -6377979.26744  24864244.9064                   24864249.0394
 -27956982.25846 -21764931.07944  24058611.1254                   24058612.5514
 -31912300.39548 -24846609.89546  20867562.8204                   20867559.0204
 -25404764.51248 -19777320.05946  20970792.7424                   20970790.8244
  -9105659.84047  -7075939.20245  23024697.2034                   23024698.4414
 -27303068.44148 -21258044.75346  21299611.1884                   21299609.7664
 -26109636.52047 -20324461.99444  22912627.1954                   22912627.4454
 -23864860.98848 -18576828.92847  20989981.1804                   20989979.9184
  -7607797.21147  -5908552.14744  22952072.7974                   22952071.8054
 11  8 24  0 41  0.0000000  0  9G09G17G02G12G25G10G04G05G30
  -8161351.57047  -6340395.33244  24873423.2424                   24873427.9494
 -27925149.00846 -21740125.98744  24064668.6564                   24064670.3324
 -31927257.80548 -24858264.99346  20864716.6094                   20864712.9774
 -25462247.39848 -19822111.90246  20959854.2734                   20959852.2934
  -9218647.82447  -7163981.75845  23003195.8284                   23003197.4304
 -27289301.42647 -21247317.21246  21302230.7504                   21302229.6914
 -26060600.46147 -20286252.09345  22921958.3204                   22921958.1764
 -23957116.82848 -18648716.54346  20972425.6804                   20972424.1294
  -7717820.97347  -5994284.89644  22931135.8524                   22931135.1374
 11  8 24  0 41 30.0000000  0  9G09G17G02G12G25G10G04G05G30
  -8113188.04347  -6302865.43044  24882589.0784                   24882593.1994
 -27893129.47746 -21715175.77044  24070761.9844                   24070763.2464
 -31942021.65648 -24869769.27446  20861906.8594                   20861903.1914
 -25519176.27748 -19866472.05246  20949021.2584                   20949018.9184
  -9331276.53947  -7251744.35545  22981763.3364                   22981764.7344
 -27274969.80948 -21236149.71346  21304958.1564                   21304956.7074
 -26011554.19947 -20248034.26544  22931291.5164                   22931291.1884
 -24048885.27348 -18720224.35947  20954962.5554                   20954961.1994
  -7827419.10947  -6079685.99644  22910279.7034                   22910278.9024
 11  8 24  0 42  0.0000000  0  9G09G17G02G12G25G10G04G05G30
  -8065091.68747  -6265387.87144  24891741.0864                   24891745.6844
 -27860918.87146 -21690076.68144  24076891.6094                   24076892.5984
 -31956588.32448 -24881119.89646  20859135.0784                   20859131.4144
 -25575544.34048 -19910395.20646  20938294.6724                   20938292.5124
  -9443538.44147  -7339221.12445  22960400.7974                   22960402.0944
 -27260070.33247 -21224539.74046  21307793.5234                   21307792.0434
 -25962493.91447 -20209805.52744  22940627.7274                   22940627.3404
 -24140158.74648 -18791346.50047  20937593.8594                   20937592.5554
  -7936584.17247  -6164749.63944  22889506.7504                   22889505.3524
 11  8 24  0 42 30.0000000  0  9G09G17G02G12G25G10G04G05G30
  -8017066.44147  -6227965.73644  24900880.2974                   24900884.9694
 -27828517.76246 -21664829.11544  24083057.3204                   24083058.4804
 -31970960.04348 -24892318.62746  20856400.4694                   20856396.4614
 -25631351.82048 -19953881.52746  20927674.8524                   20927672.6804
  -9555432.02348  -7426410.88145  22939108.3984                   22939109.5824
 -27244605.83648 -21212489.46646  21310736.0084                   21310734.6254
 -25913421.84447 -20171567.57644  22949965.4384                   22949965.5744
 -24230936.36748 -18862082.24847  20920319.6024                   20920318.0084
  -8045314.74247  -6249474.69644  22868815.2894                   22868814.3914
 11  8 24  0 43  0.0000000  0  9G09G17G02G12G25G10G04G05G30
  -7969118.03546  -6190603.46044  24910004.8134                   24910009.3054
 -27795928.83646 -21639435.18544  24089258.8754                   24089260.2344
 -31985140.64848 -24903368.43146  20853701.7424                   20853697.9104
 -25686600.41048 -19996932.36646  20917161.3594                   20917159.0664
  -9666957.53547  -7513313.81145  22917885.8134                   22917886.5394
 -27228581.07848 -21200002.65046  21313785.6334                   21313783.9304
 -25864342.20747 -20133323.71744  22959305.0234                   22959304.9614
 -24321219.27048 -18932432.50947  20903139.2194                   20903137.9384
  -8153610.97347  -6333861.35045  22848207.6884                   22848206.5124
 11  8 24  0 43 30.0000000  0  9G09G17G02G12G25G10G04G05G30
  -7921248.34046  -6153302.52144  24919113.8524                   24919118.9804
 -27763150.79747 -21613893.88544  24095496.0474                   24095497.5004
 -31999130.43048 -24914269.54246  20851039.6024                   20851035.7274
 -25741288.14148 -20039546.17046  20906754.3364                   20906751.9574
  -9778111.44947  -7599927.18345  22896733.5084                   22896734.8954
 -27211996.82047 -21187079.86046  21316941.2974                   21316939.6724
 -25815255.12947 -20095074.06544  22968646.0394                   22968645.7344
 -24411004.27048 -19002394.79546  20886053.4694                   20886052.0664
  -8261469.53547  -6417906.91744  22827682.4064                   22827681.8094
 11  8 24  0 44  0.0000000  0  8G17G02G12G25G10G04G05G30
 -27730182.81647 -21588204.57144  24101769.9774                   24101770.9964
 -32012930.02748 -24925022.45346  20848413.3754                   20848409.6054
 -25795413.25048 -20081721.56346  20896454.6644                   20896452.5634
  -9888890.80947  -7686248.70045  22875652.7734                   22875654.0744
 -27194854.74247 -21173722.38846  21320203.4144                   21320201.7584
 -25766161.12147 -20056819.02544  22977988.4064                   22977988.3324
 -24500289.20748 -19071967.42047  20869063.0944                   20869061.9304
  -8368887.43047  -6501609.12044  22807241.8134                   22807240.5234
 11  8 24  0 44 30.0000000  0  8G17G02G12G25G10G04G05G30
 -27697021.26247 -21562364.41744  24108079.9064                   24108081.8634
 -32026536.51648 -24935624.88246  20845824.4454                   20845820.3444
 -25848971.02348 -20123454.88046  20886263.0944                   20886260.7664
  -9999289.16847  -7772273.31745  22854644.5784                   22854646.0634
 -27177152.86747 -21159928.72246  21323572.2814                   21323570.4654
 -25717057.85546 -20018556.75444  22987332.6484                   22987332.4184
 -24589068.55148 -19141146.06547  20852168.7974                   20852167.7034
  -8475858.26247  -6584962.96344  22786885.6094                   22786884.9024
 11  8 24  0 45  0.0000000  0  8G17G02G12G25G10G04G05G30
 -27663663.67246 -21536371.57044  24114427.9454                   24114429.4614
 -32039949.16848 -24946076.29346  20843271.9694                   20843268.1134
 -25901958.29348 -20164743.65146  20876180.1414                   20876177.8594
 -10109301.81247  -7857997.36145  22833709.7734                   22833711.3714
 -27158890.71147 -21145698.47146  21327047.1414                   21327045.9384
 -25667943.95347 -19980286.25444  22996678.2344                   22996678.5474
 -24677337.92248 -19209927.34747  20835371.8054                   20835370.7114
  -8582377.34847  -6667964.77944  22766615.5314                   22766614.5944
 11  8 24  0 45 30.0000000  0  8G17G02G12G25G10G04G05G30
 -27630106.64546 -21510223.26544  24120813.6254                   24120814.6724
 -32053165.79348 -24956374.94146  20840756.7894                   20840752.9774
 -25954370.55148 -20205584.34546  20866206.2584                   20866204.1804
 -10218922.90247  -7943416.30845  22812849.6884                   22812851.0984
 -27140066.70348 -21131030.41346  21330629.2424                   21330627.7544
 -25618817.52347 -19942005.97044  23006026.7274                   23006026.6524
 -24765092.39548 -19278307.39247  20818672.6414                   20818671.3984
  -8688438.94547  -6750610.14645  22746432.6644                   22746431.9494
 11  8 24  0 46  0.0000000  0  8G17G02G12G25G10G04G05G30
 -27596354.00846 -21483922.52544  24127237.0704                   24127237.9184
 -32066191.69148 -24966524.96346  20838278.2894                   20838274.3054
 -26006211.07448 -20245979.55146  20856341.2194                   20856339.2194
 -10328154.19147  -8028531.53145  22792063.8444                   22792064.9734
 -27120687.12948 -21115929.44446  21334317.3364                   21334315.6914
 -25569683.77747 -19903719.99444  23015377.0164                   23015376.7734
 -24852334.41048 -19346288.13647  20802071.0784                   20802069.6054
  -8794044.73047  -6832900.31045  22726336.6644                   22726335.8914
 11  8 24  0 46 30.0000000  0  8G17G02G12G25G10G04G05G30
 -27562408.98046 -21457471.86644  24133695.7114                   24133697.2584
 -32079030.77048 -24976529.42046  20835835.1564                   20835830.9384
 -26057482.35548 -20285931.18746  20846584.4614                   20846582.3914
 -10436996.27747  -8113343.46245  22771351.6094                   22771352.6414
 -27100757.36748 -21100399.75546  21338109.8284                   21338107.8324
 -25520546.97747 -19865431.61744  23024727.9534                   23024727.7114
 -24939065.21148 -19413870.53047  20785566.6414                   20785565.3594
  -8899195.52747  -6914835.93545  22706327.0004                   22706326.6174
 11  8 24  0 47  0.0000000  0  8G17G02G12G25G10G04G05G30
 -27528270.35546 -21430870.38744  24140192.1024                   24140193.8444
 -32091683.45348 -24986388.64947  20833427.1334                   20833423.3834
 -26108182.25048 -20325437.58246  20836936.8134                   20836934.8244
 -10545445.50447  -8197849.28045  22750714.5084                   22750715.4024
 -27080278.16048 -21084441.92246  21342006.5084                   21342005.1804
 -25471407.30147 -19827141.03544  23034078.6644                   23034078.1414
 -25025282.12948 -19481052.48247  20769160.1564                   20769158.6214
  -9003887.71147  -6996414.18845  22686404.5004                   22686403.7234
 11  8 24  0 47 30.0000000  0  8G17G02G12G25G10G04G05G30
 -27493942.11346 -21404121.18344  24146724.5474                   24146726.4104
 -32104154.84448 -24996106.59446  20831053.9454                   20831050.0354
 -26158314.02748 -20364501.30546  20827397.1484                   20827394.9964
 -10653503.66847  -8282050.37445  22730151.4924                   22730152.8054
 -27059255.82448 -21068060.87446  21346006.8054                   21346005.4884
 -25422269.85547 -19788852.15944  23043428.8054                   23043429.0204
 -25110987.32848 -19547835.71047  20752850.8054                   20752849.3054
  -9108123.09847  -7077636.51945  22666569.3914                   22666568.2234
 11  8 24  0 48  0.0000000  0  8G17G02G12G25G10G04G05G30
 -27459421.86746 -21377222.33644  24153293.9614                   24153296.0634
 -32116443.94148 -25005682.49746  20828715.4304                   20828711.6454
 -26207874.19548 -20403119.60746  20817966.1414                   20817963.5204
 -10761166.14147  -8365943.16045  22709663.7814                   22709664.9804
 -27037690.30148 -21051256.57346  21350110.8284                   21350109.4144
 -25373133.73847 -19750564.30544  23052779.1484                   23052779.2774
 -25196177.14548 -19614217.33246  20736639.7504                   20736638.4104
  -9211897.21147  -7158499.42345  22646821.8984                   22646820.6024
 11  8 24  0 48 30.0000000  0  8G17G02G12G25G10G04G05G30
 -27424711.73446 -21350175.50244  24159898.8834                   24159900.8444
 -32128553.87948 -25015118.80046  20826411.0314                   20826407.1994
 -26256864.76248 -20441294.06346  20808643.7974                   20808641.1724
 -10868432.41047  -8449527.20645  22689252.0234                   22689253.1214
 -27015585.72748 -21034032.23446  21354316.9694                   21354315.5824
 -25324001.93047 -19712279.84044  23062129.1954                   23062128.8364
 -25280851.59048 -19680197.35547  20720526.7424                   20720524.9924
  -9315209.59047  -7239002.52745  22627162.3444                   22627161.3244
 11  8 24  0 49  0.0000000  0  8G17G02G12G25G10G04G05G30
 -27389812.69946 -21322981.55044  24166540.4144                   24166541.7934
 -32140487.04748 -25024417.36546  20824139.9384                   20824136.3094
 -26305285.69948 -20479024.65046  20799429.5474                   20799427.1024
 -10975301.28147  -8532801.60845  22668915.5004                   22668916.5514
 -26992945.28148 -21016390.32246  21358625.4144                   21358624.0744
 -25274876.67647 -19674000.44944  23071477.1954                   23071477.0704
 -25365010.45748 -19745775.64947  20704511.6484                   20704510.3164
  -9418059.12147  -7319144.96245  22607590.4454                   22607589.5594
 11  8 24  0 49 30.0000000  0  8G17G02G12G25G10G04G05G30
 -27354723.55546 -21295639.40543  24173217.4844                   24173218.8524
 -32152243.07048 -25033577.89346  20821903.2194                   20821899.1094
 -26353134.68448 -20516309.57546  20790324.1484                   20790321.7704
 -11081768.86747  -8615763.32045  22648655.3444                   22648655.9654
 -26969769.63348 -20998331.38545  21363035.5164                   21363034.4064
 -25225757.69547 -19635725.96744  23080824.1954                   23080824.4184
 -25448650.55948 -19810949.69847  20688595.4454                   20688593.9654
  -9520442.16847  -7398923.93445  22588107.8834                   22588106.4964
 11  8 24  0 50  0.0000000  0  8G17G02G12G25G10G04G05G30
 -27319446.21146 -21268150.55443  24179930.7734                   24179932.0084
 -32163825.59848 -25042603.23246  20819698.8364                   20819695.1294
 -26400413.55148 -20553150.24446  20781327.1644                   20781324.7894
 -11187835.21147  -8698412.35945  22628471.3364                   22628472.4024
 -26946063.45748 -20979859.01746  21367546.9144                   21367545.2544
 -25176648.62147 -19597459.17144  23090169.1024                   23090169.5594
 -25531772.70348 -19875720.15046  20672778.0634                   20672776.3134
  -9622358.57447  -7478339.23945  22568713.6254                   22568712.6914
 11  8 24  0 50 30.0000000  0  8G17G02G12G25G10G04G05G30
 -27283977.30146 -21240512.51343  24186680.2584                   24186682.2424
 -32175231.89548 -25051491.26046  20817528.1804                   20817524.4534
 -26447118.01648 -20589543.32346  20772439.7894                   20772437.2774
 -11293494.14547  -8780743.95345  22608365.1644                   22608366.6454
 -26921825.25448 -20960972.10846  21372159.4614                   21372157.6524
 -25127546.66847 -19559197.93344  23099512.9304                   23099513.1024
 -25614371.66448 -19940082.91747  20657059.7734                   20657058.1134
  -9723802.48847  -7557386.39045  22549409.0944                   22549408.2114
 11  8 24  0 51  0.0000000  0  8G17G02G12G25G10G04G05G30
 -27248318.88746 -21212726.69143  24193465.5784                   24193466.5704
 -32186465.64148 -25060244.82146  20815390.9454                   20815386.9924
 -26493249.49248 -20625489.91846  20763661.2424                   20763658.5314
 -11398745.45747  -8862757.90845  22588336.6804                   22588337.5704
 -26897059.16448 -20941673.85046  21376871.9694                   21376870.3984
 -25078455.10247 -19520944.79544  23108854.8054                   23108854.9494
 -25696448.28148 -20004038.67747  20641441.2114                   20641439.6254
  -9824773.79747  -7636065.29145  22530195.0784                   22530194.2384
 11  8 24  0 51 30.0000000  0  8G17G02G12G25G10G04G05G30
 -27212469.42646 -21184792.12443  24200287.4454                   24200288.8164
 -32197526.17248 -25068863.40946  20813285.7034                   20813281.9144
 -26538806.01248 -20660988.50546  20754991.8834                   20754989.5944
 -11503585.39147  -8944451.31645  22568386.0704                   22568387.2774
 -26871766.10248 -20921964.97346  21381685.0634                   21381683.4964
 -25029373.80146 -19482699.65544  23118194.4924                   23118194.7304
 -25777999.20348 -20067584.80047  20625922.3984                   20625920.7504
  -9925268.76647  -7714373.00045  22511071.3054                   22511070.6604
 11  8 24  0 52  0.0000000  0  8G17G02G12G25G10G04G05G30
 -27176428.45346 -21156708.22943  24207145.9924                   24207147.1174
 -32208414.35548 -25077347.72546  20811214.2734                   20811210.3324
 -26583786.46948 -20696038.20546  20746432.2814                   20746429.8284
 -11608011.12947  -9025821.98445  22548514.4304                   22548515.5904
 -26845947.82448 -20901846.83345  21386598.2194                   21386596.6564
 -24980303.20747 -19444462.83544  23127532.5164                   23127532.4304
 -25859022.98448 -20130720.15847  20610503.9144                   20610502.3834
 -10025284.75847  -7792307.48945  22492039.0864                   22492038.1254
 11  8 24  0 52 30.0000000  0  8G17G02G12G25G10G04G05G30
 -27140198.84046 -21128477.38643  24214040.6254                   24214041.5124
 -32219134.12948 -25085700.79746  20809174.1414                   20809170.3244
 -26628192.82048 -20730640.56046  20737982.0944                   20737979.7234
 -11712023.12947  -9106870.25045  22528721.8204                   22528722.7154
 -26819609.65647 -20881323.58346  21391610.0704                   21391608.4304
 -24931247.17246 -19406237.38044  23136867.5164                   23136867.7344
 -25939520.77748 -20193445.66247  20595185.7584                   20595184.2464
 -10124822.35247  -7869869.19345  22473097.4774                   22473096.2894
 11  8 24  0 53  0.0000000  0  8G17G02G12G25G10G04G05G30
 -27103779.34446 -21100098.60143  24220970.1094                   24220971.8954
 -32229685.12548 -25093922.37346  20807166.1334                   20807162.5474
 -26672023.35548 -20764794.21046  20729641.5314                   20729638.9694
 -11815617.80947  -9187593.32745  22509008.3834                   22509008.9534
 -26792752.53147 -20860395.96345  21396720.8444                   21396719.2854
 -24882205.42246 -19368023.06144  23146200.2034                   23146199.7544
 -26019489.67248 -20255759.03447  20579968.2274                   20579966.4884
 -10223878.09847  -7947055.42445  22454247.8914                   22454246.9844
 11  8 24  0 53 30.0000000  0  8G17G02G12G25G10G04G05G30
 -27067166.96546 -21071569.45643  24227938.2894                   24227938.6454
 -32240065.62548 -25102011.08246  20805190.8674                   20805186.9264
 -26715274.57448 -20798496.45446  20721411.1954                   20721408.7154
 -11918789.75847  -9267987.01445  22489375.0704                   22489376.0434
 -26765375.50448 -20839063.20646  21401930.4774                   21401929.1054
 -24833176.17246 -19329818.46944  23155530.0554                   23155529.9884
 -26098925.05148 -20317656.68947  20564852.0944                   20564850.3674
 -10322446.68047  -8023862.08045  22435491.1414                   22435489.7774
 11  8 24  0 54  0.0000000  0  8G17G02G12G25G10G04G05G30
 -27030361.52746 -21042889.87243  24234941.7814                   24234943.0274
 -32250276.59848 -25109967.68946  20803247.6414                   20803243.9384
 -26757945.91848 -20831746.83746  20713290.7424                   20713288.3554
 -12021536.64547  -9348049.49945  22469822.5634                   22469823.7344
 -26737480.76647 -20817327.05346  21407238.9304                   21407237.3364
 -24784160.12546 -19291624.17744  23164857.3834                   23164857.4884
 -26177825.54748 -20379137.54947  20549838.2114                   20549836.1994
 -10420525.92247  -8100287.38745  22416826.8674                   22416826.0554
 11  8 24  0 54 30.0000000  0  8G17G02G12G25G10G04G05G30
 -26993368.20346 -21014063.96543  24241980.7664                   24241983.0044
 -32260324.60547 -25117797.32246  20801335.9224                   20801331.7854
 -26800042.06648 -20864549.01446  20705280.0234                   20705277.7304
 -12123861.35547  -9427782.99745  22450351.4384                   22450352.4304
 -26709075.86347 -20795193.37646  21412644.0234                   21412642.8364
 -24735163.74246 -19253445.17544  23174181.0004                   23174181.3364
 -26256195.14848 -20440204.71547  20534924.4694                   20534922.8914
 -10518118.83247  -8176333.75645  22398255.5474                   22398254.3714
 11  8 24  0 55  0.0000000  0  8G17G02G12G25G10G04G05G30
 -26956186.28546 -20985091.01343  24249056.4454                   24249058.0594
 -32270209.01248 -25125499.47146  20799454.8594                   20799451.0434
 -26841561.24648 -20896901.60046  20697379.3914                   20697376.9614
 -12225760.14147  -9507184.61245  22430960.5944                   22430961.4574
 -26680161.88347 -20772663.00045  21418146.0634                   21418144.5864
 -24686186.32846 -19215281.01144  23183501.5704                   23183501.1954
 -26334030.95348 -20500855.95147  20520112.7344                   20520110.9104
 -10615221.86747  -8251998.41145  22379777.4694                   22379776.2114
 11  8 24  0 55 30.0000000  0  8G17G02G12G25G10G04G05G30
 -26918812.19546 -20955968.35643  24256169.1094                   24256170.0164
 -32279927.92647 -25133072.66146  20797605.5554                   20797601.5744
 -26882499.54747 -20928801.55046  20689588.9304                   20689586.5554
 -12327227.69147  -9586250.18945  22411651.8754                   22411652.6884
 -26650738.00447 -20749735.32045  21423745.1024                   21423743.6484
 -24637226.15246 -19177130.24444  23192818.5084                   23192818.3364
 -26411328.67248 -20561087.89747  20505403.6804                   20505402.0634
 -10711829.81247  -8327277.30445  22361393.7814                   22361392.2424
 11  8 24  0 56  0.0000000  0  9G29G17G02G12G25G10G04G05G30
   2986795.64156   2337516.45554  24554185.5704                   24554186.3444
 -26881252.22346 -20926700.89943  24263316.1884                   24263317.5274
 -32289488.41447 -25140522.40546  20795785.8594                   20795782.5474
 -26922862.78547 -20960253.40046  20681908.0634                   20681905.4774
 -12428267.69947  -9664982.64145  22392424.2034                   22392425.5084
 -26620812.69948 -20726416.90545  21429439.9694                   21429438.4184
 -24588289.87547 -19138998.12944  23202130.8054                   23202130.5744
 -26488092.89548 -20620904.13747  20490795.7114                   20490794.2464
 -10807946.52747  -8402173.37445  22343103.3914                   22343102.1054
 11  8 24  0 56 30.0000000  0  9G29G17G02G12G25G10G04G05G30
   2874616.91047   2250104.55544  24532838.7424                   24532838.3984
 -26843514.75446 -20897295.04543  24270496.9304                   24270498.9454
 -32298900.13348 -25147856.21046  20793995.2734                   20793991.4534
 -26962659.35948 -20991263.70246  20674335.1644                   20674332.8594
 -12528886.50047  -9743386.86645  22373277.5474                   22373278.2074
 -26590396.98048 -20702716.35545  21435227.7344                   21435226.3054
 -24539387.27046 -19100892.22644  23211436.5084                   23211436.7274
 -26564330.66848 -20680310.15247  20476288.3754                   20476286.5044
 -10903578.62947  -8476691.84645  22324905.0554                   22324904.0124
 11  8 24  0 57  0.0000000  0  9G29G17G02G12G25G10G04G05G30
   2762349.49247   2162623.53344  24511475.3284                   24511474.7854
 -26805594.02746 -20867746.43443  24277714.1334                   24277715.1564
 -32308158.19948 -25155070.29446  20792233.3914                   20792229.4614
 -27001882.53548 -21021827.18146  20666871.1884                   20666868.7704
 -12629075.80547  -9821456.42145  22354212.2734                   22354212.8404
 -26559487.33247 -20678630.91645  21441109.7274                   21441108.6844
 -24490513.18747 -19062808.57944  23220736.8524                   23220737.1914
 -26640034.77748 -20739300.33147  20461882.0084                   20461880.4414
 -10998717.82047  -8550826.22945  22306800.4454                   22306799.1764
 11  8 24  0 57 30.0000000  0  9G29G17G02G12G25G10G04G05G30
   2649990.90246   2075071.48744  24490093.6884                   24490094.0514
 -26767492.77347 -20838057.11743  24284964.1094                   24284965.3954
 -32317266.46148 -25162167.65446  20790500.2194                   20790496.3014
 -27040534.84048 -21051945.84246  20659515.7194                   20659513.3714
 -12728836.17647  -9899191.73045  22335228.1884                   22335229.4184
 -26528088.71147 -20654164.49145  21447085.0394                   21447083.2734
 -24441671.27747 -19024750.02444  23230031.3284                   23230031.1294
 -26715206.94148 -20797876.01447  20447577.5704                   20447575.6804
 -11093364.87147  -8624577.13145  22288789.9454                   22288788.3364
 11  8 24  0 58  0.0000000  0  9G29G17G02G12G25G10G04G05G30
   2537545.49646   1987451.78643  24468695.7504                   24468695.7854
 -26729207.43447 -20808224.42744  24292249.8524                   24292251.0474
 -32326222.40647 -25169146.31246  20788795.9694                   20788792.0164
 -27078612.30948 -21081616.57246  20652269.9774                   20652267.6334
 -12828161.61347  -9976588.15545  22316326.8444                   22316328.5824
 -26496199.62148 -20629315.84945  21453153.4064                   21453151.6914
 -24392858.82447 -18986714.37144  23239320.0234                   23239320.2194
 -26789842.09848 -20856033.23847  20433374.8984                   20433373.1414
 -11187514.02747  -8697940.08845  22270873.6644                   22270872.3954
 11  8 24  0 58 30.0000000  0  9G29G17G02G12G25G10G04G05G30
   2425019.84046   1899769.54443  24447283.1254                   24447283.3484
 -26690731.72346 -20778243.28644  24299571.0164                   24299572.8524
 -32335021.16448 -25176002.50046  20787121.6884                   20787117.8204
 -27116108.78547 -21110834.59946  20645134.7734                   20645132.0594
 -12927044.03547 -10053639.37046  22297510.1024                   22297511.1724
 -26463816.79747 -20604082.50845  21459315.4064                   21459313.9104
 -24344070.76647 -18948697.77344  23248603.8284                   23248604.1254
 -26863932.78948 -20913766.20747  20419275.8754                   20419273.9064
 -11281157.43447  -8770908.93245  22253054.0234                   22253052.7304
 11  8 24  0 59  0.0000000  0  9G29G17G02G12G25G10G04G05G30
   2312411.07446   1812022.54843  24425854.1414                   24425854.2074
 -26652069.70747 -20748117.04044  24306928.2034                   24306929.8954
 -32343666.49248 -25182739.12046  20785476.8594                   20785472.3794
 -27153026.87948 -21139601.92346  20638109.3524                   20638106.9614
 -13025484.11347 -10130345.90045  22278777.8674                   22278778.5234
 -26430945.39848 -20578468.44245  21465570.4534                   21465568.8134
 -24295311.08247 -18910703.28444  23257882.8834                   23257883.2664
 -26937481.27748 -20971076.68147  20405280.0784                   20405278.0434
 -11374295.87547  -8843484.30645  22235329.9924                   22235329.2114
 11  8 24  0 59 30.0000000  0  9G29G17G02G12G25G10G04G05G30
   2199723.04346   1724213.77143  24404410.4384                   24404409.8554
 -26613218.59046 -20717843.44244  24314321.3134                   24314323.1564
 -32352156.94948 -25189355.07246  20783860.8984                   20783856.6414
 -27189363.58248 -21167916.22446  20631194.7274                   20631192.2194
 -13123477.09847 -10206704.04245  22260130.3754                   22260131.1174
 -26397585.44548 -20552473.67945  21471918.8054                   21471917.4024
 -24246578.02346 -18872729.57044  23267156.0084                   23267156.7664
 -27010483.56248 -21027961.53947  20391388.2034                   20391386.2234
 -11466924.71147  -8915662.59945  22217703.7344                   22217702.2384
 11  8 24  1  0  0.0000000  0  9G29G17G02G12G25G10G04G05G30
   2086955.28546   1636342.89743  24382951.1094                   24382950.9734
 -26574178.84847 -20687422.88744  24321750.6254                   24321751.7584
 -32360494.51648 -25195851.85546  20782274.3524                   20782270.2704
 -27225119.16448 -21195777.70646  20624390.5634                   20624388.0904
 -13221021.50847 -10282712.65345  22241567.9844                   22241569.3754
 -26363740.55148 -20526101.05845  21478359.3674                   21478357.9184
 -24197873.19546 -18834777.85144  23276424.4614                   23276424.3674
 -27082939.02048 -21084420.30147  20377600.0474                   20377598.4264
 -11559042.74247  -8987442.85245  22200173.9844                   22200172.7934
 11  8 24  1  0 30.0000000  0  9G29G17G02G12G25G10G04G05G30
   3549530.13346   2776011.69743  24661269.1884                   24661269.5864
 -24959534.04347 -19429258.10444  24629007.2424                   24629009.0084
 -30793261.70748 -23974631.48846  21080508.4774                   21080505.0944
 -25684875.11748 -19995587.52946  20917489.2034                   20917487.1254
 -11742694.02347  -9130769.13546  22522884.7504                   22522885.9384
 -24753996.24248 -19271754.86945  21784683.4924                   21784682.1054
 -22573781.05546 -17569251.60944  23585478.9534                   23585479.6684
 -25579426.63748 -19912852.17847  20663708.9614                   20663707.0864
 -10075227.07447  -7831222.82445  22482534.8674                   22482533.2854
 11  8 24  1  1  0.0000000  0  9G29G17G02G12G25G10G04G05G30
   3436604.69546   2688017.86343  24639781.0634                   24639780.8524
 -24920117.65646 -19398544.05044  24636507.7344                   24636509.2664
 -30801296.21948 -23980892.13646  21078979.8674                   21078976.0044
 -25719469.30948 -20022544.04646  20910906.0474                   20910903.9574
 -11839334.91447  -9206073.69546  22504494.7034                   22504495.8554
 -24719188.55548 -19244632.02545  21791307.1954                   21791305.8054
 -22525135.35246 -17531345.94044  23594736.0944                   23594736.6524
 -25650785.76648 -19968456.65247  20650129.5554                   20650127.9144
 -10166317.76647  -7902202.54845  22465200.8134                   22465199.5044
 11  8 24  1  1 30.0000000  0  8G29G02G12G25G10G04G05G30
   3323610.72346   2599970.72743  24618278.3594                   24618278.4534
 -30809171.44548 -23987028.66746  21077481.0704                   21077477.3364
 -25753472.89147 -20049040.33746  20904435.3834                   20904433.2544
 -11935511.46947  -9281016.44546  22486192.9224                   22486193.6644
 -24683893.81647 -19217129.64145  21798023.4774                   21798022.1254
 -22476511.11346 -17493457.01844  23603989.4844                   23603989.5164
 -25721585.65248 -20023625.35947  20636656.9844                   20636655.0124
 -10256882.47347  -7972772.42745  22447966.7114                   22447965.4144
 11  8 24  1  2  0.0000000  0  8G29G02G12G25G10G04G05G30
   3210540.22346   2511863.88744  24596761.7424                   24596762.1454
 -30816896.77048 -23993048.39046  21076010.9924                   21076007.3244
 -25786894.37148 -20075083.05346  20898075.7894                   20898073.5234
 -12031230.00447  -9355602.28946  22467978.2424                   22467979.0554
 -24648122.85547 -19189256.20145  21804830.4144                   21804828.9654
 -22427917.53947 -17455591.98444  23613236.6724                   23613236.8874
 -25791833.72348 -20078364.08347  20623289.1094                   20623287.3284
 -10346927.78547  -8042937.57845  22430831.7114                   22430830.5274
 11  8 24  1  2 30.0000000  0  8G29G02G12G25G10G04G05G30
   3097400.52046   2423703.12744  24575232.0084                   24575232.1564
 -30824466.77348 -23998947.09146  21074570.7504                   21074566.7504
 -25819726.94948 -20100666.88146  20891827.3984                   20891825.4884
 -12126481.98847  -9429824.58245  22449852.3054                   22449853.0904
 -24611871.95747 -19161008.76145  21811729.1174                   21811727.6174
 -22379349.37147 -17417746.69744  23622478.5944                   23622479.1334
 -25861522.12948 -20132666.70547  20610027.5944                   20610025.9064
 -10436445.37947  -8112691.52545  22413796.7274                   22413795.8444
 11  8 24  1  3  0.0000000  0  8G29G02G12G25G10G04G05G30
   2984198.03146   2335493.47144  24553690.5084                   24553690.8984
 -30831876.91447 -24004721.22246  21073160.3914                   21073156.5634
 -25851964.71548 -20125787.23646  20885693.2424                   20885690.8364
 -12221259.38747  -9503677.07745  22431816.6254                   22431817.5784
 -24575137.63747 -19132384.63845  21818719.2734                   21818717.8524
 -22330801.32847 -17379917.11244  23631717.2274                   23631717.4024
 -25930644.44948 -20186528.22047  20596874.3054                   20596872.4654
 -10525427.39147  -8182028.12845  22396864.6094                   22396862.9344
 11  8 24  1  3 30.0000000  0  8G29G02G12G25G10G04G05G30
   2870930.21546   2247232.91644  24532136.2274                   24532136.3284
 -30839131.01648 -24010373.76146  21071780.2194                   21071776.1644
 -25883610.59448 -20150446.36346  20879670.9534                   20879668.6684
 -12315563.13747  -9577160.49245  22413871.1484                   22413872.0514
 -24537925.84848 -19103388.46945  21825800.4844                   21825798.5164
 -22282277.19947 -17342106.13044  23640950.6804                   23640950.9614
 -25999202.51248 -20239950.05147  20583828.2584                   20583826.4734
 -10613875.04747  -8250948.36445  22380033.7344                   22380032.0234
 11  8 24  1  4  0.0000000  0  8G29G02G12G25G10G04G05G30
   2757594.14146   2158919.17844  24510568.9614                   24510569.2464
 -30846233.68048 -24015908.28946  21070428.5864                   21070424.3594
 -25914668.40647 -20174647.26547  20873761.0474                   20873758.9224
 -12409394.80147  -9650276.05046  22396015.9064                   22396016.5394
 -24500242.77347 -19074025.04145  21832971.6254                   21832969.8094
 -22233781.56647 -17304317.38544  23650179.1884                   23650179.3134
 -26067199.00048 -20292934.29047  20570888.8444                   20570887.4414
 -10701790.08647  -8319453.56145  22363303.5394                   22363302.2034
 11  8 24  1  4 30.0000000  0  8G29G02G12G25G10G04G05G30
   2644183.96546   2070547.67244  24488987.4924                   24488987.5394
 -30853192.63348 -24021330.84046  21069104.2274                   21069100.3874
 -25945144.98848 -20198395.27046  20867961.6484                   20867959.1454
 -12502758.97747  -9723027.33746  22378249.1334                   22378250.0864
 -24462097.68448 -19044301.62645  21840230.0234                   21840228.7584
 -22185321.62947 -17266556.39944  23659401.0314                   23659400.8484
 -26134639.78148 -20345485.51147  20558055.4304                   20558053.3404
 -10789177.44147  -8387547.57745  22346674.5004                   22346673.0204
 11  8 24  1  5  0.0000000  0  8G29G02G12G25G10G04G05G30
   2530704.66846   1982122.34044  24467392.7344                   24467393.0784
 -30860004.52048 -24026638.81246  21067808.0784                   21067803.7544
 -25975035.92648 -20221686.92546  20862273.6564                   20862271.2424
 -12595649.35548  -9795409.40245  22360572.5234                   22360573.3524
 -24423488.57848 -19014216.60745  21847577.2194                   21847575.8164
 -22136894.23047 -17228820.78844  23668616.5704                   23668616.7584
 -26201519.46148 -20397599.51547  20545328.5234                   20545326.8134
 -10876030.97347  -8455225.63645  22330146.7584                   22330145.3324
 11  8 24  1  5 30.0000000  0  8G29G02G12G25G10G04G05G30
   2417155.91446   1893642.88644  24445785.3834                   24445785.4734
 -30866670.99648 -24031833.46246  21066539.5164                   21066535.3674
 -26004342.07448 -20244522.88747  20856696.8594                   20856694.5554
 -12688064.77748  -9867421.39446  22342986.5164                   22342987.0944
 -24384418.97348 -18983772.77845  21855012.0394                   21855010.4734
 -22088500.92247 -17191111.72544  23677825.7504                   23677825.7154
 -26267838.19148 -20449276.40047  20532708.1954                   20532706.3984
 -10962349.78947  -8522487.04545  22313720.8134                   22313719.5354
 11  8 24  1  6  0.0000000  0  8G29G02G12G25G10G04G05G30
   2303540.16846   1805111.18643  24424164.8444                   24424164.8634
 -30873191.82448 -24036914.63946  21065298.4534                   21065294.5314
 -26033062.10248 -20266902.13846  20851231.5554                   20851228.6804
 -12780001.61748  -9939060.46546  22325491.4304                   22325492.2734
 -24344890.01648 -18952970.99245  21862533.5084                   21862532.3094
 -22040140.78947 -17153428.52044  23687028.0004                   23687028.3444
 -26333593.49648 -20500514.27147  20520195.2814                   20520193.3834
 -11048130.50047  -8589329.13245  22297397.1414                   22297395.6054
 11  8 24  1  6 30.0000000  0  8G29G02G12G25G10G04G05G30
   2189851.32046   1716522.56744  24402530.6724                   24402530.6054
 -30879574.55148 -24041888.19446  21064084.0314                   21064080.2504
 -26061202.62148 -20288829.82646  20845876.2734                   20845874.3914
 -12871464.52747 -10010330.23945  22308086.6334                   22308087.4964
 -24304911.21948 -18921818.69845  21870141.3594                   21870140.1724
 -21991821.37547 -17115777.03944  23696223.1484                   23696223.4024
 -26398791.12548 -20551317.59847  20507788.9694                   20507786.8954
 -11133378.09847  -8655755.81645  22281175.1954                   22281173.9654
 11  8 24  1  7  0.0000000  0  8G29G02G12G25G10G04G05G30
   2076091.62946   1627878.71244  24380882.8524                   24380882.7774
 -30885818.68048 -24046753.75546  21062895.6024                   21062891.9884
 -26088762.39148 -20310304.98047  20840631.9844                   20840629.8054
 -12962450.27048 -10081228.19646  22290772.5554                   22290773.2154
 -24264483.83648 -18890316.84245  21877834.8834                   21877833.3134
 -21943542.12147 -17078156.80444  23705410.3754                   23705410.2074
 -26463428.98048 -20601684.71547  20495488.6724                   20495486.6644
 -11218089.51647  -8721764.70645  22265055.0784                   22265053.8094
 11  8 24  1  7 30.0000000  0  8G29G02G12G25G10G04G05G30
   1962258.68847   1539177.76644  24359220.9064                   24359221.0274
 -30891928.19548 -24051514.42946  21061732.8914                   21061729.1884
 -26115744.39548 -20331329.91746  20835497.6094                   20835495.3594
 -13052959.68748 -10151754.97546  22273549.3364                   22273549.9224
 -24223613.14547 -18858469.56745  21885612.3284                   21885610.6334
 -21895306.39146 -17040570.55344  23714588.7194                   23714589.1684
 -26527508.84848 -20651617.04547  20483294.6254                   20483292.7234
 -11302265.94947  -8787356.70245  22249037.2274                   22249035.2974
 11  8 24  1  8  0.0000000  0  8G29G02G12G25G10G04G05G30
   1848362.70346   1450427.70844  24337547.8834                   24337547.0784
 -30897894.64848 -24056163.61646  21060597.7344                   21060593.7154
 -26142139.98048 -20351897.90446  20830474.5864                   20830472.1954
 -13142981.61748 -10221901.90246  22256418.6484                   22256419.0864
 -24182292.73847 -18826271.84745  21893475.3204                   21893473.9574
 -21847105.85547 -17003011.70144  23723761.3674                   23723761.9844
 -26591020.85547 -20701106.89347  20471208.2424                   20471206.7624
 -11385896.46547  -8852523.30745  22233122.3054                   22233120.9104
 11  8 24  1  8 30.0000000  0  8G29G02G12G25G10G04G05G30
   1734404.10946   1361628.82044  24315862.3674                   24315861.4024
 -30903718.99248 -24060702.07146  21059489.6094                   21059485.5944
 -26167949.23448 -20372009.02746  20825563.2114                   20825561.3524
 -13232514.30948 -10291667.60145  22239381.0314                   22239381.9844
 -24140525.64548 -18793726.07045  21901423.5314                   21901421.8364
 -21798941.54347 -16965481.08444  23732926.5554                   23732927.1294
 -26653964.63748 -20750153.95547  20459230.7814                   20459229.1294
 -11468979.54347  -8917263.34745  22217311.9844                   22217310.6484
 11  8 24  1  9  0.0000000  0  8G29G02G12G25G10G04G05G30
   1620375.15646   1272775.15744  24294163.2194                   24294162.7464
 -30909411.17648 -24065137.54746  21058406.1094                   21058402.4534
 -26193180.87548 -20391670.03646  20820762.1804                   20820759.5084
 -13321564.23848 -10361057.12046  22222435.4144                   22222436.0234
 -24098322.82048 -18760840.75745  21909454.3754                   21909453.0594
 -21750822.47347 -16927985.72144  23742083.4224                   23742083.6684
 -26716347.84448 -20798764.21647  20447359.6414                   20447357.6334
 -11551522.00847  -8981582.13145  22201604.4534                   22201603.5664
 11  8 24  1  9 30.0000000  0  8G29G02G12G25G10G04G05G30
   1506280.34046   1183870.14944  24272451.7504                   24272451.0744
 -30914968.41448 -24069467.86946  21057348.8054                   21057344.8364
 -26217831.89148 -20410878.61746  20816071.0944                   20816068.6334
 -13410126.11748 -10430066.35046  22205582.5784                   22205583.2974
 -24055683.55548 -18727615.36945  21917567.8674                   21917566.9104
 -21702745.82847 -16890523.40944  23751231.6174                   23751232.6024
 -26778166.52048 -20846934.58147  20435596.2664                   20435593.9144
 -11633518.86747  -9045475.74045  22186001.3754                   22185999.9734
 11  8 24  1 10  0.0000000  0  8G29G02G12G25G10G04G05G30
   1392121.18846   1094915.01944  24250727.7664                   24250727.5634
 -30920390.37148 -24073692.77146  21056316.8364                   21056313.0594
 -26241901.28548 -20429633.98446  20811490.7424                   20811488.6454
 -13498196.95348 -10498692.94346  22188823.2194                   22188823.9614
 -24012609.42248 -18694051.12745  21925764.7504                   21925763.7774
 -21654711.50847 -16853094.13044  23760373.0634                   23760372.9574
 -26839418.71948 -20894663.53547  20423939.7344                   20423938.0474
 -11714967.39147  -9108942.08545  22170502.1174                   22170500.8244
 11  8 24  1 10 30.0000000  0  8G29G02G12G25G10G04G05G30
   1277895.47346   1005908.00444  24228990.9454                   24228990.9574
 -30925681.46148 -24077815.69846  21055310.2194                   21055306.3834
 -26265392.77348 -20447939.04046  20807020.6334                   20807018.5984
 -13585777.87948 -10566937.79246  22172156.8674                   22172157.8324
 -23969106.03147 -18660152.40245  21934043.4924                   21934042.1484
 -21606722.80147 -16815700.33944  23769504.9844                   23769505.7774
 -26900106.82848 -20941952.93847  20412391.1804                   20412389.4574
 -11795868.99647  -9171982.27945  22155107.1644                   22155106.3054
 11  8 24  1 11  0.0000000  0  8G29G02G12G25G10G04G05G30
   1163604.21146    916849.92944  24207242.2194                   24207242.1294
 -30930842.22348 -24081837.07846  21054327.7974                   21054324.0824
 -26288306.80548 -20465794.11646  20802660.0474                   20802658.0354
 -13672867.24248 -10634799.60046  22155584.8054                   22155585.1914
 -23925176.41047 -18625921.52245  21942402.8834                   21942401.5784
 -21558780.96947 -16778343.09444  23778627.9454                   23778628.1134
 -26960230.35248 -20988802.40247  20400949.9844                   20400948.3524
 -11876222.35947  -9234595.26845  22139816.2194                   22139815.0744
 11  8 24  1 11 30.0000000  0  8G29G02G12G25G10G04G05G30
   1049253.83646    827745.79444  24185482.2424                   24185481.5784
 -30935867.85548 -24085753.15146  21053371.3984                   21053367.9654
 -26310637.53148 -20483194.66946  20798410.7814                   20798408.2544
 -13759457.23848 -10702272.28746  22139107.1644                   22139107.4614
 -23880817.59847 -18591356.20745  21950844.2344                   21950843.0514
 -21510880.56647 -16741018.16244  23787742.9694                   23787743.6294
 -27019782.70748 -21035206.79847  20389617.7194                   20389615.9734
 -11956020.01247  -9296775.21745  22124630.9694                   22124630.4184
 11  8 24  1 12  0.0000000  0  8G29G02G12G25G10G04G05G30
    934841.30546    738593.21144  24163710.2974                   24163709.9454
 -30940763.01248 -24089567.56146  21052439.9694                   21052436.4774
 -26332389.30948 -20500144.09346  20794271.1644                   20794269.1484
 -13845549.90248 -10769357.45846  22122724.3364                   22122724.8914
 -23836036.27347 -18556461.69545  21959365.4694                   21959364.3324
 -21463025.97747 -16703728.91344  23796849.7274                   23796850.1564
 -27078767.25448 -21081168.75547  20378393.3754                   20378391.4614
 -12035264.28147  -9358523.96745  22109551.4844                   22109550.4454
 11  8 24  1 12 30.0000000  0  8G29G02G12G25G10G04G05G30
    820369.45746    649394.50644  24141926.6334                   24141926.4964
 -30945527.00448 -24093279.76446  21051533.4614                   21051529.5164
 -26353560.97748 -20516641.48546  20790242.4694                   20790240.3324
 -13931141.75848 -10836052.39146  22106436.9064                   22106437.2664
 -23790833.14547 -18521238.48345  21967967.6564                   21967966.6054
 -21415216.32047 -16666474.70044  23805947.0554                   23805947.8484
 -27137181.91848 -21126686.64947  20367277.3284                   20367275.4654
 -12113952.01647  -9419839.04745  22094577.4304                   22094576.4574
 11  8 24  1 13  0.0000000  0  8G29G02G12G25G10G04G05G30
    705835.40246    560147.24544  24120131.2664                   24120131.3444
 -30950164.30548 -24096893.23746  21050651.0474                   21050647.2664
 -26374156.39848 -20532689.85446  20786323.4844                   20786320.8984
 -14016234.53148 -10902358.41846  22090244.0004                   22090244.8204
 -23745214.50048 -18485691.49445  21976648.8364                   21976647.1914
 -21367455.78947 -16629258.78044  23815036.0314                   23815036.7504
 -27195029.60548 -21171762.73147  20356269.6334                   20356267.3244
 -12192085.18747  -9480722.02045  22079709.3914                   22079708.6254
 11  8 24  1 13 30.0000000  0  8G29G02G12G25G10G04G05G30
    591239.54346    470851.88144  24098324.7114                   24098323.5824
 -30954676.06648 -24100408.90946  21049792.4614                   21049788.8164
 -26394176.46148 -20548289.89146  20782513.8284                   20782511.2504
 -14100826.71548 -10968274.38446  22074146.7974                   22074147.2464
 -23699183.52048 -18449823.19345  21985408.0474                   21985406.6174
 -21319745.09047 -16592081.63344  23824114.8364                   23824115.5164
 -27252309.70348 -21216396.54447  20345369.2194                   20345367.3794
 -12269662.77047  -9541172.05045  22064947.0784                   22064946.0824
 11  8 24  1 14  0.0000000  0  8G29G02G12G25G10G04G05G30
    476585.67646    381511.26543  24076506.8594                   24076505.8674
 -30959060.37548 -24103825.25046  21048958.2034                   21048954.4344
 -26413618.57048 -20563439.58946  20778814.1174                   20778811.6294
 -14184913.93048 -11033796.86046  22058145.3914                   22058145.6644
 -23652740.28547 -18413633.67145  21994245.7114                   21994244.4614
 -21272082.19947 -16554941.79044  23833184.9454                   23833185.1764
 -27309019.74648 -21260586.15947  20334577.6334                   20334575.7384
 -12346680.53547  -9601185.88045  22050290.9224                   22050289.9184
 11  8 24  1 14 30.0000000  0  8G29G02G12G25G10G04G05G30
    361879.07846    292129.59544  24054678.2344                   24054678.0744
 -30963313.50448 -24107139.38546  21048148.9384                   21048144.9804
 -26432479.40248 -20578136.32546  20775224.8834                   20775222.4654
 -14268489.73448 -11098920.84246  22042241.6094                   22042242.2774
 -23605882.84047 -18377121.37645  22003162.2034                   22003160.9104
 -21224463.06647 -16517836.03443  23842246.3984                   23842247.4304
 -27365154.24648 -21304327.29247  20323895.4144                   20323893.7814
 -12423132.56647  -9660758.85245  22035742.9384                   22035741.7424
 11  8 24  1 15  0.0000000  0  8G29G02G12G25G10G04G05G30
    247119.43046    202706.58144  24032840.7274                   24032840.5594
 -30967437.68048 -24110353.03346  21047364.1094                   21047360.1804
 -26450760.51248 -20592381.34946  20771746.1884                   20771743.9844
 -14351553.68048 -11163645.97946  22026434.4694                   22026435.5004
 -23558615.32847 -18340289.56045  22012157.1094                   22012155.7934
 -21176889.56247 -16480765.85943  23851299.6024                   23851299.8794
 -27420714.03948 -21347620.61347  20313322.8834                   20313320.7734
 -12499018.64547  -9719890.84445  22021302.0704                   22021300.8754
 11  8 24  1 15 30.0000000  0  8G29G02G12G25G10G04G05G30
    132307.31346    113242.68744  24010992.3984                   24010992.5434
 -30971434.43448 -24113467.38446  21046603.5784                   21046599.5434
 -26468462.57848 -20606175.15246  20768377.7734                   20768375.5704
 -14434104.80948 -11227971.50846  22010725.9304                   22010726.3164
 -23510941.41047 -18303141.04645  22021229.2974                   22021227.7304
 -21129363.09447 -16443732.31843  23860343.9144                   23860343.8874
 -27475699.77048 -21390466.59847  20302859.3834                   20302857.5004
 -12574338.19547  -9778581.39445  22006969.4304                   22006968.3594
 11  8 24  1 16  0.0000000  0  8G29G02G12G25G10G04G05G30
     17435.96946     23732.59944  23989132.6954                   23989132.6024
 -30975311.81648 -24116488.72846  21045865.6644                   21045862.0314
 -26485594.03948 -20619524.34046  20765117.7814                   20765115.2154
 -14516148.82048 -11291901.89346  21995113.5394                   21995114.0204
 -23462870.85547 -18265683.47345  22030376.7194                   22030375.2504
 -21081891.37146 -16406741.43743  23869376.5004                   23869377.2304
 -27530118.10248 -21432870.45547  20292503.6804                   20292501.7544
 -12649097.22747  -9836835.15245  21992743.2974                   21992741.8554
 11  8 24  1 16 30.0000000  0  8G29G02G12G25G10G04G05G30
    -97486.60547    -65817.38844  23967263.6024                   23967263.1644
 -30979063.62548 -24119412.20946  21045151.8284                   21045147.9224
 -26502148.49248 -20632423.91846  20761967.5314                   20761965.2734
 -14597676.99248 -11355430.31546  21979599.0864                   21979599.7664
 -23414399.73847 -18227913.77645  22039600.6414                   22039598.9454
 -21034468.14146 -16369788.29043  23878401.3284                   23878402.3244
 -27583961.70348 -21474826.47747  20282258.0234                   20282256.0824
 -12723287.44947  -9894645.71545  21978625.3284                   21978623.3054
 11  8 24  1 17  0.0000000  0  8G29G02G12G25G10G04G05G30
   -212460.53147   -155407.38144  23945384.6094                   23945384.8164
 -30982691.79347 -24122239.35746  21044461.3754                   21044457.3094
 -26518127.84848 -20644875.36746  20758926.6954                   20758924.2074
 -14678688.69548 -11418556.30746  21964183.0084                   21964183.7974
 -23365532.02047 -18189835.04245  22048900.0864                   22048898.2934
 -20987094.91846 -16332874.23443  23887416.2504                   23887416.7544
 -27637231.20748 -21516335.14647  20272120.9614                   20272119.1684
 -12796908.59847  -9952012.82945  21964615.3594                   21964614.0864
 11  8 24  1 17 30.0000000  0  8G29G02G12G25G10G04G05G30
   -327484.98447   -245036.75744  23923496.3754                   23923496.6374
 -30986197.53948 -24124971.10046  21043794.3054                   21043790.3484
 -26533532.62948 -20656879.09746  20755995.0554                   20755992.9024
 -14759182.31648 -11481278.57246  21948865.3984                   21948866.3284
 -23316270.61747 -18151449.54945  22058274.2274                   22058272.3954
 -20939772.15646 -16295999.35643  23896422.1174                   23896421.4844
 -27689926.48448 -21557396.36147  20262093.2814                   20262091.0434
 -12869959.26647 -10008935.41645  21950714.3054                   21950713.3094
 11  8 24  1 18  0.0000000  0  8G29G02G12G25G10G04G05G30
   -442559.97347   -334705.52844  23901598.1024                   23901597.7304
 -30989582.35948 -24127608.61346  21043150.1644                   21043146.3794
 -26548364.57448 -20668436.46246  20753172.6174                   20753170.6174
 -14839157.64848 -11543596.99346  21933646.7814                   21933647.1604
 -23266619.56647 -18112760.42045  22067722.3754                   22067720.5514
 -20892501.90246 -16259165.39043  23905416.9454                   23905417.5314
 -27742048.53948 -21598010.91847  20252174.8364                   20252172.9734
 -12942439.73847 -10065413.69345  21936921.8754                   21936920.4964
 11  8 24  1 18 30.0000000  0  8G29G02G12G25G10G04G05G30
   -557680.32447   -424409.67544  23879691.7034                   23879691.1804
 -30992842.53148 -24130149.00246  21042529.4694                   21042525.8554
 -26562619.99248 -20679544.59046  20750460.3834                   20750457.9024
 -14918608.24648 -11605506.52446  21918527.7114                   21918528.2774
 -23216576.85947 -18073766.11945  22077244.8674                   22077243.7704
 -20845279.94146 -16222369.13143  23914403.2664                   23914403.1524
 -27793592.22348 -21638174.78847  20242366.3754                   20242364.2464
 -13014344.02347 -10121443.00045  21923238.9064                   21923237.6684
 11  8 24  1 19  0.0000000  0  8G29G02G12G25G10G04G05G30
   -672844.42247   -514147.86844  23857777.1954                   23857776.6414
 -30995978.51648 -24132592.62646  21041932.8134                   21041929.1174
 -26576299.23848 -20690203.76446  20747857.1254                   20747854.7544
 -14997532.22348 -11667005.70046  21903508.8914                   21903509.6254
 -23166144.87547 -18034468.48145  22086841.6644                   22086840.3834
 -20798106.21546 -16185610.42043  23923379.9844                   23923380.4964
 -27844557.09048 -21677887.64847  20232667.9694                   20232665.9574
 -13085670.48447 -10177022.04845  21909665.6724                   21909664.2274
 11  8 24  1 19 30.0000000  0  8G29G02G12G25G10G04G05G30
   -788059.40247   -603925.73944  23835852.0394                   23835851.6334
 -30998999.32847 -24134946.49046  21041357.9224                   21041354.3754
 -26589411.07448 -20700420.77746  20745362.0554                   20745359.7624
 -15075936.10948 -11728099.59846  21888589.2114                   21888589.9144
 -23115334.64547 -17994876.11745  22096510.7504                   22096509.6994
 -20750989.47346 -16148896.13443  23932346.1804                   23932346.3874
 -27894951.11348 -21717155.68247  20223078.1024                   20223076.3674
 -13156426.07047 -10232156.25745  21896201.7424                   21896200.0944
 11  8 24  1 20  0.0000000  0  8G29G02G12G25G10G04G05G30
   -903317.45747   -693737.14844  23813919.2424                   23813919.0984
 -31001898.55148 -24137205.62246  21040806.3284                   21040802.3014
 -26601949.55148 -20710191.03146  20742975.9534                   20742973.5234
 -15153811.19148 -11788781.44346  21873769.8914                   21873770.8834
 -23064141.69947 -17954985.54145  22106252.5004                   22106251.6024
 -20703922.89846 -16112220.93743  23941303.2734                   23941303.4774
 -27944766.81248 -21755973.08047  20213598.6724                   20213596.6604
 -13226602.47347 -10286839.14345  21882847.5234                   21882845.8954
 11  8 24  1 20 30.0000000  0  8G29G02G12G25G10G04G05G30
  -1018623.64547   -783586.07044  23791976.9694                   23791976.2154
 -31004683.34448 -24139375.58946  21040276.5864                   21040272.6174
 -26613921.41048 -20719519.76846  20740697.7814                   20740695.6524
 -15231162.39848 -11849055.09546  21859050.3284                   21859051.0514
 -23012575.43447 -17914804.06045  22116065.4924                   22116064.0514
 -20656913.68046 -16075590.47743  23950248.8054                   23950249.5434
 -27994010.53948 -21794344.79047  20204227.9064                   20204225.9144
 -13296204.95747 -10341074.82145  21869602.1644                   21869600.7584
 11  8 24  1 21  0.0000000  0  8G29G02G12G25G10G04G05G30
  -1133978.34047   -873472.79944  23770025.7274                   23770025.5594
 -31007356.12948 -24141458.25246  21039767.8444                   21039763.9694
 -26625329.37948 -20728409.09946  20738526.7664                   20738524.6214
 -15307989.87148 -11908920.61246  21844430.6334                   21844431.0354
 -22960640.32847 -17874335.16745  22125947.6884                   22125946.7304
 -20609963.58646 -16039006.00044  23959182.8594                   23959182.9694
 -28042683.81248 -21832271.99447  20194965.8054                   20194963.7194
 -13365234.10547 -10394863.73245  21856466.1564                   21856464.8134
 11  8 24  1 21 30.0000000  0  8G29G02G12G25G10G04G05G30
  -1249373.34047   -963390.92844  23748066.7664                   23748065.8984
 -31009910.60948 -24143448.74846  21039281.3594                   21039277.6914
 -26636167.37948 -20736854.29946  20736464.7894                   20736462.3164
 -15384284.96947 -11968371.30746  21829912.1334                   21829912.8444
 -22908332.25047 -17833575.62845  22135902.2734                   22135900.9964
 -20563066.07047 -16002462.53444  23968107.0474                   23968107.2504
 -28090779.38748 -21869749.03247  20185813.5084                   20185811.5744
 -13433681.70747 -10448199.48345  21843441.5944                   21843439.7384
 11  8 24  1 22  0.0000000  0  8G29G02G12G25G10G04G05G30
  -1364806.81647  -1053339.06344  23726100.5784                   23726099.4884
 -31012346.31648 -24145346.69646  21038817.8984                   21038814.4024
 -26646434.95348 -20744855.02146  20734510.4924                   20734508.1134
 -15460045.27747 -12027405.27446  21815495.4224                   21815496.0124
 -22855652.89147 -17792526.83545  22145926.2974                   22145925.5204
 -20516220.67247 -15965959.68143  23977021.3284                   23977021.6294
 -28138295.79348 -21906774.78647  20176771.2814                   20176769.2034
 -13501545.71147 -10501080.50645  21830527.3204                   21830525.9304
 11  8 24  1 22 30.0000000  0  8G29G02G12G25G10G04G05G30
  -1480285.52047  -1143322.37844  23704125.7344                   23704124.5474
 -31014671.36348 -24147158.40846  21038375.9924                   21038371.9614
 -26656140.79348 -20752418.01346  20732663.7504                   20732661.3284
 -15535276.92248 -12086027.29846  21801179.1094                   21801179.6604
 -22802612.76247 -17751196.89345  22156020.0314                   22156018.3364
 -20469435.25447 -15929503.57644  23985924.7974                   23985924.9264
 -28185241.16048 -21943355.56647  20167837.6254                   20167835.9184
 -13568832.59447 -10553511.80445  21817722.9694                   21817721.5744
 11  8 24  1 23  0.0000000  0  8G29G02G12G25G10G04G05G30
  -1595801.46547  -1233334.76144  23682143.6564                   23682142.8284
 -31016880.37148 -24148879.70946  21037955.5944                   21037951.6024
 -26665279.15648 -20759538.83546  20730924.7894                   20730922.2974
 -15609971.88348 -12144231.14046  21786965.0944                   21786965.9694
 -22749208.04747 -17709582.83745  22166182.3914                   22166181.0434
 -20422703.82446 -15893089.54844  23994817.2664                   23994817.8014
 -28231608.58248 -21979486.01347  20159014.5554                   20159012.2894
 -13635534.88747 -10605487.59045  21805030.1644                   21805028.1994
 11  8 24  1 23 30.0000000  0  8G29G02G12G25G10G04G05G30
  -1711353.23447  -1323375.02744  23660154.9614                   23660153.6374
 -31018973.36348 -24150510.61246  21037557.1724                   21037553.3674
 -26673850.41448 -20766217.73846  20729293.5394                   20729291.1524
 -15684128.11347 -12202015.18946  21772853.5474                   21772854.1414
 -22695441.15247 -17667686.58845  22176414.3134                   22176412.5784
 -20376026.03546 -15856717.27444  24003699.7664                   24003700.3364
 -28277397.44148 -22015165.62747  20150301.0634                   20150299.1414
 -13701650.86747 -10657006.49745  21792448.2344                   21792446.9574
 11  8 24  1 24  0.0000000  0  8G29G02G12G25G10G04G05G30
  -1826944.49647  -1413446.05744  23638158.3204                   23638157.6604
 -31020956.09448 -24152055.59046  21037179.6334                   21037175.9414
 -26681860.99248 -20772459.74946  20727769.3054                   20727767.2234
 -15757749.46147 -12259382.43846  21758843.9144                   21758844.5824
 -22641319.97747 -17625514.25845  22186713.0704                   22186711.5554
 -20329407.48846 -15820391.17643  24012570.8284                   24012571.7624
 -28322613.02348 -22050398.51547  20141696.8674                   20141694.8324
 -13767184.80147 -10708071.88945  21779978.0164                   21779976.0824
 11  8 24  1 24 30.0000000  0  8G29G02G12G25G10G04G05G30
  -1942574.73047  -1503547.47144  23616154.8594                   23616153.8634
 -31022829.59448 -24153515.46046  21036823.3754                   21036819.5944
 -26689312.02348 -20778265.75847  20726351.3284                   20726349.1954
 -15830834.91048 -12316332.12746  21744936.5634                   21744936.8594
 -22586847.94147 -17583068.55045  22197078.5234                   22197077.1214
 -20282848.91846 -15784111.83743  24021431.2344                   24021431.7384
 -28367255.64548 -22085184.95147  20133201.7274                   20133199.7544
 -13832136.21947 -10758683.35845  21767618.1414                   21767616.4264
 11  8 24  1 25  0.0000000  0  8G29G02G12G25G10G04G05G30
   -482814.78547   -366072.13944  23893937.3834                   23893937.0124
 -29449170.33248 -22927287.44846  21336280.8204                   21336276.6764
 -25120780.16448 -19556033.14746  21024833.0704                   21024830.8914
 -14327956.43048 -11145257.95846  22030924.8204                   22030925.0084
 -20956605.52347 -16312749.81044  22507303.5394                   22507301.8444
 -18660928.06246 -14520277.43044  24330072.0164                   24330073.1054
 -26835899.68748 -20891920.55447  20424608.8674                   20424606.6914
 -12321077.70747  -9581235.12545  22055163.1254                   22055161.2074
 11  8 24  1 25 30.0000000  0  9G29G26G02G12G25G10G04G05G30
   -598514.66847   -456227.81744  23871920.0704                   23871919.6334
   6120579.44956   4780407.50753  24978379.2894                   24978380.7504
 -29450822.47747 -22928574.82746  21335966.5784                   21335962.2934
 -25127109.77048 -19560965.31246  21023628.7194                   21023626.5634
 -14399960.85547 -11201365.28846  22017222.6564                   22017223.3324
 -20901434.83247 -16269759.66945  22517802.3204                   22517800.6334
 -18614485.50046 -14484088.41643  24338909.3204                   24338911.0004
 -26879391.28948 -20925810.09747  20416332.8524                   20416330.7074
 -12384855.98447  -9630932.45945  22043026.3134                   22043024.3134
 11  8 24  1 26  0.0000000  0  9G29G26G02G12G25G10G04G05G30
   -714254.65247   -546414.76344  23849896.3754                   23849895.5514
   5996739.42246   4683908.91743  24954812.4924                   24954814.3324
 -29452371.32048 -22929781.70346  21335671.6564                   21335667.8444
 -25132887.62148 -19565467.53046  21022529.3914                   21022527.0314
 -14471429.60548 -11257055.21646  22003622.8444                   22003623.2154
 -20845925.92647 -16226505.97845  22528365.1884                   22528363.7234
 -18568108.35946 -14447950.44543  24347735.1484                   24347735.6024
 -26922314.41048 -20959256.65547  20408164.6564                   20408162.3984
 -12448053.19947  -9680177.01845  22031000.1884                   22030998.3634
 11  8 24  1 26 30.0000000  0  9G29G26G02G12G25G10G04G05G30
   -830037.96547   -636635.48944  23827863.2664                   23827862.7304
   5872745.02346   4587290.03543  24931217.2734                   24931218.9024
 -29453823.37948 -22930913.16746  21335394.8444                   21335391.4614
 -25138119.76648 -19569544.53346  21021533.3204                   21021531.3244
 -14542366.54748 -11312330.73046  21990123.6954                   21990124.0944
 -20790086.81646 -16182995.02745  22538990.7274                   22538989.7384
 -18521802.07446 -14411867.68943  24356546.7194                   24356547.3834
 -26964674.34448 -20992264.37347  20400104.0004                   20400101.9964
 -12510673.72747  -9728972.21945  22019083.8134                   22019081.7854
 11  8 24  1 27  0.0000000  0  9G29G26G02G12G25G10G04G05G30
   -945857.82447   -726884.72844  23805823.8914                   23805822.3874
   5748605.13346   4490557.81443  24907594.8444                   24907595.7344
 -29455172.91847 -22931964.75046  21335138.5164                   21335134.1764
 -25142801.03548 -19573192.28046  21020642.8594                   21020640.4844
 -14612764.32047 -11367186.13946  21976727.3914                   21976727.8594
 -20733914.28946 -16139224.23845  22549680.0944                   22549679.2664
 -18475560.83646 -14375835.56943  24365346.2734                   24365346.8484
 -27006464.96148 -21024828.46747  20392151.1174                   20392149.3984
 -12572710.55947  -9777312.60445  22007278.9614                   22007276.8954
 11  8 24  1 27 30.0000000  0  9G29G26G02G12G25G10G04G05G30
  -1061711.23047   -817160.09244  23783777.6724                   23783776.5744
   5624324.49246   4393715.91343  24883944.5474                   24883945.1214
 -29456418.91847 -22932935.65346  21334901.0634                   21334897.3134
 -25146931.02348 -19576410.45646  21019856.5474                   21019854.0944
 -14682619.80548 -11421618.96346  21963434.1564                   21963435.0164
 -20677409.50847 -16095194.57745  22560432.4064                   22560431.5664
 -18429383.19146 -14339853.11043  24374133.4614                   24374134.6564
 -27047684.71548 -21056947.73547  20384307.6644                   20384305.3284
 -12634161.05547  -9825196.08945  21995585.2664                   21995583.2344
 11  8 24  1 28  0.0000000  0  9G29G26G02G12G25G10G04G05G30
  -1177593.55547   -907457.98744  23761725.5394                   23761725.2034
   5499909.31346   4296769.20143  24860269.2114                   24860269.9104
 -29457558.12948 -22933823.34846  21334684.5944                   21334680.1844
 -25150506.99648 -19579196.93246  21019176.2424                   21019174.2074
 -14751928.28947 -11475625.57246  21950245.4454                   21950245.9414
 -20620571.57846 -16050905.32945  22571248.3834                   22571247.6134
 -18383265.94946 -14303917.58143  24382910.3134                   24382910.5824
 -27088330.25848 -21088619.56947  20376572.7344                   20376570.9454
 -12695020.91847  -9872619.34045  21984003.4064                   21984001.8484
 11  8 24  1 28 30.0000000  0  9G29G26G02G12G25G10G04G05G30
  -1293503.57047   -997777.46244  23739668.4614                   23739668.0084
   5375362.14846   4199719.60543  24836568.1804                   24836568.5394
 -29458591.67647 -22934628.69246  21334488.0234                   21334484.0554
 -25153530.84448 -19581553.18246  21018600.7974                   21018598.8834
 -14820689.02747 -11529205.36246  21937160.5314                   21937161.2974
 -20563403.97746 -16006359.15945  22582126.9454                   22582126.3554
 -18337209.89146 -14268029.75243  24391673.6724                   24391674.8484
 -27128402.62148 -21119844.77247  20368947.4384                   20368945.1804
 -12755289.96547  -9919582.23045  21972534.8834                   21972533.4144
 11  8 24  1 29  0.0000000  0  9G29G26G02G12G25G10G04G05G30
  -1409440.39147  -1088117.82944  23717606.8054                   23717606.0124
   5250685.84846   4102569.37643  24812842.9844                   24812844.1254
 -29459520.19148 -22935352.20046  21334311.0004                   21334307.3714
 -25156003.56648 -19583479.97846  21018130.5864                   21018128.2424
 -14888900.73048 -11582357.34146  21924180.5634                   21924180.8714
 -20505909.44146 -15961558.28045  22593067.8364                   22593067.1334
 -18291215.32046 -14232189.82343  24400426.2274                   24400427.0434
 -27167901.46948 -21150623.07047  20361431.3444                   20361429.0164
 -12814967.31647  -9966084.04645  21961178.5474                   21961177.4064
 11  8 24  1 29 30.0000000  0  9G29G26G02G12G25G10G04G05G30
  -1525400.43047  -1178476.27244  23695540.6254                   23695539.2424
   5125885.46946   4005322.52943  24789094.5314                   24789094.6764
 -29460342.09847 -22935992.62446  21334155.0554                   21334150.7344
 -25157924.25047 -19584976.61646  21017764.8134                   21017762.4844
 -14956559.93448 -11635078.79346  21911305.4844                   21911305.6724
 -20448088.48046 -15916503.02045  22604071.3914                   22604070.0474
 -18245280.08246 -14196396.22342  24409166.6954                   24409167.5274
 -27206825.00848 -21180953.08547  20354024.3134                   20354021.8054
 -12874049.94147 -10012122.45046  21949935.2274                   21949933.8794
 11  8 24  1 30  0.0000000  0  9G29G26G02G12G25G10G04G05G30
  -1641382.70747  -1268852.05144  23673469.3364                   23673468.8324
   5000963.79746   3907981.08043  24765322.1174                   24765322.7034
 -29461058.12147 -22936550.54946  21334018.4774                   21334014.3914
 -25159294.45747 -19586044.31846  21017504.3444                   21017501.9024
 -15023665.79348 -11687369.07746  21898535.5634                   21898536.2624
 -20389944.50446 -15871196.06245  22615135.4774                   22615134.4774
 -18199404.77746 -14160649.27943  24417897.5554                   24417897.3634
 -27245173.82848 -21210835.26247  20346726.5864                   20346724.6604
 -12932537.56647 -10057697.21245  21938805.6334                   21938803.7814
 11  8 24  1 30 30.0000000  0  9G29G26G02G12G25G10G04G05G30
  -1757390.04747  -1359247.32344  23651394.2504                   23651393.3324
   4875919.68846   3810544.21443  24741527.1644                   24741528.2624
 -29461673.02047 -22937029.67746  21333901.9064                   21333897.7934
 -25160119.31648 -19586687.07646  21017347.2424                   21017344.3634
 -15090221.19548 -11739230.42746  21885870.5474                   21885870.9694
 -20331484.35546 -15825642.74045  22626260.4924                   22626259.3634
 -18153593.64846 -14124952.27643  24426614.3054                   24426615.2304
 -27282951.80548 -21240272.64047  20339537.6334                   20339535.6214
 -12990433.45347 -10102810.88645  21927788.2974                   21927787.2194
 11  8 24  1 31  0.0000000  0  9G29G26G02G12G25G10G04G05G30
  -1873417.04347  -1449657.93744  23629314.3914                   23629313.8164
   4750759.88745   3713017.27843  24717709.6094                   24717710.6134
 -29462183.29747 -22937427.29246  21333804.6174                   21333800.2774
 -25160396.49247 -19586903.05446  21017294.6024                   21017292.0474
 -15156221.11348 -11790658.93546  21873310.9384                   21873311.5784
 -20272706.93446 -15779842.20545  22637445.6884                   22637444.1214
 -18107843.13746 -14089302.60143  24435321.0634                   24435320.9224
 -27320155.99648 -21269262.89847  20332457.9454                   20332455.7504
 -13047733.08248 -10147459.95145  21916884.9774                   21916883.0664
 11  8 24  1 31 30.0000000  0  9G29G26G02G12G25G10G04G05G30
  -1989460.16047  -1540081.10044  23607232.5864                   23607231.7504
   4625489.77745   3615404.30542  24693871.1954                   24693871.8364
 -29462587.16447 -22937741.99146  21333727.4144                   21333723.3594
 -25160124.76247 -19586691.32446  21017345.9224                   21017343.7664
 -15221662.11348 -11841651.93446  21860858.2504                   21860858.5744
 -20213612.82847 -15733794.87745  22648690.9844                   22648689.8794
 -18062151.12546 -14053698.40643  24444016.6094                   24444016.3444
 -27356784.16448 -21297804.31347  20325487.9454                   20325485.7274
 -13104433.53947 -10191642.12845  21906095.2424                   21906093.4264
 11  8 24  1 32  0.0000000  0  9G29G26G02G12G25G10G04G05G30
  -2105521.53947  -1630518.44644  23585146.7424                   23585145.7274
   4500108.89145   3517705.03542  24670012.3364                   24670012.1454
 -29462888.73448 -22937976.95946  21333669.9694                   21333666.0354
 -25159309.16048 -19586055.79246  21017500.8984                   21017499.2544
 -15286546.55148 -11892211.22646  21848511.0864                   21848511.6884
 -20154208.16847 -15687505.58144  22659995.3674                   22659993.3444
 -18016521.19546 -14018142.74543  24452699.1484                   24452699.0234
 -27392840.05148 -21325899.78647  20318626.3204                   20318624.2114
 -13160537.64147 -10235359.60546  21895418.6484                   21895417.1644
 11  8 24  1 32 30.0000000  0  9G29G26G02G12G25G10G04G05G30
  -2221598.80146  -1720968.20444  23563058.0944                   23563057.1484
   4374621.07846   3419922.46142  24646131.9614                   24646133.1214
 -29463087.23448 -22938131.62546  21333632.0394                   21333628.3954
 -25157949.53948 -19584996.35346  21017760.2034                   21017757.7154
 -15350872.42647 -11942335.28946  21836269.8674                   21836270.4454
 -20094494.81247 -15640975.71444  22671357.9224                   22671356.3054
 -17970952.49246 -13982634.70443  24461370.6724                   24461371.0394
 -27428323.12547 -21353548.91847  20311874.3834                   20311872.1024
 -13216043.87547 -10278611.22545  21884856.6414                   21884854.6684
 11  8 24  1 33  0.0000000  0  9G29G26G02G12G25G10G04G05G30
  -2337691.21546  -1811429.71544  23540966.0704                   23540965.1644
   4249028.86746   3322058.55743  24622233.0634                   24622234.3554
 -29463184.12548 -22938207.11546  21333613.3284                   21333609.8164
 -25156048.31648 -19583514.89346  21018121.9144                   21018119.8484
 -15414639.20347 -11992023.68346  21824135.6254                   21824136.2664
 -20034476.25047 -15594208.01744  22682779.3524                   22682777.9304
 -17925445.98847 -13947175.14143  24470030.7734                   24470030.8134
 -27463234.46948 -21380752.53947  20305230.9064                   20305228.5554
 -13270952.14548 -10321396.87445  21874407.6024                   21874406.0744
 11  8 24  1 33 30.0000000  0  9G29G26G02G12G25G10G04G05G30
  -2453797.31246  -1901901.91644  23518871.9694                   23518871.0944
   4123335.11546   3224115.50543  24598314.3674                   24598315.0784
 -29463179.96148 -22938203.85746  21333614.5704                   21333610.5084
 -25153606.69948 -19581612.34546  21018586.4694                   21018584.1334
 -15477845.99647 -12041275.72946  21812107.9384                   21812108.7034
 -19974155.24647 -15547204.65844  22694258.0394                   22694256.6334
 -17880001.87947 -13911764.13943  24478678.3204                   24478678.3134
 -27497574.32048 -21407510.83847  20298696.2274                   20298694.1644
 -13325262.16848 -10363716.38445  21864072.5554                   21864071.5234
 11  8 24  1 34  0.0000000  0  9G29G26G02G12G25G10G04G05G30
  -2569911.65647  -1992380.53844  23496775.8134                   23496774.8444
   3997547.32046   3126099.12943  24574377.5084                   24574378.1134
 -29463070.43048 -22938118.50346  21333635.2734                   21333631.7234
 -25150621.68448 -19579286.36846  21019154.9064                   21019152.1914
 -15540487.26648 -12090087.10546  21800187.9694                   21800188.3754
 -19913530.25447 -15499964.43244  22705794.2664                   22705793.1844
 -17834615.69147 -13876398.31143  24487314.9694                   24487315.4494
 -27531338.80148 -21433820.80847  20292271.1804                   20292269.1334
 -13378968.82448 -10405565.73345  21853852.5004                   21853851.4104
 11  8 24  1 34 30.0000000  0  9G29G26G02G12G25G10G04G05G30
  -2686036.69146  -2082867.49444  23474677.7664                   23474677.2384
   3871664.49246   3028008.72343  24550422.8914                   24550423.7034
 -29462860.76648 -22937955.12046  21333675.2274                   21333671.3484
 -25147098.87548 -19576541.33446  21019825.2814                   21019822.6414
 -15602566.23447 -12138460.32846  21788374.5944                   21788375.1294
 -19852608.48847 -15452492.97944  22717387.3444                   22717386.7074
 -17789291.83647 -13841081.01143  24495939.6484                   24495940.7704
 -27564532.37948 -21459685.91147  20285954.4304                   20285952.2974
 -13432075.89147 -10446947.86945  21843746.3914                   21843745.3674
 11  8 24  1 35  0.0000000  0  9G29G26G02G12G25G10G04G05G30
  -2802168.88746  -2173360.01844  23452578.8594                   23452578.1374
   3745691.64146   2929848.12743  24526451.3364                   24526452.7704
 -29462548.94548 -22937712.14246  21333734.7504                   21333730.6294
 -25143037.72748 -19573376.81246  21020597.7814                   21020595.0704
 -15664079.71947 -12186392.90346  21776668.8054                   21776669.5554
 -19791390.23846 -15404790.45644  22729037.0004                   22729035.6414
 -17744028.35247 -13805810.81344  24504553.2034                   24504553.5314
 -27597153.46547 -21485104.90147  20279746.9924                   20279745.0514
 -13484580.76248 -10487860.74645  21833754.9774                   21833753.7854
 11  8 24  1 35 30.0000000  0  9G29G26G02G12G25G10G04G05G30
  -2918307.06247  -2263857.23344  23430478.6564                   23430477.7114
   3619631.89546   2831619.90543  24502462.5944                   24502463.3444
 -29462135.05947 -22937389.64746  21333813.2584                   21333809.6524
 -25138439.37948 -19569793.70346  21021472.7664                   21021470.4774
 -15725027.01247 -12233884.29946  21765070.9844                   21765071.5904
 -19729878.42247 -15356859.21644  22740741.9844                   22740741.2114
 -17698825.43447 -13770587.81244  24513154.8524                   24513155.5664
 -27629202.68748 -21510078.30447  20273648.1334                   20273645.8244
 -13536483.00848 -10528304.05345  21823878.6644                   21823877.3404
 11  8 24  1 36  0.0000000  0  9G29G26G02G12G25G10G04G05G30
  -3034454.22346  -2354361.43245  23408376.1024                   23408374.8714
   3493483.91046   2733322.85043  24478457.2114                   24478458.2544
 -29461624.29347 -22936991.64646  21333910.5004                   21333907.1604
 -25133309.99648 -19565796.78746  21022449.0314                   21022446.6214
 -15785411.43047 -12280937.08646  21753580.2194                   21753580.6334
 -19668080.38746 -15308704.94644  22752502.4064                   22752501.4024
 -17653687.66047 -13735415.55543  24521744.3204                   24521745.1644
 -27660684.92648 -21534609.88347  20267657.1954                   20267655.1954
 -13587786.63748 -10568280.90345  21814116.0704                   21814114.8594
 11  8 24  1 36 30.0000000  0  9G29G26G02G12G25G10G04G05G30
  -3150609.30147  -2444871.82345  23386272.2734                   23386271.8404
   3367250.21146   2634959.02744  24454435.6414                   24454437.0664
 -29461017.80947 -22936519.07146  21334026.0314                   21334022.1914
 -25127651.82848 -19561387.83546  21023525.5784                   21023523.3984
 -15845232.84447 -12327551.16946  21742196.5164                   21742197.2074
 -19605999.53546 -15260330.29944  22764315.8524                   22764314.9534
 -17608615.67646 -13700294.54143  24530320.8364                   24530322.1024
 -27691601.47347 -21558700.66747  20261773.9614                   20261771.8324
 -13638492.02348 -10607791.59845  21804467.1094                   21804465.4024
 11  8 24  1 37  0.0000000  0  9G29G26G02G12G25G10G04G05G30
  -3266768.07447  -2535385.08745  23364167.7974                   23364167.5594
   3240936.66446   2536532.98444  24430398.8284                   24430399.9574
 -29460313.14147 -22935969.99646  21334160.0084                   21334156.3674
 -25121463.10248 -19556565.45546  21024703.5084                   21024701.3244
 -15904487.28147 -12373723.45746  21730920.7814                   21730921.0944
 -19543635.85546 -15211735.27944  22776183.2274                   22776182.5824
 -17563606.68046 -13665222.64543  24538885.9144                   24538886.8094
 -27721949.98048 -21582348.82347  20255998.7114                   20255996.6724
 -13688595.68448 -10646833.41145  21794932.5864                   21794931.1884
 11  8 24  1 37 30.0000000  0  9G29G26G02G12G25G10G04G05G30
  -3382931.44547  -2625901.97445  23342063.1414                   23342062.0984
   3114544.18847   2438045.47944  24406347.6094                   24406348.4774
 -29459513.02347 -22935346.53646  21334312.4534                   21334308.5554
 -25114747.96548 -19551332.89146  21025980.8674                   21025978.9304
 -15963176.30547 -12419455.14346  21719752.6884                   21719753.2194
 -19480994.50846 -15162923.85644  22788102.9064                   22788103.0084
 -17518663.08246 -13630201.71443  24547438.4384                   24547439.5904
 -27751733.00848 -21605556.34947  20250331.1564                   20250329.1604
 -13738099.73048 -10685407.98445  21785512.5634                   21785510.5084
 11  8 24  1 38  0.0000000  0  9G29G26G02G12G25G10G04G05G30
  -3499096.57446  -2716420.19945  23319957.6174                   23319956.0474
   2988077.26647   2339499.92244  24382281.5784                   24382281.7344
 -29458616.60247 -22934648.02946  21334482.6644                   21334479.2194
 -25107506.82048 -19545690.44046  21027359.0864                   21027356.7814
 -16021297.84447 -12464744.64246  21708692.5234                   21708692.7894
 -19418077.08246 -15113897.32744  22800076.2974                   22800075.2464
 -17473783.67246 -13595230.68743  24555979.2424                   24555979.8134
 -27780950.16048 -21628322.92647  20244771.3754                   20244769.3634
 -13787002.60248 -10723514.10745  21776206.1724                   21776204.6954
 11  8 24  1 38 30.0000000  0  9G29G26G02G12G25G10G04G05G30
  -3615256.62947  -2806934.50245  23297852.5704                   23297851.9614
   2861544.20746   2240902.89343  24358202.7894                   24358203.7584
 -29457618.98447 -22933870.66746  21334672.9304                   21334669.2274
 -25099735.86348 -19539635.15646  21028837.7194                   21028835.5864
 -16078845.76648 -12509587.16146  21697741.7424                   21697741.8984
 -19354880.92246 -15064653.61844  22812101.8754                   22812101.1294
 -17428963.26246 -13560305.76242  24564508.1334                   24564508.8164
 -27809596.80148 -21650644.95247  20239320.1414                   20239318.0434
 -13835298.71948 -10761147.45345  21767016.0234                   21767014.4384
 11  8 24  1 39  0.0000000  0  9G29G26G02G12G25G10G04G05G30
  -3731416.50846  -2897448.66444  23275748.4304                   23275747.7624
   2734941.91447   2142251.88843  24334110.9454                   24334111.5394
 -29456526.71547 -22933019.55746  21334880.4694                   21334877.0474
 -25091442.71948 -19533172.97946  21030416.1954                   21030413.8594
 -16135825.62148 -12553987.04646  21686898.6024                   21686899.1684
 -19291415.07447 -15015199.73744  22824179.6564                   22824178.1294
 -17384208.07846 -13525431.55243  24573024.1484                   24573025.6294
 -27837679.89147 -21672527.85047  20233976.0314                   20233973.8014
 -13882994.09448 -10798312.66446  21757939.7584                   21757938.2814
 11  8 24  1 39 30.0000000  0  9G29G26G02G12G25G10G04G05G30
  -3847576.71146  -2987963.06245  23253643.7974                   23253642.6374
   2608271.32847   2043547.63743  24310006.9924                   24310006.8874
 -29455342.60947 -22932096.88346  21335106.0554                   21335102.3284
 -25082631.50448 -19526307.10446  21032092.8594                   21032090.4804
 -16192238.89148 -12597945.40446  21676163.0704                   21676163.7424
 -19227684.66847 -14965539.68244  22836306.8364                   22836305.5984
 -17339520.71545 -13490610.38843  24581528.2974                   24581529.6294
 -27865202.32448 -21693973.87447  20228738.7504                   20228736.5394
 -13930090.81248 -10835011.40745  21748977.6334                   21748975.8794
 11  8 24  1 40  0.0000000  0  9G29G26G02G12G25G10G04G05G30
  -3963733.38746  -3078474.72744  23231539.3754                   23231538.9144
   2481538.25847   1944794.76143  24285889.7194                   24285890.7774
 -29454064.14547 -22931100.68546  21335349.3134                   21335345.3714
 -25073301.29748 -19519036.82846  21033868.2274                   21033866.0904
 -16248082.17248 -12641459.63546  21665537.0784                   21665537.2344
 -19163689.77346 -14915673.54844  22848484.8284                   22848483.5784
 -17294898.62545 -13455839.92943  24590019.7344                   24590020.1374
 -27892162.28147 -21714981.60447  20223608.4694                   20223605.9964
 -13976586.00448 -10871241.41645  21740130.2734                   21740128.4844
 11  8 24  1 40 30.0000000  0  9G29G26G02G12G25G10G04G05G30
  -4079882.28946  -3168980.32545  23209437.8134                   23209436.7704
   2354748.32446   1845997.51043  24261762.5784                   24261762.5634
 -29452689.58648 -22930029.63146  21335610.8364                   21335606.9104
 -25063451.36748 -19511361.55746  21035742.4924                   21035740.1644
 -16303352.42648 -12684527.33846  21655019.3054                   21655019.9264
 -19099431.06246 -14865601.85444  22860712.9774                   22860711.8594
 -17250339.31645 -13421118.42643  24598499.1804                   24598499.7464
 -27918558.16448 -21735549.80347  20218585.1954                   20218583.2274
 -14022477.18448 -10907000.75846  21731397.1484                   21731395.3404
 11  8 24  1 41  0.0000000  0  9G29G26G02G12G25G10G04G05G30
  -4196018.82846  -3259476.29045  23187337.7734                   23187336.5864
   2227907.95346   1747161.02443  24237625.6884                   24237625.3634
 -29451215.88748 -22928881.28746  21335891.3204                   21335887.4534
 -25053079.84048 -19503279.85746  21037716.1094                   21037713.7664
 -16358045.68048 -12727145.44346  21644611.4844                   21644611.9024
 -19034907.71546 -14815323.94044  22872991.2734                   22872990.4304
 -17205839.46546 -13386443.23443  24606967.3834                   24606968.0904
 -27944386.98847 -21755676.12947  20213670.4224                   20213668.1334
 -14067760.84048 -10942286.71446  21722779.7274                   21722778.4694
 11  8 24  1 41 30.0000000  0  9G29G26G02G12G25G10G04G05G30
  -4312148.62147  -3349967.00245  23165238.6024                   23165237.6844
   2101012.93046   1648281.88843  24213477.9304                   24213478.3914
 -29449650.65248 -22927661.62546  21336189.0234                   21336185.5634
 -25042195.66448 -19494798.69646  21039787.4844                   21039785.0434
 -16412168.62948 -12769319.14846  21634312.1724                   21634312.4384
 -18970130.13346 -14764847.91444  22885317.6954                   22885317.2344
 -17161406.65646 -13351820.33043  24615422.2504                   24615423.5354
 -27969657.23848 -21775367.21747  20208861.3984                   20208859.0664
 -14112444.33648 -10977105.00946  21714276.9304                   21714275.1454
 11  8 24  1 42  0.0000000  0  8G29G26G02G12G25G10G05G30
  -4428274.87946  -3440454.95344  23143139.7504                   23143138.7074
   1974062.13746   1549359.36543  24189319.4844                   24189320.4344
 -29447998.62148 -22926374.33346  21336503.1954                   21336499.7424
 -25030805.82048 -19485923.50046  21041954.9844                   21041952.5394
 -16465725.01648 -12811051.36246  21624120.7114                   21624121.1564
 -18905105.25846 -14714179.19644  22897691.9454                   22897690.4494
 -27994373.87148 -21794626.91147  20204158.1254                   20204155.6954
 -14156531.88348 -11011458.93346  21705887.4384                   21705885.9144
 11  8 24  1 42 30.0000000  0  8G29G26G02G12G25G10G05G30
  -4544389.35547  -3530933.71645  23121044.4224                   23121043.0274
   1847065.38346   1450401.01743  24165152.5164                   24165153.5204
 -29446253.76248 -22925014.68046  21336835.8284                   21336831.8834
 -25018905.23048 -19476650.31946  21044219.4384                   21044217.1604
 -16518707.75048 -12852336.58946  21614038.0634                   21614038.4224
 -18839829.53946 -14663315.00444  22910113.3284                   22910112.0704
 -28018531.59048 -21813451.08547  20199560.8204                   20199558.9494
 -14200016.92648 -11045343.36246  21697612.6174                   21697610.7734
 11  8 24  1 43  0.0000000  0  8G29G26G02G12G25G10G05G30
  -4660484.87947  -3621397.70245  23098952.1644                   23098951.4454
   1720030.93446   1351413.25843  24140978.5944                   24140979.8984
 -29444411.17648 -22923578.88146  21337186.0634                   21337182.1844
 -25006490.39548 -19466976.43646  21046581.9384                   21046579.3984
 -16571111.14147 -12893170.39346  21604066.2034                   21604066.6724
 -18774300.48046 -14612253.39744  22922582.7034                   22922581.8094
 -28042125.87947 -21831836.24347  20195071.0004                   20195069.0744
 -14242894.35548 -11078754.34346  21689452.8914                   21689451.6174
 11  8 24  1 43 30.0000000  0  8G29G26G02G12G25G10G05G30
  -4776554.32047  -3711841.36445  23076865.1804                   23076864.1604
   1592967.94946   1252403.28743  24116800.1254                   24116800.5864
 -29442465.08248 -22922062.43746  21337556.5784                   21337552.6134
 -24993556.96948 -19456898.45046  21049042.9384                   21049040.7934
 -16622928.51648 -12933547.53446  21594205.5944                   21594206.1174
 -18708514.97746 -14560991.99943  22935101.2034                   22935100.3284
 -28065151.60248 -21849778.34547  20190689.3054                   20190687.3244
 -14285158.10248 -11111687.11646  21681410.7274                   21681409.1024
 11  8 24  1 44  0.0000000  0  8G29G26G02G12G25G10G05G30
  -4892603.94947  -3802269.60845  23054781.3834                   23054780.2664
   1465872.20746   1153367.75443  24092613.9844                   24092614.4694
 -29440424.02348 -22920471.98946  21337944.9534                   21337940.7344
 -24980114.66048 -19446423.94046  21051601.0164                   21051598.9774
 -16674167.39848 -12973473.92846  21584455.1564                   21584455.5394
 -18642483.59846 -14509539.01144  22947666.7664                   22947666.0434
 -28087617.41848 -21867284.17647  20186414.4614                   20186412.1604
 -14326816.19148 -11144147.96046  21673483.2344                   21673482.0704
 11  8 24  1 44 30.0000000  0  8G29G26G02G12G25G10G05G30
  -5008630.44947  -3892679.82145  23032701.9844                   23032700.8594
   1338748.06346   1054310.07943  24068423.1334                   24068423.6374
 -29438286.59448 -22918806.44246  21338351.7974                   21338347.6484
 -24966163.97748 -19435553.29146  21054255.7424                   21054253.4614
 -16724825.68448 -13012947.89546  21574815.2504                   21574815.8014
 -18576207.85546 -14457895.58044  22960278.5634                   22960277.9414
 -28109522.96148 -21884353.40647  20182245.7894                   20182243.5704
 -14367867.09848 -11176135.65846  21665671.6174                   21665669.8914
 11  8 24  1 45  0.0000000  0  8G29G26G02G12G25G10G05G30
  -5124637.03947  -3983074.49045  23010627.1484                   23010625.3874
   1211594.32447    955229.31843  24044226.5164                   24044226.9264
 -29436057.91048 -22917069.79946  21338775.8364                   21338771.8714
 -24951711.39548 -19424291.55746  21057006.3364                   21057003.8404
 -16774907.61348 -13051972.77046  21565284.9694                   21565285.5514
 -18509695.19947 -14406067.54244  22972935.7504                   22972934.6914
 -28130873.82048 -21900990.43147  20178182.8284                   20178180.5744
 -14408315.62948 -11207653.98545  21657974.4304                   21657972.6724
 11  8 24  1 45 30.0000000  0  8G29G26G02G12G25G10G05G30
  -5240622.04747  -4073452.38645  22988555.8754                   22988554.3324
   1084414.44147    856128.20743  24020024.8984                   24020025.0124
 -29433737.87548 -22915261.95946  21339217.1644                   21339213.0084
 -24936758.33248 -19412639.83246  21059851.3364                   21059849.4494
 -16824412.59448 -13090548.06146  21555864.5554                   21555864.7234
 -18442947.87547 -14354056.68144  22985637.6804                   22985636.6024
 -28151670.56648 -21917195.68047  20174225.8054                   20174223.2624
 -14448161.73448 -11238702.89046  21650391.8834                   21650390.0514
 11  8 24  1 46  0.0000000  0  8G29G26G02G12G25G10G05G30
  -5356583.75447  -4163812.10045  22966488.8524                   22966487.5944
    957211.08646    757008.84243  23995819.1954                   23995819.0824
 -29431327.35948 -22913383.61746  21339676.2114                   21339672.0944
 -24921307.52748 -19400600.26346  21062791.9304                   21062789.7424
 -16873340.53948 -13128673.72746  21546553.6414                   21546553.9964
 -18375969.34047 -14301865.61344  22998383.4844                   22998382.0004
 -28171914.80948 -21932970.39747  20170372.9774                   20170370.8014
 -14487405.96148 -11269282.80046  21642924.0394                   21642922.4924
 11  8 24  1 46 30.0000000  0  8G29G26G02G12G25G10G05G30
  -5472522.14147  -4254153.65345  22944426.6644                   22944425.4884
    829986.64846    657873.03543  23971608.6484                   23971608.4654
 -29428827.73448 -22911435.83646  21340151.4614                   21340147.6254
 -24905362.12148 -19388175.29446  21065825.7194                   21065824.1134
 -16921692.48048 -13166350.55446  21537352.9064                   21537353.3834
 -18308763.57447 -14249497.51244  23011172.0394                   23011171.4734
 -28191608.77748 -21948316.34247  20166625.1724                   20166623.0704
 -14526049.83248 -11299394.89945  21635570.3444                   21635568.6454
 11  8 24  1 47  0.0000000  0  8G29G26G02G12G25G10G05G30
  -5588437.29347  -4344477.09345  22922368.6094                   22922367.3444
    702742.63746    558721.93644  23947394.9924                   23947394.4304
 -29426241.00448 -22909420.18546  21340643.6644                   21340639.8054
 -24888925.76248 -19375367.75346  21068953.8524                   21068951.7934
 -16969469.56248 -13203579.43346  21528261.3524                   21528261.3914
 -18241334.95747 -14196955.73944  23024003.3754                   23024002.7074
 -28210755.12948 -21963235.56447  20162981.9454                   20162979.9224
 -14564095.09447 -11329040.55946  21628330.5164                   21628328.9224
 11  8 24  1 47 30.0000000  0  8G29G26G02G12G25G10G05G30
  -5704322.03947  -4434776.86845  22900316.2114                   22900315.3714
    575487.66847    459562.37144  23923178.7114                   23923179.0784
 -29423562.46148 -22907332.99846  21341153.8594                   21341149.6414
 -24871994.85248 -19362174.85046  21072175.4614                   21072173.3444
 -17016666.18448 -13240356.02646  21519279.8674                   21519280.0744
 -18173680.80147 -14144238.24344  23036877.8914                   23036876.7424
 -28229349.87948 -21977724.96547  20159443.3914                   20159441.2584
 -14601536.69548 -11358215.83846  21621205.5474                   21621203.9694
 11  8 24  1 48  0.0000000  0  8G29G26G02G12G25G10G05G30
  -5820178.68747  -4525054.75145  22878269.4844                   22878267.8554
    448221.24246    360393.83744  23898960.6024                   23898961.0784
 -29420795.86748 -22905177.21446  21341679.9774                   21341675.6844
 -24854575.29348 -19348601.17646  21075490.5314                   21075488.4344
 -17063285.96948 -13276683.11946  21510408.5084                   21510408.9384
 -18105808.14547 -14091350.49244  23049793.0864                   23049792.2464
 -28247397.62148 -21991788.12547  20156008.9454                   20156006.7274
 -14638378.91447 -11386924.05846  21614194.6024                   21614193.1724
 11  8 24  1 48 30.0000000  0  8G29G26G02G12G25G10G05G30
  -5936004.60947  -4615308.69945  22856228.9384                   22856227.1294
    320947.50847    261219.59044  23874741.7814                   23874741.6254
 -29417940.74648 -22902952.43746  21342223.1954                   21342219.0904
 -24836668.03148 -19334647.48446  21078898.2734                   21078896.0904
 -17109327.68448 -13312559.77546  21501647.0084                   21501647.0944
 -18037718.61347 -14038293.74344  23062750.2894                   23062749.2194
 -28264898.63748 -22005425.27147  20152678.5004                   20152676.4184
 -14674621.03948 -11415164.66446  21607298.2114                   21607296.6804
 11  8 24  1 49  0.0000000  0  8G29G26G02G12G25G10G05G30
  -4476375.27347  -3477935.16445  23133986.7114                   23133985.4344
   1769092.68047   1389644.48444  24150313.9064                   24150313.9064
 -27839578.53948 -21673059.79146  21642576.0634                   21642572.0234
 -23242857.60948 -18092717.28546  21382190.0234                   21382188.0904
 -15579370.84448 -12120385.60946  21792788.2664                   21792788.3594
 -16393998.48847 -12757472.90544  23375539.8284                   23375539.0744
 -26706434.53148 -20791037.63347  20449244.4384                   20449242.3524
 -13134843.48048 -10215337.99845  21900307.8054                   21900306.3874
 11  8 24  1 49 30.0000000  0  8G29G26G02G12G25G10G05G30
  -4592138.28547  -3568140.09545  23111958.0164                   23111956.9574
   1641810.43447   1290463.61544  24126093.2894                   24126092.8634
 -27836550.67248 -21670700.40446  21643151.7194                   21643147.8524
 -23223985.65648 -18078011.86946  21385781.3364                   21385779.2854
 -15624259.59047 -12155363.84546  21784246.2584                   21784246.3524
 -16325487.44147 -12704087.68444  23388577.0164                   23388576.1914
 -26722849.38347 -20803828.41847  20446120.8134                   20446118.6454
 -13169890.30147 -10242647.20945  21893639.0314                   21893637.2974
 11  8 24  1 50  0.0000000  0  8G29G26G02G12G25G10G05G30
  -4707865.93747  -3658317.46645  23089935.5634                   23089934.6804
   1514530.52747   1191284.60243  24101872.3054                   24101871.8794
 -27833435.57048 -21668273.05346  21643744.6334                   21643740.7194
 -23204633.03548 -18062931.91246  21389464.2584                   21389462.0984
 -15668570.12547 -12189891.53146  21775813.9924                   21775814.4144
 -16256768.28547 -12650540.33344  23401653.7814                   23401652.8484
 -26738721.43747 -20816196.24047  20443100.5314                   20443098.3634
 -13204338.70748 -10269490.12946  21887083.5084                   21887081.5274
 11  8 24  1 50 30.0000000  0  8G29G26G02G12G25G10G05G30
  -4823557.14147  -3748466.44045  23067920.0394                   23067918.9264
   1387255.86347   1092109.65844  24077652.5944                   24077652.8634
 -27830233.75448 -21665778.12946  21644353.8134                   21644349.9264
 -23184802.23448 -18047479.35846  21393237.9614                   21393235.6804
 -15712302.77348 -12223968.91346  21767491.7734                   21767492.4964
 -16187844.30547 -12596833.34244  23414770.0084                   23414768.4694
 -26754052.35248 -20828142.38847  20440183.0234                   20440181.0124
 -13238189.53547 -10295867.39546  21880641.9694                   21880640.2774
 11  8 24  1 51  0.0000000  0  8G29G26G02G12G25G10G05G30
  -4939208.41047  -3838584.31145  23045913.1174                   23045911.1054
   1259991.46547    992942.71444  24053435.2274                   24053435.0744
 -27826943.93748 -21663214.64246  21644979.8674                   21644975.9774
 -23164493.52748 -18031654.39746  21397102.6954                   21397100.2774
 -15755455.63348 -12257594.50246  21759280.1024                   21759280.8244
 -16118716.53947 -12542967.58544  23427924.6414                   23427923.2034
 -26768842.02347 -20839666.78647  20437368.6954                   20437366.5944
 -13271441.46547 -10321777.98846  21874314.4534                   21874312.8204
 11  8 24  1 51 30.0000000  0  8G29G26G02G12G25G10G05G30
  -5054819.00047  -3928670.47645  23023912.6884                   23023911.1094
   1132739.49646    893785.44044  24029219.8914                   24029219.7544
 -27823567.40648 -21660583.57946  21645622.2274                   21645618.6644
 -23143709.87148 -18015459.35746  21401057.5084                   21401055.2934
 -15798029.74248 -12290769.12846  21751179.0164                   21751178.9884
 -16049388.81647 -12488946.02143  23441116.8834                   23441115.7234
 -26783092.53548 -20850771.06947  20434656.7734                   20434654.6174
 -13304096.09847 -10347223.14246  21868100.3054                   21868098.6294
 11  8 24  1 52  0.0000000  0  8G29G26G02G12G25G10G05G30
  -5170385.87147  -4018722.56645  23001920.4534                   23001919.6294
   1005504.76646    794641.60544  24005008.1094                   24005007.9884
 -27820103.12948 -21657884.15346  21646281.7664                   21646277.7234
 -23122452.77348 -17998895.39446  21405102.3914                   21405100.3244
 -15840023.70748 -12323491.67546  21743187.4224                   21743187.9064
 -15979862.27747 -12434769.51244  23454347.6484                   23454346.1764
 -26796803.60948 -20861454.99847  20432047.9384                   20432045.3484
 -13336152.66047 -10372202.28345  21862000.1564                   21861998.5514
 11  8 24  1 52 30.0000000  0  8G29G26G02G12G25G10G05G30
  -5285913.82447  -4108744.33445  22979936.2814                   22979935.5594
    878284.00446    695508.67343  23980797.8754                   23980798.7234
 -27816557.55548 -21655121.38146  21646956.3674                   21646952.2034
 -23100730.78548 -17981969.18346  21409235.9064                   21409233.6724
 -15881444.02748 -12355767.22646  21735305.5634                   21735305.8674
 -15910146.68047 -12380445.66244  23467613.6414                   23467612.8714
 -26809983.11348 -20871724.72547  20429539.8444                   20429537.6804
 -13367618.25447 -10396720.90546  21856012.3444                   21856010.6684
 11  8 24  1 53  0.0000000  0  8G29G26G02G12G25G10G05G30
  -5401398.35947  -4198732.25845  22957960.4694                   22957959.5744
    751083.67246    596391.63744  23956592.6644                   23956592.5004
 -27812928.55148 -21652293.59446  21647646.9064                   21647642.5904
 -23078543.15648 -17964680.13346  21413458.4774                   21413456.3094
 -15922287.89548 -12387593.61546  21727533.0944                   21727533.3714
 -15840241.83247 -12325974.36744  23480916.5314                   23480914.8364
 -26822629.89548 -20881579.35647  20427133.0784                   20427130.8244
 -13398490.68448 -10420777.33646  21850137.4224                   21850135.9104
 11  8 24  1 53 30.0000000  0  8G29G26G02G12G25G10G05G30
  -5516837.69147  -4288684.97745  22935993.1804                   22935992.4104
    623907.00446    497293.08043  23932392.1024                   23932391.5044
 -27809215.80548 -21649400.54646  21648353.3524                   21648349.4844
 -23055891.84448 -17947029.77446  21417768.5634                   21417766.4884
 -15962555.18448 -12418970.71646  21719870.3524                   21719871.0434
 -15770150.45747 -12271357.73344  23494255.1094                   23494253.0984
 -26834744.91848 -20891019.61447  20424828.0784                   20424825.7544
 -13428770.35548 -10444371.87645  21844375.7424                   21844374.2464
 11  8 24  1 54  0.0000000  0  8G29G26G02G12G25G10G05G30
  -5632228.79747  -4378600.09745  22914035.2734                   22914033.8754
    496758.80946    398216.62543  23908196.1254                   23908195.7974
 -27805418.49248 -21646441.61746  21649076.0474                   21649072.1134
 -23032778.02348 -17929019.02346  21422167.2194                   21422165.0164
 -16002244.80148 -12449897.68346  21712317.7274                   21712318.3014
 -15699874.02347 -12216596.89744  23507627.4844                   23507626.2194
 -26846328.61348 -20900045.85847  20422623.6954                   20422620.9964
 -13458456.83648 -10467504.18346  21838726.4304                   21838724.8714
 11  8 24  1 54 30.0000000  0  8G29G26G02G12G25G10G05G30
  -5747571.61347  -4468477.56545  22892085.8914                   22892084.6764
    369640.32846    299163.37743  23884006.0234                   23884006.0314
 -27801538.97348 -21643418.62246  21649814.0944                   21649810.4144
 -23009206.15648 -17910651.35346  21426652.6804                   21426650.6604
 -16041358.66448 -12480376.01246  21704874.8134                   21704875.0474
 -15629417.16847 -12161695.48744  23521035.1484                   23521033.9534
 -26857384.05548 -20908660.47247  20420519.6954                   20420517.4774
 -13487552.60947 -10490176.20046  21833189.3524                   21833188.1564
 11  8 24  1 55  0.0000000  0  8G29G26G02G12G25G10G05G30
  -5862857.77047  -4558310.89845  22870147.5164                   22870146.4694
    242561.98446    200141.34344  23859823.3364                   23859823.7974
 -27797570.10248 -21640326.00546  21650569.4774                   21650565.3484
 -22985171.29748 -17891922.91746  21431226.0314                   21431224.1604
 -16079889.96148 -12510400.38246  21697542.4924                   21697542.7894
 -15558775.31247 -12106649.88744  23534477.8524                   23534476.8914
 -26867905.56248 -20916859.03447  20418517.5394                   20418515.4454
 -13516051.41047 -10512383.06646  21827766.4384                   21827765.3484
 11  8 24  1 55 30.0000000  0  8G29G26G02G12G25G10G05G30
  -5978092.76247  -4648104.34445  22848219.4304                   22848217.6994
    115520.05946    101147.75344  23835648.7194                   23835648.3484
 -27793519.46947 -21637169.67846  21651340.2814                   21651336.2774
 -22960683.14148 -17872841.24346  21435886.1334                   21435884.0394
 -16117846.23448 -12539976.69746  21690319.7504                   21690319.9924
 -15487958.72747 -12051468.16844  23547953.3524                   23547953.0904
 -26877902.06648 -20924648.50247  20416615.3674                   20416613.1644
 -13543961.45347 -10534131.13746  21822455.4144                   21822453.6374
 11  8 24  1 56  0.0000000  0  8G29G26G02G12G25G10G05G30
  -6093273.19147  -4737855.28945  22826301.0784                   22826299.7234
    -11480.86346      2186.06844  23811481.2274                   23811480.5664
 -27789386.13747 -21633948.91746  21652126.9384                   21652123.0594
 -22935742.41448 -17853406.92846  21440632.0474                   21440630.3874
 -16155226.21148 -12569103.95346  21683206.6954                   21683206.9384
 -15416969.26247 -11996151.73644  23561462.4774                   23561461.6604
 -26887373.84048 -20932029.09547  20414812.8834                   20414810.6484
 -13571282.05947 -10555419.91746  21817256.6484                   21817255.0704
 11  8 24  1 56 30.0000000  0  8G29G26G02G12G25G10G05G30
  -6208398.60547  -4827563.33945  22804393.1024                   22804392.4654
   -138438.34846    -96741.75344  23787321.8364                   23787321.6174
 -27785171.28548 -21630664.61046  21652928.9144                   21652925.0164
 -22910352.96147 -17833622.95146  21445463.8054                   21445461.9304
 -16192031.28948 -12597783.23146  21676202.7194                   21676203.2424
 -15345810.36747 -11940703.28744  23575003.5314                   23575003.3204
 -26896323.26648 -20939002.65947  20413109.9844                   20413107.5314
 -13598015.18747 -10576250.92946  21812169.5554                   21812167.6844
 11  8 24  1 57  0.0000000  0  9G29G26G02G12G25G10G15G05G30
  -6323467.44947  -4917227.32145  22782496.4224                   22782494.9614
   -265349.16046   -195633.18044  23763171.5314                   23763170.7504
 -27780875.35248 -21627317.13146  21653746.3364                   21653742.4454
 -22884516.96547 -17813491.01746  21450380.0164                   21450378.0594
 -16228261.72748 -12626014.74346  21669308.1024                   21669308.6484
 -15274484.95347 -11885125.09744  23588576.3134                   23588575.9924
   7693909.69556   6006524.70954  24670868.3984                   24670869.2814
 -26904752.16048 -20945570.61647  20411505.8524                   20411503.4574
 -13624161.66448 -10596624.80846  21807193.7114                   21807192.3054
 11  8 24  1 57 30.0000000  0  9G29G26G02G12G25G10G15G05G30
  -6438480.20347  -5006847.59445  22760610.2114                   22760608.7584
   -392212.43746   -294487.59944  23739030.4144                   23739029.8364
 -27776500.85948 -21623908.43446  21654579.0394                   21654575.1524
 -22858239.29348 -17793014.91446  21455381.0944                   21455378.6374
 -16263920.31248 -12653800.65146  21662522.5314                   21662523.2504
 -15202997.96547 -11829421.00144  23602179.8594                   23602179.6604
   7568633.40246   5908906.96144  24647029.2734                   24647030.0984
 -26912664.44548 -20951736.01647  20410000.4304                   20409997.6644
 -13649724.98448 -10616544.27746  21802329.2504                   21802327.5824
 11  8 24  1 58  0.0000000  0  9G29G26G02G12G25G10G15G05G30
  -6553438.14547  -5096425.17645  22738734.6334                   22738733.4494
   -519027.85246   -393304.76644  23714898.0234                   23714897.4804
 -27772051.47747 -21620441.37746  21655425.7894                   21655421.8014
 -22831525.92647 -17772199.33746  21460464.2034                   21460461.8834
 -16299010.64847 -12681143.77446  21655844.9774                   21655845.2464
 -15131355.92247 -11773596.04644  23615813.1804                   23615812.4734
   7443216.18446   5811179.33943  24623162.7894                   24623163.7424
 -26920065.01248 -20957502.67947  20408591.7424                   20408589.4494
 -13674709.26648 -10636012.54246  21797574.9694                   21797573.4414
 11  8 24  1 58 30.0000000  0  9G29G26G02G12G25G10G15G05G30
  -6668341.79747  -5185960.43445  22716869.1174                   22716868.0004
   -645793.72746   -492083.27244  23690775.1564                   23690774.7544
 -27767528.85548 -21616917.27046  21656285.9924                   21656282.5594
 -22804380.68447 -17751047.21246  21465630.0314                   21465627.7384
 -16333534.77347 -12708045.69146  21649275.4454                   21649275.9534
 -15059563.13347 -11717653.63744  23629474.4844                   23629474.5824
   7317658.87946   5713342.62443  24599269.9844                   24599270.2894
 -26926957.05148 -20962873.09747  20407280.3914                   20407278.2344
 -13699117.15248 -10655031.69346  21792929.8524                   21792928.8984
 11  8 24  1 59  0.0000000  0  9G29G26G02G12G25G10G15G05G30
  -6783183.52347  -5275447.44045  22695015.2114                   22695013.9574
   -772501.16846   -590816.22944  23666663.1644                   23666662.9024
 -27762927.82847 -21613332.04546  21657161.9844                   21657157.9654
 -22776800.77047 -17729556.38046  21470878.0394                   21470876.0704
 -16367487.48047 -12734502.35746  21642814.1564                   21642814.6134
 -14987616.54747 -11661591.42144  23643165.6174                   23643165.1564
   7191969.26646   5615402.81943  24575351.8674                   24575352.0824
 -26933336.44948 -20967844.04147  20406066.4844                   20406063.9264
 -13722944.05547 -10673598.11646  21788396.0394                   21788394.6644
 11  8 24  1 59 30.0000000  0  9G29G26G02G12G25G10G15G05G30
  -6897959.14547  -5364882.98145  22673173.7974                   22673172.6644
   -899144.28147   -689499.10544  23642563.5704                   23642563.7774
 -27758246.16048 -21609683.98846  21658052.9454                   21658048.6764
 -22748786.08247 -17707726.77246  21476209.1484                   21476207.0274
 -16400866.77747 -12760512.20846  21636462.4924                   21636462.6254
 -14915516.54747 -11605409.61443  23656885.8054                   23656884.9654
   7066152.35246   5517363.74843  24551409.3444                   24551409.3874
 -26939202.53548 -20972415.01547  20404950.0234                   20404947.6914
 -13746188.58248 -10691710.72945  21783973.0634                   21783971.0984
 11  8 24  2  0  0.0000000  0  9G29G26G02G12G25G10G15G05G30
  -7012669.14847  -5454267.35745  22651345.7344                   22651343.8984
  -1025722.17246   -788131.12844  23618476.6804                   23618476.4454
 -27753486.25848 -21605974.96646  21658958.3674                   21658954.5204
 -22720341.60547 -17685562.26746  21481622.0704                   21481619.7854
 -16433675.48047 -12786077.44546  21630219.2504                   21630219.4884
 -14843268.57847 -11549112.50744  23670634.3364                   23670633.6054
   6940207.82846   5419225.27743  24527443.6414                   24527442.6334
 -26944559.62948 -20976589.36847  20403930.9844                   20403928.3484
 -13768854.19548 -10709372.24945  21779659.7894                   21779658.1294
 11  8 24  2  0 30.0000000  0  9G29G26G02G12G25G10G15G05G30
  -7127305.08247  -5543594.02545  22629530.8134                   22629529.5164
  -1152224.83647   -886704.54844  23594404.1644                   23594404.3794
 -27748642.00448 -21602200.21446  21659880.2894                   21659876.5164
 -22691463.43447 -17663059.81746  21487117.4534                   21487115.0514
 -16465907.61747 -12811193.39646  21624085.8914                   21624085.9384
 -14770868.70347 -11492697.04943  23684411.8834                   23684410.8404
   6814144.95346   5320994.59743  24503454.1174                   24503453.3284
 -26949402.98448 -20980363.40047  20403009.1414                   20403006.7584
 -13790935.50048 -10726578.45745  21775457.6174                   21775455.9694
 11  8 24  2  1  0.0000000  0  9G29G26G02G12G25G10G15G05G30
  -7241869.47747  -5632864.95445  22607730.3754                   22607728.7034
  -1278652.86747   -985219.80644  23570345.5704                   23570345.9454
 -27743717.58248 -21598362.99846  21660817.7424                   21660813.9454
 -22662158.06247 -17640224.46946  21492693.8284                   21492691.9384
 -16497567.64547 -12835863.56246  21618061.1024                   21618061.0354
 -14698323.59047 -11436168.40543  23698216.9224                   23698216.0984
   6687962.34445   5222670.59843  24479441.9694                   24479441.4964
 -26953738.11348 -20983741.41547  20402184.3524                   20402181.4224
 -13812437.55948 -10743333.31846  21771366.1644                   21771364.4024
 11  8 24  2  1 30.0000000  0  9G29G26G02G12G25G10G15G05G30
  -7356363.02047  -5722080.68545  22585942.8364                   22585941.3554
  -1405005.31647  -1083676.16344  23546301.2344                   23546301.6254
 -27738715.57048 -21594465.30746  21661769.4454                   21661765.3164
 -22632430.41847 -17617060.09246  21498350.8054                   21498348.8054
 -16528658.69547 -12860090.35946  21612144.4694                   21612144.7814
 -14625638.53947 -11379530.69243  23712048.1644                   23712047.0664
   6561659.83645   5124253.25643  24455407.0864                   24455407.0704
 -26957569.22748 -20986726.68747  20401455.1564                   20401452.7034
 -13833364.07448 -10759639.69645  21767383.6804                   21767382.1804
 11  8 24  2  2  0.0000000  0  9G29G26G02G12G25G10G15G05G30
  -7470780.75047  -5811237.30645  22564169.3834                   22564168.4414
  -1531275.62547  -1182068.52144  23522272.7194                   23522272.5594
 -27733633.49648 -21590505.25046  21662736.5474                   21662732.1914
 -22602280.16447 -17593566.41446  21504088.5944                   21504086.3634
 -16559178.32447 -12883871.88746  21606336.9924                   21606337.3674
 -14552813.17247 -11322783.71243  23725906.3674                   23725904.8284
   6435242.92246   5025746.74343  24431350.5784                   24431350.6764
 -26960895.03948 -20989318.23047  20400822.0554                   20400819.8164
 -13853713.20348 -10775496.17045  21763511.3594                   21763509.9414
 11  8 24  2  2 30.0000000  0  9G29G26G02G12G25G10G15G05G30
  -7585113.39147  -5900327.63045  22542412.7664                   22542411.5084
  -1657452.81247  -1280388.32044  23498262.0704                   23498262.1174
 -27728463.49648 -21586476.67546  21663720.3524                   21663716.3954
 -22571701.98048 -17569739.26946  21509907.0164                   21509905.2424
 -16589119.32448 -12907202.54446  21600638.9694                   21600639.6174
 -14479842.72746 -11265923.61843  23739791.7814                   23739791.0394
   6308721.71946   4927158.88443  24407273.8284                   24407275.5274
 -26963709.76248 -20991511.52447  20400286.6174                   20400284.3484
 -13873478.41848 -10790897.64346  21759750.1724                   21759749.2304
 11  8 24  2  3  0.0000000  0  9G29G26G02G12G25G10G15G05G30
  -7699362.82047  -5989353.10845  22520671.9694                   22520670.5274
  -1783537.51247  -1378636.05744  23474268.6804                   23474268.8204
 -27723209.89548 -21582382.94446  21664719.9844                   21664716.1334
 -22540702.96148 -17545584.21046  21515806.2734                   21515804.0554
 -16618486.38348 -12930085.97046  21595051.0634                   21595051.1454
 -14406733.84046 -11208955.67743  23753704.2194                   23753702.9734
   6182094.49646   4828488.47643  24383178.3134                   24383178.8204
 -26966019.15248 -20993311.03747  20399847.2974                   20399844.6334
 -13892664.91848 -10805848.15846  21756099.2424                   21756097.6684
 11  8 24  2  3 30.0000000  0  9G29G26G02G12G25G10G15G05G30
  -7813531.34047  -6078315.53745  22498946.3364                   22498944.7664
  -1909530.24247  -1476812.11544  23450293.0084                   23450293.1254
 -27717876.85948 -21578227.31846  21665734.6334                   21665730.5594
 -22509289.63748 -17521106.31246  21521784.0474                   21521781.7344
 -16647284.29348 -12952525.91146  21589570.9304                   21589571.3554
 -14333493.11746 -11151885.08043  23767641.9384                   23767640.5864
   6055359.99246   4729734.51843  24359061.6094                   24359062.0554
 -26967829.10948 -20994721.39547  20399502.4924                   20399500.5124
 -13911278.19148 -10820352.00346  21752557.2974                   21752555.5704
 11  8 24  2  4  0.0000000  0  9G29G26G02G12G25G10G15G05G30
  -7927610.59847  -6167208.39845  22477237.5704                   22477236.5984
  -2035420.77747  -1574908.55844  23426337.0164                   23426336.8554
 -27712457.85948 -21574004.70646  21666766.1484                   21666762.0554
 -22477457.72348 -17496302.24546  21527841.9454                   21527839.3134
 -16675506.84448 -12974517.51046  21584199.9694                   21584200.9734
 -14260116.64846 -11094708.60043  23781604.1954                   23781603.8954
   5928527.27346   4630903.96643  24334925.4694                   24334926.2114
 -26969134.77048 -20995738.78847  20399254.1414                   20399251.6724
 -13929312.56248 -10834404.76446  21749125.6254                   21749123.9304
 11  8 24  2  4 30.0000000  0  9G29G26G02G12G25G10G15G05G30
  -8041600.56647  -6256031.69245  22455545.8054                   22455544.9024
  -2161207.78947  -1672924.28744  23402400.4694                   23402399.9614
 -27706955.27748 -21569716.97846  21667813.2274                   21667809.0124
 -22445212.35248 -17471175.99146  21533977.5164                   21533975.2974
 -16703156.93448 -12996063.04646  21578938.5314                   21578939.0434
 -14186609.43446 -11037430.26944  23795592.5634                   23795591.4654
   5801596.78846   4531997.24244  24310771.8594                   24310772.1484
 -26969939.91048 -20996366.16547  20399101.1254                   20399098.6174
 -13946771.52748 -10848009.16346  21745803.4224                   21745801.9734
 11  8 24  2  5  0.0000000  0  9G29G26G02G12G25G10G15G05G30
  -8155503.85947  -6344787.42345  22433870.7664                   22433869.4344
  -2286892.15247  -1770860.07844  23378483.3204                   23378482.5864
 -27701373.48848 -21565367.51946  21668875.1334                   21668871.3054
 -22412560.41448 -17445732.94446  21540190.9384                   21540188.7504
 -16730239.70348 -13017166.51346  21573785.0864                   21573785.4774
 -14112978.48846 -10980055.54243  23809604.1334                   23809602.8754
   5674566.86346   4433013.00044  24286599.0004                   24286599.0784
 -26970251.06248 -20996608.61947  20399041.7734                   20399039.5044
 -13963660.87148 -10861169.69146  21742589.4694                   21742587.8094
 11  8 24  2  5 30.0000000  0  9G29G26G02G12G25G10G15G05G30
  -8269314.14847  -6433470.69145  22412213.2274                   22412212.2384
  -2412465.87547  -1868709.65544  23354587.5164                   23354587.0664
 -27695708.22347 -21560953.01946  21669953.3914                   21669948.9884
 -22379499.55947 -17419971.26646  21546482.4384                   21546480.2934
 -16756751.29748 -13037824.90146  21568739.9924                   21568740.5904
 -14039222.05546 -10922583.02643  23823639.1644                   23823638.2304
   5547444.35446   4333956.56644  24262408.0394                   24262408.2074
 -26970065.24648 -20996463.82447  20399077.0084                   20399074.6524
 -13979977.31248 -10873883.80546  21739484.4694                   21739482.7114
 11  8 24  2  6  0.0000000  0  9G29G26G02G12G25G10G15G05G30
  -8383033.12547  -6522082.78445  22390573.4224                   22390571.9184
  -2537929.13747  -1966473.12944  23330712.9384                   23330712.1994
 -27689963.10247 -21556476.29646  21671046.8054                   21671042.6214
 -22346036.52047 -17393896.18846  21552849.8054                   21552848.1454
 -16782696.13748 -13058041.68146  21563803.1804                   21563803.2234
 -13965346.19946 -10865017.49444  23837697.5704                   23837696.9574
   5420228.20346   4234827.29144  24238198.9924                   24238199.8674
 -26969387.85548 -20995935.97747  20399205.9224                   20399203.3634
 -13995725.89148 -10886155.43346  21736487.3444                   21736486.3444
 11  8 24  2  6 30.0000000  0  9G29G26G02G12G25G10G15G05G30
  -8496657.85247  -6610621.45845  22368950.9144                   22368950.0634
  -2663277.65647  -2064147.23544  23306859.8444                   23306858.9964
 -27684137.21147 -21551936.63346  21672155.1644                   21672151.2974
 -22312173.09047 -17367509.12346  21559294.1094                   21559291.8874
 -16808074.12148 -13077816.74546  21558973.7344                   21558974.1214
 -13891352.64546 -10807360.15443  23851777.7194                   23851776.6644
   5292921.87246   4135627.72144  24213974.2584                   24213974.2034
 -26968220.39548 -20995026.26447  20399428.1644                   20399425.6644
 -14010907.10548 -10897984.97146  21733598.7504                   21733597.3874
 11  8 24  2  7  0.0000000  0  9G29G26G02G12G25G10G15G05G30
  -8610184.17647  -6699083.45345  22347348.1094                   22347346.5984
  -2788505.09047  -2161726.95644  23283029.7114                   23283028.8554
 -27678228.53547 -21547332.45446  21673279.2194                   21673275.4454
 -22277909.70347 -17340810.39246  21565814.1724                   21565812.1374
 -16832883.59048 -13097148.81346  21554252.7114                   21554252.8834
 -13817241.90646 -10749611.60643  23865881.2974                   23865879.7934
   5165530.64846   4036361.87844  24189732.3054                   24189732.2734
 -26966561.87948 -20993733.91047  20399743.9224                   20399741.4694
 -14025519.94548 -10909371.60146  21730817.6644                   21730816.3364
 11  8 24  2  7 30.0000000  0  9G29G26G02G12G25G10G15G05G30
  -8723607.50047  -6787465.17845  22325763.8984                   22325762.9964
  -2913605.83247  -2259207.98644  23259223.5314                   23259222.8054
 -27672234.50447 -21542661.76446  21674420.4774                   21674415.9774
 -22243246.25447 -17313799.92346  21572410.5084                   21572408.4414
 -16857122.94948 -13116036.64946  21549640.0004                   21549640.5744
 -13743013.85246 -10691771.57843  23880006.8754                   23880005.0744
   5038059.19947   3937033.62344  24165475.0704                   24165475.0124
 -26964411.99248 -20992058.66047  20400153.2194                   20400150.5394
 -14039563.35248 -10920314.52345  21728145.3984                   21728143.6724
 11  8 24  2  8  0.0000000  0  9G29G26G02G12G25G10G15G05G30
  -8836930.88747  -6875769.03745  22304199.2114                   22304197.7934
  -3038581.00047  -2356591.17744  23235441.3204                   23235440.8754
 -27666160.03147 -21537928.42245  21675576.0784                   21675571.6844
 -22208190.45347 -17286483.73446  21579081.3674                   21579079.2664
 -16880797.77048 -13134484.56846  21545134.8834                   21545135.3014
 -13668676.05546 -10633846.11543  23894152.5864                   23894151.1484
   4910505.59446   3837641.34544  24141202.6804                   24141202.0554
 -26961777.23048 -20990005.59447  20400654.4064                   20400651.5664
 -14053043.51648 -10930818.57146  21725580.2584                   21725578.9184
 11  8 24  2  8 30.0000000  0  9G29G26G02G12G25G10G15G05G30
  -8950158.46547  -6963998.23445  22282652.6954                   22282651.3324
  -3163433.12547  -2453878.44744  23211682.6174                   23211681.8754
 -27660011.33247 -21533137.22346  21676746.0784                   21676741.6254
 -22172750.82847 -17258868.44146  21585824.9774                   21585823.3244
 -16903915.03948 -13152498.03446  21540735.8284                   21540736.6524
 -13594237.03946 -10575841.66543  23908316.6564                   23908315.7814
   4782866.51046   3738182.38544  24116912.8444                   24116913.0944
 -26958665.91448 -20987581.18247  20401246.2814                   20401243.8164
 -14065968.09048 -10940889.68546  21723121.1804                   21723119.4654
 11  8 24  2  9  0.0000000  0  9G29G26G02G12G25G10G15G05G30
  -9063280.69547  -7052145.36345  22261126.2424                   22261124.5594
  -3288151.34047  -2551061.38844  23187949.5084                   23187949.4804
 -27653781.08247 -21528282.48546  21677931.6644                   21677927.2584
 -22136923.27347 -17230950.88746  21592642.8674                   21592640.5274
 -16926468.49248 -13170072.17446  21536444.0474                   21536444.6334
 -13519692.45747 -10517754.96943  23922502.5004                   23922501.5784
   4655151.28145   3638664.17843  24092609.1954                   24092609.2424
 -26955072.69548 -20984781.25447  20401930.0234                   20401927.4774
 -14078331.29748 -10950523.37846  21720768.4304                   21720766.9884
 11  8 24  2  9 30.0000000  0  9G29G26G02G12G25G10G15G05G30
  -9176294.33247  -7140207.87645  22239620.1724                   22239619.0164
  -3412730.44947  -2648135.96144  23164243.0234                   23164241.7384
 -27647467.78547 -21523363.03446  21679133.2194                   21679128.7114
 -22100708.86347 -17202731.89146  21599534.1954                   21599532.2424
 -16948457.25048 -13187206.29446  21532259.9384                   21532260.2894
 -13445042.96546 -10459586.53043  23936707.7814                   23936707.1804
   4527364.97346   3539090.60543  24068292.3204                   24068291.5594
 -26950997.52047 -20981605.78347  20402705.6254                   20402703.1684
 -14090132.92648 -10959719.47445  21718522.3134                   21718521.4264
 11  8 24  2 10  0.0000000  0  9G29G26G02G12G25G10G15G05G30
  -9289195.18447  -7228182.51645  22218135.7504                   22218134.4344
  -3537165.10247  -2745097.95244  23140563.9534                   23140563.4024
 -27641069.37947 -21518377.26046  21680350.6884                   21680346.4264
 -22064108.19548 -17174211.90146  21606498.8834                   21606497.1684
 -16969880.42248 -13203899.68846  21528182.8594                   21528183.6764
 -13370289.16446 -10401336.87343  23950933.4844                   23950932.4064
   4399511.44146   3439464.58043  24043962.7584                   24043962.6764
 -26946440.61748 -20978054.93747  20403572.6484                   20403570.0704
 -14101372.63348 -10968477.69846  21716383.3444                   21716382.2464
 11  8 24  2 10 30.0000000  0  9G29G26G02G12G25G10G15G05G30
  -9401986.64847  -7316071.91645  22196672.5004                   22196671.0514
  -3661456.77747  -2841948.52344  23116911.6484                   23116911.4804
 -27634591.15247 -21513329.28546  21681583.8444                   21681579.5744
 -22027129.31247 -17145397.20446  21613535.8204                   21613534.3404
 -16990744.22348 -13220157.20846  21524212.8834                   21524213.3054
 -13295438.83646 -10343012.00243  23965176.6724                   23965176.0784
   4271588.28946   3339784.43843  24019620.2114                   24019619.2584
 -26941409.28947 -20974134.39947  20404529.9694                   20404527.5434
 -14112057.26248 -10976803.39746  21714350.2114                   21714349.0514
 11  8 24  2 11  0.0000000  0  9G29G26G02G12G25G10G15G05G30
  -9514666.01647  -7403873.97945  22175230.2344                   22175228.9064
  -3785601.70347  -2938684.77544  23093287.8054                   23093286.7894
 -27628032.85547 -21508218.92546  21682831.2194                   21682827.4614
 -21989773.99247 -17116289.17346  21620644.6644                   21620642.5944
 -17011049.21148 -13235979.28946  21520348.9924                   21520349.2274
 -13220494.21946 -10284613.62943  23979437.9694                   23979438.0594
   4143598.71046   3240052.40143  23995263.7114                   23995263.1564
 -26935905.10548 -20969845.41547  20405577.5164                   20405574.9304
 -14122187.96548 -10984697.49346  21712422.3674                   21712421.1884
 11  8 24  2 11 30.0000000  0  9G29G26G02G12G25G10G15G05G30
  -9627236.76647  -7491591.40845  22153808.8834                   22153807.0594
  -3909601.02747  -3035307.55444  23069691.2664                   23069690.4614
 -27621399.53147 -21503050.10046  21684093.7274                   21684089.6804
 -21952050.84847 -17086894.52346  21627822.7894                   21627821.3284
 -17030801.34848 -13251370.56246  21516590.1644                   21516590.5664
 -13145462.83647 -10226147.57443  23993716.2274                   23993715.4924
   4015540.43846   3140266.93043  23970894.6174                   23970894.4064
 -26929934.98047 -20965193.35647  20406713.6174                   20406711.1214
 -14131771.33648 -10992165.07146  21710599.0704                   21710597.5984
 11  8 24  2 12  0.0000000  0  9G29G26G02G12G25G10G15G05G30
  -9739687.73847  -7579215.51645  22132409.7894                   22132408.2344
  -4033442.51247  -3131807.31944  23046125.2034                   23046124.7384
 -27614682.19147 -21497815.81046  21685371.7194                   21685367.6994
 -21913953.74647 -17057208.47946  21635072.9454                   21635070.8164
 -17049992.97348 -13266325.08646  21512938.0164                   21512938.8954
 -13070338.66846 -10167609.26443  24008011.6334                   24008011.2854
   3887424.87146   3040436.72243  23946515.1094                   23946514.9304
 -26923492.31647 -20960173.09147  20407939.6414                   20407937.3954
 -14140800.22348 -10999200.59346  21708881.1804                   21708879.5004
 11  8 24  2 12 30.0000000  0  9G29G26G02G12G25G10G15G05G30
  -9852019.24647  -7666746.54345  22111033.7034                   22111032.0164
  -4157124.49247  -3228182.83344  23022589.1094                   23022588.5864
 -27607883.00847 -21492517.74345  21686665.8204                   21686661.3524
 -21875487.33247 -17027234.66146  21642392.5004                   21642390.7464
 -17068627.11348 -13280845.19346  21509392.2814                   21509392.8524
 -12995126.21147 -10109002.23043  24022324.5864                   24022324.0474
   3759252.73246   2940562.42343  23922125.3914                   23922123.9804
 -26916581.16847 -20954787.76447  20409254.7814                   20409252.3284
 -14149278.31648 -11005806.90945  21707267.8134                   21707266.2344
 11  8 24  2 13  0.0000000  0  9G29G26G02G12G25G10G15G05G30
  -9964233.46547  -7754186.18245  22089680.3594                   22089678.4654
  -4280647.89547  -3324434.75844  22999083.6954                   22999082.7154
 -27601006.40647 -21487159.35946  21687974.1724                   21687970.3444
 -21836658.88747 -16996978.75746  21649781.5234                   21649779.5594
 -17086709.35948 -13294935.26346  21505951.0554                   21505951.8134
 -12919832.25047 -10050331.68443  24036652.4774                   24036652.2664
   3631022.25446   2840642.72743  23897723.6804                   23897723.1024
 -26909207.57447 -20949042.08947  20410657.5314                   20410655.5474
 -14157211.75848 -11011988.82446  21705757.9144                   21705756.6414
 11  8 24  2 13 30.0000000  0  9G29G26G02G12G25G10G15G05G30
  -8500898.93047  -6613925.49646  22368143.4304                   22368142.1134
  -2828579.62547  -2192952.91644  23275403.4144                   23275401.7704
 -26018627.16847 -20254136.57445  21989091.1254                   21989086.9534
 -20222046.82447 -15738839.49446  21957032.0554                   21957030.3524
 -15528814.71948 -12080991.38346  21802408.7664                   21802409.0274
 -11269036.18046  -8763997.06443  24350788.5084                   24350787.7854
   5078165.88746   3968287.24144  24173105.0554                   24173104.6174
 -25325948.83647 -19715333.96747  20711941.9924                   20711939.5864
 -12589176.51247  -9790143.19946  22004145.2424                   22004143.6954
 11  8 24  2 14  0.0000000  0  9G29G26G02G12G25G10G15G05G30
  -8612869.60547  -6701175.37246  22346836.3754                   22346834.9304
  -2951772.44947  -2288947.25744  23251960.3594                   23251959.4734
 -26011592.94147 -20248655.35945  21990429.7814                   21990425.3674
 -20182499.97347 -15708023.78146  21964557.7274                   21964555.8714
 -15545793.80548 -12094221.84046  21799177.5004                   21799178.2974
 -11193583.74246  -8705203.00943  24365146.9224                   24365145.8164
   4949829.60247   3868285.07144  24148684.1024                   24148683.5394
 -25317654.64548 -19708870.94647  20713520.3134                   20713517.7894
 -12596023.05948  -9795478.18046  22002842.2344                   22002841.0394
 11  8 24  2 14 30.0000000  0  9G29G26G02G12G25G10G15G05G30
  -8724712.37147  -6788325.57346  22325553.3984                   22325551.7704
  -3074791.39547  -2384806.11844  23228550.5004                   23228549.4494
 -26004476.72747 -20243110.25145  21991783.9844                   21991779.7624
 -20142595.04747 -15676929.05446  21972151.2504                   21972149.1414
 -15562219.91448 -12107021.39846  21796051.8754                   21796052.7194
 -11118052.74246  -8646347.70143  24379520.3284                   24379519.1484
   4821447.56147   3768247.28744  24124253.0084                   24124253.0394
 -25308900.12547 -19702049.22947  20715186.0164                   20715183.8204
 -12602325.68748  -9800389.33646  22001643.0704                   22001641.5634
 11  8 24  2 15  0.0000000  0  9G29G26G02G12G25G10G15G05G30
  -8836425.12147  -6875374.45746  22304295.3984                   22304293.5004
  -3197632.92247  -2480526.69544  23205174.7424                   23205173.1914
 -25997278.77047 -20237501.45945  21993153.3594                   21993149.8244
 -20102334.98447 -15645557.58346  21979812.4844                   21979810.6214
 -15578094.34048 -12119391.07546  21793031.0164                   21793031.9224
 -11042446.05146  -8587433.48143  24393906.8054                   24393906.9304
   4693022.47347   3668175.87544  24099814.9774                   24099814.5164
 -25299687.46547 -19694870.51247  20716939.2424                   20716937.0004
 -12608086.19947  -9804878.06045  22000546.6094                   22000545.2074
 11  8 24  2 15 30.0000000  0  9G29G26G02G12G25G10G15G05G30
  -8948003.73047  -6962318.82846  22283062.8524                   22283061.0004
  -3320291.02747  -2576104.36244  23181833.2344                   23181832.2154
 -25989996.54747 -20231827.01346  21994539.5474                   21994535.4654
 -20061720.37947 -15613909.85446  21987541.1804                   21987539.1724
 -15593416.17248 -12131330.16346  21790115.4304                   21790115.8484
 -10966763.84446  -8528460.35543  24408309.0164                   24408308.5594
   4564559.22347   3568074.76544  24075369.0634                   24075368.3754
 -25290016.46548 -19687334.65647  20718779.7664                   20718777.1954
 -12613304.30948  -9808944.13846  21999554.0004                   21999552.5664
 11  8 24  2 16  0.0000000  0  9G29G26G02G12G25G10G15G05G30
  -9059447.27747  -7049157.94846  22261855.4384                   22261853.9344
  -3442763.76647  -2671537.60544  23158527.2734                   23158526.2384
 -25982631.41847 -20226087.96545  21995941.1174                   21995936.7584
 -20020755.45747 -15581989.15846  21995336.3984                   21995334.4574
 -15608187.85948 -12142840.56246  21787304.3364                   21787304.8404
 -10891009.87545  -8469431.32543  24422724.1804                   24422723.9384
   4436059.45347   3467945.26144  24050916.6884                   24050915.3284
 -25279890.48048 -19679444.27147  20720706.3914                   20720704.0004
 -12617983.02747  -9812589.88845  21998663.5864                   21998662.2734
 11  8 24  2 16 30.0000000  0  9G29G26G02G12G25G10G15G05G30
  -9170752.85947  -7135889.55146  22240674.7734                   22240672.9694
  -3565046.38747  -2766822.69145  23135257.6644                   23135256.6604
 -25975182.28147 -20220283.44946  21997358.3444                   21997353.9384
 -19979442.45748 -15549797.21446  22003198.2344                   22003195.8914
 -15622409.79748 -12153922.58446  21784597.8984                   21784598.3794
 -10815185.69546  -8410347.61342  24437153.2034                   24437152.8364
   4307526.77447   3367790.16943  24026457.2424                   24026456.2584
 -25269310.96548 -19671200.46847  20722719.6024                   20722717.4344
 -12622123.30547  -9815816.08345  21997875.6414                   21997874.3094
 11  8 24  2 17  0.0000000  0  9G29G26G02G12G25G10G15G05G30
  -9281919.74247  -7222513.07146  22219520.3984                   22219518.6604
  -3687136.73447  -2861957.94845  23112024.7664                   23112023.9614
 -25967650.85547 -20214414.80845  21998791.6174                   21998787.6524
 -19937785.74248 -15517337.44746  22011124.9534                   22011123.3634
 -15636084.80948 -12164578.41846  21781995.9454                   21781996.4224
 -10739295.22746  -8351212.23043  24451595.3524                   24451594.9104
                                  24001991.5314                   24001991.0744
 -25258281.68048 -19662606.20747  20724818.6334                   20724815.8404
 -12625728.63347  -9818625.42645  21997189.7034                   21997188.5004
 11  8 24  2 17 30.0000000  0  9G29G26G02G12G25G10G15G05G30
  -9392947.66447  -7309028.31246  22198392.3674                   22198390.9844
  -3809032.97347  -2956941.96345  23088828.5004                   23088827.4964
 -25960038.60248 -20208483.18445  22000240.3834                   22000236.2974
 -19895789.55148 -15484613.15646  22019116.8284                   22019114.7974
 -15649215.86348 -12174810.39946  21779497.1804                   21779497.1214
 -10663342.74246  -8292028.47342  24466047.8594                   24466047.5864
                                  23977520.6094                   23977520.0474
 -25246806.38348 -19653664.40247  20727002.2114                   20726999.4534
 -12628802.45347  -9821020.62046  21996604.8054                   21996603.5944
 11  8 24  2 18  0.0000000  0  9G29G26G02G12G25G10G15G05G30
  -9503835.76647  -7395434.57546  22177291.2194                   22177289.3284
  -3930732.71547  -3051772.84844  23065669.7504                   23065668.9964
 -25952346.85247 -20202489.60645  22001703.8674                   22001699.8364
 -19853458.02748 -15451627.56846  22027172.1884                   22027169.8364
 -15661805.56248 -12184620.55446  21777101.2734                   21777101.5704
 -10587331.85246  -8232799.17743  24480512.9224                   24480511.9064
   3921742.23047   3067178.96544  23953044.8834                   23953043.9734
 -25234888.19948 -19644377.49346  20729270.1644                   20729267.5704
 -12631348.05947  -9823004.19045  21996120.3444                   21996118.9304
 11  8 24  2 18 30.0000000  0  9G29G26G02G12G25G10G15G05G30
  -9614581.77347  -7481730.13246  22156216.4774                   22156215.1254
  -4052232.10947  -3146447.61044  23042549.2894                   23042548.2114
 -25944575.05147 -20196433.66245  22003183.3444                   22003178.8634
 -19810793.88348 -15418382.80146  22035290.6334                   22035288.8014
 -15673855.04348 -12194009.74646  21774808.4304                   21774808.8674
 -10511264.67646  -8173526.12343  24494987.9454                   24494987.5164
   3793091.68646   2966931.89644  23928562.9614                   23928562.6844
 -25222529.25448 -19634747.13446  20731622.1954                   20731619.5394
 -12633367.05947  -9824577.43345  21995736.0004                   21995734.5664
 11  8 24  2 19  0.0000000  0  9G29G26G02G12G25G10G15G05G30
  -9725185.37547  -7567914.70646  22135169.8914                   22135167.9304
  -4173529.58247  -3240965.06244  23019466.7584                   23019466.2734
 -25936725.30547 -20190316.99346  22004676.6484                   22004672.3834
 -19767802.10948 -15384882.73546  22043471.6414                   22043469.9384
 -15685367.68748 -12202980.63146  21772617.4384                   21772617.9614
 -10435145.27047  -8114212.33043  24509473.3524                   24509472.3674
   3664416.01346   2866665.19144  23904076.8204                   23904076.3284
 -25209733.87548 -19624776.71247  20734056.8594                   20734054.0474
 -12634863.44547  -9825743.43145  21995451.0084                   21995450.0124
 11  8 24  2 19 30.0000000  0  9G29G26G02G12G25G10G15G05G30
  -9835640.32447  -7653983.44246  22114150.6174                   22114149.3954
  -4294617.36747  -3335319.11344  22996424.3984                   22996423.9144
 -25928793.78147 -20184136.58246  22006185.9454                   22006181.6954
 -19724481.76648 -15351126.64046  22051715.5554                   22051713.2344
 -15696341.04348 -12211531.29746  21770529.4304                   21770529.9734
 -10358972.64847  -8054857.00043  24523968.3134                   24523967.5204
   3535721.73046   2766384.13344  23879587.1724                   23879586.6564
 -25196500.12948 -19614464.68446  20736575.2114                   20736572.5704
 -12635835.31647  -9826500.71745  21995266.1024                   21995264.9184
 11  8 24  2 20  0.0000000  0  9G29G26G02G12G25G10G15G05G30
  -9945944.42247  -7739934.62446  22093160.5554                   22093159.3524
  -4415491.55547  -3429506.72145  22973423.0634                   22973422.1254
 -25920779.70347 -20177891.86545  22007710.7034                   22007707.0354
 -19680835.42248 -15317116.50946  22060021.0554                   22060019.2424
 -15706776.10248 -12219662.50646  21768543.5394                   21768544.1804
 -10282748.63746  -7995461.75443  24538472.8594                   24538472.4224
                                  23855093.8204                   23855093.0204
 -25182830.01648 -19603812.63746  20739176.7034                   20739173.6454
 -12636284.27047  -9826850.54645  21995180.5944                   21995179.2664
 11  8 24  2 20 30.0000000  0  9G29G26G02G12G25G10G15G05G30
 -10056097.24647  -7825767.92246  22072198.8524                   22072197.5084
  -4536150.11747  -3523526.31245  22950462.1884                   22950461.3204
 -25912684.64548 -20171584.03446  22009251.1484                   22009247.2154
 -19636867.71948 -15282855.98446  22068387.9844                   22068385.8794
 -15716676.02348 -12227376.71946  21766659.5634                   21766660.4064
 -10206477.32046  -7936029.55943  24552986.8834                   24552986.6174
                                  23830599.4304                   23830598.2274
 -25168727.27748 -19592823.49146  20741859.9384                   20741857.5314
 -12636213.96947  -9826795.77745  21995194.0864                   21995192.6054
 11  8 24  2 21  0.0000000  0  9G29G26G02G12G25G10G15G05G30
 -10166095.75047  -7911480.97746  22051266.6804                   22051265.2234
  -4656588.59847  -3617374.40744  22927543.4534                   22927542.6214
 -25904507.50848 -20165212.25245  22010807.4924                   22010803.3484
 -19592580.65248 -15248346.60846  22076815.7504                   22076813.4924
 -15726041.40648 -12234674.41246  21764877.7894                   21764877.9884
 -10130160.02346  -7876561.56843  24567509.8134                   24567509.1884
   3149553.99256   2465474.42654  23806101.1564                   23806100.5204
 -25154193.48048 -19581498.44346  20744625.7344                   20744623.3164
 -12635625.59048  -9826337.27445  21995306.6024                   21995304.6764
 11  8 24  2 21 30.0000000  0  9G29G26G02G12G25G10G15G05G30
 -10275938.78947  -7997072.88646  22030364.5004                   22030362.7074
  -4776804.47347  -3711049.05044  22904667.1954                   22904666.3834
 -25896249.69948 -20158777.59245  22012378.9384                   22012374.7544
 -19547978.21548 -15213591.45446  22085303.2664                   22085301.2504
 -15734874.92248 -12241557.68146  21763196.3674                   21763197.1334
 -10053800.57846  -7817060.71143  24582040.9224                   24582039.6414
   3020810.74256   2365155.02054  23781601.8754                   23781601.4844
 -25139231.99648 -19569840.13846  20747472.7504                   20747470.4924
 -12634522.46547  -9825477.68245  21995516.0164                   21995514.5004
 11  8 24  2 22  0.0000000  0  9G29G26G02G12G25G10G15G05G30
 -10385621.02048  -8082539.47346  22009492.2734                   22009490.9024
  -4896791.14147  -3804545.10144  22881834.6484                   22881833.8524
 -25887907.66048 -20152277.30945  22013966.2274                   22013962.3404
 -19503060.46548 -15178590.63546  22093850.6094                   22093848.8754
 -15743175.03548 -12248025.30546  21761617.4144                   21761617.6764
  -9977398.18745  -7757526.47843  24596579.3134                   24596579.2734
   2892064.64556   2264833.50854  23757102.1484                   23757102.1294
 -25123841.87948 -19557847.83446  20750401.4454                   20750398.9344
 -12632903.53148  -9824216.17645  21995824.3444                   21995822.7934
 11  8 24  2 22 30.0000000  0  9G29G26G02G12G25G10G15G05G30
 -10495141.80948  -8167880.27546  21988651.3284                   21988649.6764
  -5016546.21547  -3897860.68345  22859045.6724                   22859045.0394
 -25879482.69547 -20145712.40646  22015569.3674                   22015565.5004
 -19457831.61748 -15143347.38046  22102457.7424                   22102455.5204
 -15750944.52048 -12254079.44646  21760138.6724                   21760139.2194
  -9900956.22745  -7697961.38043  24611125.7974                   24611125.0004
   2763317.07046   2164510.79344  23732602.7664                   23732602.2584
 -25108026.50848 -19545524.16647  20753410.9774                   20753408.6374
 -12630772.04347  -9822555.26545  21996229.8834                   21996228.3714
 11  8 24  2 23  0.0000000  0  8G29G26G02G12G25G15G05G30
 -10604505.69148  -8253098.81346  21967840.0704                   21967838.2584
  -5136072.65647  -3990998.10344  22836300.3594                   22836299.6884
 -25870981.38748 -20139088.00845  22017187.1094                   22017183.2234
 -19412301.30948 -15107869.23246  22111121.9614                   22111119.6724
 -15758191.86348 -12259726.72746  21758759.8524                   21758760.1684
   2634564.21756   2064184.11154  23708102.4924                   23708100.8204
 -25091795.00448 -19532876.23447  20756499.6884                   20756497.2894
 -12628137.16048  -9820502.09645  21996731.3284                   21996729.7894
 11  8 24  2 23 30.0000000  0  8G29G26G02G12G25G15G05G30
 -10713700.18448  -8338185.35246  21947061.2034                   21947059.4344
  -5255356.57847  -4083946.55245  22813601.5634                   22813600.6604
 -25862393.46548 -20132396.13245  22018821.4774                   22018817.2974
 -19366462.48448 -15072150.66846  22119844.5084                   22119842.4574
 -15764908.31248 -12264960.32046  21757481.7814                   21757481.9884
                                  23683602.9224                   23683601.7854
 -25075139.54348 -19519897.94447  20759669.2894                   20759667.0274
 -12624990.67648  -9818050.28745  21997330.0234                   21997328.3524
 11  8 24  2 24  0.0000000  0  9G29G26G02G12G25G21G15G05G30
 -10822718.98448  -8423134.98746  21926315.0784                   21926313.4414
  -5374390.55147  -4176700.24744  22790950.1644                   22790949.2304
 -25853714.78548 -20125633.51745  22020473.1884                   22020469.1524
 -19320313.84448 -15036190.71546  22128626.2584                   22128624.2624
 -15771091.41448 -12269778.32346  21756304.8674                   21756305.3134
   9323964.52756   7273590.59053  25191245.0944                   25191242.9574
   2377089.22356   1863554.30354  23659106.2344                   23659104.8164
 -25058058.21948 -19506587.81646  20762919.7114                   20762917.0904
 -12621330.68047  -9815198.34245  21998026.4144                   21998024.7114
 11  8 24  2 24 30.0000000  0  9G29G26G02G12G25G21G15G05G30
 -10931567.25848  -8507951.75746  21905602.2424                   21905600.7034
  -5493178.02347  -4269261.84745  22768345.4064                   22768344.6954
 -25844952.46148 -20118805.72945  22022140.2894                   22022136.4224
 -19273865.72347 -14999997.38446  22137464.9534                   22137463.1954
 -15776750.25448 -12274187.81346  21755228.2734                   21755228.4924
   9235971.06346   7205024.21643  25174500.1254                   25174498.6214
   2248369.03556   1763252.94654  23634611.0474                   23634610.1024
 -25040560.96148 -19492953.58047  20766249.4144                   20766246.6414
 -12617166.82848  -9811953.78845  21998818.5084                   21998817.1724
 11  8 24  2 25  0.0000000  0  9G29G26G02G12G25G21G15G05G30
 -11040250.67648  -8592640.07046  21884920.3134                   21884918.7734
  -5611723.43447  -4361634.84745  22745787.4064                   22745785.9024
 -25836114.42248 -20111918.94445  22023822.2194                   22023817.9964
 -19227129.30147 -14963579.40446  22146358.6334                   22146356.8404
 -15781894.55948 -12278196.36846  21754249.2344                   21754249.5354
   9147973.66846   7136454.91643  25157755.2344                   25157753.7114
   2119654.18247   1662955.68345  23610117.5474                   23610116.7234
 -25022658.23448 -19479003.40246  20769656.2344                   20769653.6414
 -12612509.31648  -9808324.56245  21999705.0634                   21999703.4264
 11  8 24  2 25 30.0000000  0  9G29G26G02G12G25G21G15G05G30
 -11148764.63748  -8677196.33546  21864270.6094                   21864269.3914
  -5730020.43747  -4453814.25345  22723275.5164                   22723274.9694
 -25827197.99648 -20104971.06545  22025518.8594                   22025514.7154
 -19180104.89547 -14926937.02646  22155307.0314                   22155305.4104
 -15786523.28148 -12281803.16646  21753368.5864                   21753368.7034
   9059974.27746   7067883.95643  25141009.9534                   25141007.7304
   1990950.11747   1562666.93944  23585626.0004                   23585625.0904
 -25004349.66848 -19464736.98447  20773140.3134                   20773137.7704
 -12607357.63348  -9804310.26645  22000685.2814                   22000683.9924
 11  8 24  2 26  0.0000000  0  9G29G26G02G12G25G21G15G05G30
 -11257100.82048  -8761614.07446  21843654.9144                   21843653.4884
  -5848059.16847  -4545792.43045  22700814.0704                   22700812.6294
 -25818196.85548 -20097957.18145  22027232.1484                   22027227.7304
 -19132789.40647 -14890067.83146  22164311.2504                   22164309.3134
 -15790631.99648 -12285004.76446  21752586.6254                   21752586.9304
   8971978.55546   6999315.91943  25124263.8674                   25124262.6174
   1862265.69547   1462393.44244  23561137.8204                   23561137.4454
 -24985630.62548 -19450150.70647  20776702.2194                   20776699.8014
 -12601707.95348  -9799907.91945  22001760.3134                   22001758.4384
 11  8 24  2 26 30.0000000  0  9G29G26G02G12G25G21G15G05G30
 -11365257.06248  -8845891.60846  21823073.2424                   21823071.6484
  -5965836.55547  -4637566.93845  22678401.4384                   22678400.3404
 -25809110.73448 -20090877.07045  22028960.6564                   22028956.4534
 -19085186.22747 -14852974.46146  22173369.4534                   22173367.5824
 -15794222.85948 -12287802.84546  21751903.0004                   21751903.4884
   8883985.53946   6930749.91243  25107520.1564                   25107517.8094
   1733603.32447   1362137.15244  23536654.1484                   23536653.8284
 -24966504.34048 -19435247.10446  20780341.7584                   20780339.1374
 -12595562.93048  -9795119.58445  22002929.5864                   22002928.2114
 11  8 24  2 27  0.0000000  0  9G29G26G02G12G25G21G15G05G30
 -11473233.12148  -8930028.72746  21802526.3754                   21802524.6484
  -6083350.63747  -4729136.29645  22656039.3444                   22656038.1994
 -25799941.26248 -20083732.00245  22030705.6724                   22030701.7704
 -19037300.42647 -14815660.85645  22182481.9064                   22182479.9574
 -15797299.27348 -12290200.05546  21751318.0164                   21751317.9574
   8795993.09046   6862184.46643  25090774.9694                   25090773.5204
   1604964.65246   1261899.30644  23512175.4924                   23512174.6954
 -24946975.03548 -19420029.46346  20784057.9064                   20784055.4104
 -12588926.50448  -9789948.36545  22004192.6414                   22004191.5234
 11  8 24  2 27 30.0000000  0  9G29G26G02G12G25G21G15G05G30
 -11581026.94548  -9014023.86946  21782013.5944                   21782011.8164
  -6200597.78147  -4820497.64045  22633727.6724                   22633726.8014
 -25790688.59848 -20076522.13545  22032466.1024                   22032462.2304
 -18989134.41047 -14778128.91746  22191647.7814                   22191646.1054
 -15799863.21548 -12292197.94046  21750829.7274                   21750830.2274
   8708000.40646   6793618.74743  25074030.0164                   25074028.3634
   1476352.16446   1161681.90544  23487701.3754                   23487699.6994
 -24927045.03548 -19404499.59746  20787850.4694                   20787847.8834
 -12581801.21548  -9784396.19945  22005548.1884                   22005546.7074
 11  8 24  2 28  0.0000000  0  9G29G26G02G12G25G21G15G05G30
 -11688634.81248  -9097874.10446  21761536.7274                   21761534.9844
  -6317573.02347  -4911647.13245  22611468.2974                   22611467.4494
 -25781351.47747 -20069246.43745  22034242.8834                   22034239.2074
 -18940690.22347 -14740380.22046  22200866.3204                   22200864.7344
 -15801915.20348 -12293796.89946  21750439.7504                   21750439.9884
   8620007.77046   6725053.17043  25057285.9224                   25057284.0594
   1347769.85246   1061487.98444  23463232.7504                   23463231.3874
 -24906715.29748 -19388658.24247  20791719.2894                   20791716.6254
 -12574188.13347  -9778463.93245  22006997.0704                   22006996.1764
 11  8 24  2 28 30.0000000  0  9G29G26G02G12G25G21G15G05G30
 -11796057.66848  -9181580.17946  21741094.7344                   21741093.1054
  -6434275.79347  -5002584.28245  22589260.1174                   22589258.9384
 -25771932.44947 -20061906.92445  22036035.5944                   22036031.1724
 -18891974.13348 -14702419.65746  22210136.8594                   22210134.9264
 -15803460.01247 -12295000.64446  21750145.5704                   21750145.8164
   8532011.64846   6656484.81443  25040541.1484                   25040538.6174
   1219217.93847    961317.76944  23438770.1174                   23438768.9494
 -24885991.64848 -19372509.94647  20795663.1644                   20795660.4494
 -12566092.47347  -9772155.64245  22008538.0944                   22008536.1254
 11  8 24  2 29  0.0000000  0  9G29G26G02G12G25G21G15G05G30
 -11903291.15248  -9265138.69846  21720688.8364                   21720687.1644
  -6550700.34847  -5093304.66245  22567105.4844                   22567104.1764
 -25762429.53547 -20054502.04345  22037843.8984                   22037839.9614
 -18842987.11347 -14664247.97246  22219458.5084                   22219456.7974
 -15804497.52747 -12295809.11346  21749948.1094                   21749948.5004
   8444013.28946   6587914.67943  25023795.6484                   25023793.9024
   1090701.37946    861175.02144  23414313.9844                   23414312.8444
 -24864873.96148 -19356054.59746  20799680.9614                   20799678.7934
 -12557514.70747  -9765471.68045  22010170.3984                   22010168.6644
 11  8 24  2 29 30.0000000  0  9G29G26G02G12G25G21G15G05G30
 -12010330.19548  -9348545.70646  21700320.0474                   21700318.2504
  -6666840.55147  -5183803.45045  22545004.3364                   22545003.3364
 -25752839.55948 -20047029.30745  22039668.8284                   22039664.5314
 -18793729.31647 -14625865.29546  22228832.0944                   22228830.1914
 -15805026.96548 -12296221.67346  21749847.5634                   21749847.5904
   8356015.16846   6519344.78943  25007050.4924                   25007048.3244
    962225.57746    761063.99344  23389865.8984                   23389864.7814
 -24843362.21148 -19339292.19046  20803774.8054                   20803772.1804
 -12548454.49248  -9758411.79745  22011894.4454                   22011892.7544
 11  8 24  2 30  0.0000000  0  9G29G26G02G12G25G21G15G05G30
 -12117171.66448  -9431798.75246  21679988.7814                   21679986.8594
  -6782691.75847  -5274077.04945  22522959.0234                   22522957.4884
 -25743161.35248 -20039487.84445  22041510.2814                   22041506.6334
 -18744203.00047 -14587273.37545  22238256.5084                   22238254.7194
 -15805049.16448 -12296238.97646  21749843.0234                   21749843.5234
   8268017.25845   6450774.96743  24990303.4614                   24990302.4264
    833794.51246    660988.04144  23365426.2584                   23365424.3954
 -24821457.44948 -19322223.55046  20807943.3134                   20807940.6914
 -12538913.27748  -9750977.07845  22013710.3364                   22013708.3244
 11  8 24  2 30 30.0000000  0  9G29G26G02G12G25G21G15G05G30
 -12223817.12948  -9514899.08846  21659695.1564                   21659692.7034
  -6898254.12147  -5364125.58845  22500967.5634                   22500966.9264
 -25733398.50448 -20031880.41345  22043368.3914                   22043364.0474
 -18694414.78548 -14548477.40845  22247731.1254                   22247729.0354
 -15804569.90648 -12295865.53846  21749934.6414                   21749934.8204
   8180015.31345   6382202.10542  24973556.9304                   24973555.8164
    705407.26846    560946.14144  23340994.1724                   23340993.4414
 -24799165.96148 -19304853.56546  20812185.0944                   20812182.7854
 -12528897.25848  -9743172.41145  22015616.0164                   22015614.4884
 11  8 24  2 31  0.0000000  0  9G29G26G02G12G25G21G15G05G30
 -12330264.61748  -9597845.13846  21639438.4144                   21639436.5514
  -7013524.09447  -5453946.28045  22479032.9454                   22479031.4774
 -25723551.22347 -20024207.17545  22045242.0784                   22045238.3164
 -18644368.30547 -14509480.16446  22257254.5164                   22257252.9694
 -15803591.23848 -12295102.94746  21750120.6564                   21750121.0474
   8092008.34045   6313625.31342  24956810.8284                   24956807.8714
    577066.95846    460940.71144  23316572.2424                   23316571.2734
 -24776490.64848 -19287184.48746  20816500.2584                   20816497.6134
 -12518409.06647  -9734999.81545  22017612.2274                   22017610.4574
 11  8 24  2 31 30.0000000  0  9G29G26G02G12G25G21G15G05G30
 -12436511.78148  -9680635.10646  21619220.3444                   21619218.1454
  -7128498.21147  -5543536.42945  22457153.9534                   22457152.4024
 -25713619.23847 -20016467.93845  22047131.8914                   22047127.8754
 -18594066.66847 -14470284.09746  22266826.6804                   22266824.7584
 -15802115.30548 -12293952.88346  21750401.2814                   21750401.8444
   8003995.93045   6245044.23442  24940062.5864                   24940059.7424
    448775.84246    360973.77244  23292158.9694                   23292157.7734
 -24753434.00848 -19269218.26646  20820887.4614                   20820885.2464
 -12507451.35547  -9726461.35645  22019697.1254                   22019695.5234
 11  8 24  2 32  0.0000000  0  9G29G26G02G12G25G21G15G05G30
 -12542557.91448  -9763268.42646  21599040.3284                   21599038.3794
  -7243174.31247  -5632894.38245  22435331.7194                   22435330.4534
 -25703603.79347 -20008663.68945  22049037.9694                   22049033.4734
 -18543514.22747 -14430892.62345  22276446.6254                   22276444.8444
 -15800145.53948 -12292417.99746  21750776.5944                   21750776.7934
   7915975.71545   6176457.07042  24923312.8204                   24923310.2894
    320536.00446    261046.63044  23267755.8284                   23267755.1564
 -24729999.76248 -19250957.82146  20825346.9614                   20825344.3984
 -12496027.97747  -9717560.02545  22021871.1334                   22021869.3794
 11  8 24  2 32 30.0000000  0  9G29G26G02G12G25G21G15G05G30
 -12648397.75048  -9845740.99146  21578899.5554                   21578897.3634
  -7357545.68047  -5722014.88745  22413567.0004                   22413565.8714
 -25693501.49248 -20000791.75645  22050960.1484                   22050955.9224
 -18492711.10947 -14391305.81045  22286113.9454                   22286112.1294
 -15797680.72748 -12290497.37146  21751245.2584                   21751246.0084
   7827950.26646   6107865.86742  24906561.7034                   24906559.2074
    192353.02746    161163.84944  23243363.3914                   23243362.2194
 -24706187.23848 -19232402.60946  20829878.2194                   20829875.9264
 -12484138.41048  -9708295.44245  22024133.3524                   22024131.6134
 11  8 24  2 33  0.0000000  0  9G29G26G02G12G25G21G15G05G30
 -12754029.36748  -9928051.31846  21558798.6254                   21558796.7544
  -7471609.37147  -5810895.62845  22391861.8754                   22391860.6454
 -25683312.88748 -19992852.57645  22052899.3834                   22052895.0864
 -18441660.95347 -14351526.48645  22295828.3914                   22295826.8164
 -15794723.76648 -12288193.25446  21751808.1804                   21751808.3634
   7739918.27746   6039269.51643  24889809.9224                   24889807.7704
     64229.59446     61327.47644  23218982.1954                   23218981.2734
 -24681999.59048 -19213555.09646  20834481.3364                   20834478.8594
 -12471785.78947  -9698670.04445  22026483.9304                   22026482.5984
 11  8 24  2 33 30.0000000  0  9G29G26G02G12G25G21G15G05G30
 -12859452.65248 -10010199.29446  21538737.1174                   21538735.1884
  -7585363.39147  -5899535.05545  22370215.2274                   22370213.6294
 -25673039.52348 -19984847.36345  22054854.2114                   22054849.9304
 -18390368.60947 -14311558.46545  22305589.1884                   22305587.6524
 -15791278.26648 -12285508.44846  21752463.4614                   21752463.8324
   7651877.64846   5970666.46542  24873056.9774                   24873054.0354
    -63833.13946    -38461.66044  23194612.5634                   23194611.4574
 -24657440.88348 -19194418.43746  20839154.5704                   20839152.2114
 -12458974.39847  -9688687.16145  22028921.4774                   22028919.9064
 11  8 24  2 34  0.0000000  0  9G29G26G02G12G25G21G15G05G30
 -12964660.60947 -10092179.48846  21518716.6884                   21518714.5314
  -7698799.77047  -5987926.99145  22348628.7734                   22348627.7894
 -25662676.80948 -19976772.52745  22056826.0004                   22056821.8754
 -18338832.80947 -14271400.71245  22315396.0084                   22315394.5084
 -15787341.82048 -12282441.08746  21753212.7114                   21753213.4844
   7563831.89546   5902059.36543  24856301.7584                   24856299.7544
   -191827.86146   -138197.74345  23170255.8204                   23170255.0744
 -24632509.02748 -19174991.02246  20843898.9614                   20843896.3204
 -12445702.35247  -9678345.29845  22031447.4694                   22031446.4574
 11  8 24  2 34 30.0000000  0  9G29G26G02G12G25G21G15G05G30
 -13069654.72748 -10173993.04846  21498736.9534                   21498734.6914
  -7811918.81647  -6076071.64745  22327102.8054                   22327101.8094
 -25652228.05547 -19968630.62945  22058814.5314                   22058810.0314
 -18287060.14847 -14231058.40545  22325248.3204                   22325246.2234
 -15782920.48848 -12278995.90746  21754054.0864                   21754054.5704
   7475776.52346   5833444.84243  24839546.1724                   24839543.4264
   -319755.80946   -237881.74244  23145911.8834                   23145911.1414
 -24607210.54348 -19155277.91646  20848713.1564                   20848711.0274
 -12431976.06647  -9667649.50145  22034059.6724                   22034058.4494
 11  8 24  2 35  0.0000000  0  9G29G26G02G12G25G21G15G05G30
 -13174427.51247 -10255634.14646  21478799.1804                   21478797.1724
  -7924711.70347  -6163962.15245  22305639.2344                   22305637.6954
 -25641688.01648 -19960417.59145  22060820.2734                   22060815.7894
 -18235048.72348 -14190530.05845  22335146.0394                   22335143.9694
 -15778011.16448 -12275170.45946  21754988.1094                   21754988.4454
   7387715.89546   5764826.17343  24822788.0084                   24822785.8364
   -447608.26246   -337506.91344  23121582.2664                   23121581.4224
 -24581542.77348 -19135277.05746  20853597.6954                   20853595.1994
 -12417792.89547  -9656597.69845  22036758.6414                   22036756.8364
 11  8 24  2 35 30.0000000  0  9G29G26G02G12G25G21G15G05G30
 -13278983.75448 -10337106.50346  21458902.8674                   21458900.9844
  -8037181.77047  -6251601.10445  22284236.9224                   22284235.3594
 -25631063.32848 -19952138.62445  22062841.8364                   22062837.7074
 -18182808.77047 -14149823.61445  22345086.7114                   22345084.6094
 -15772622.83248 -12270971.76046  21756013.6804                   21756014.1174
   7299642.98047   5696197.95943  24806028.6644                   24806026.7734
   -575389.21546   -437076.36945  23097266.5784                   23097265.8284
 -24555514.93048 -19114995.63346  20858550.6334                   20858548.0784
 -12403162.46947  -9645197.35645  22039542.5164                   22039540.8984
 11  8 24  2 36  0.0000000  0  9G29G26G02G12G25G21G15G05G30
 -13383315.35948 -10418403.82546  21439049.1644                   21439047.3164
  -8149319.33247  -6338981.00045  22262897.7814                   22262896.1954
 -25620347.84848 -19943788.88745  22064881.1484                   22064876.7304
 -18130337.45347 -14108936.89845  22355071.4224                   22355069.8674
 -15766751.79348 -12266396.93046  21757130.9384                   21757131.3954
   7211563.12947   5627564.32743  24789267.5784                   24789266.4844
   -703089.70846   -536583.24145  23072966.3284                   23072965.0904
 -24529123.78547 -19094431.10946  20863572.6804                   20863569.7274
 -12388081.48847  -9633445.95445  22042412.2814                   22042411.0274
 11  8 24  2 36 30.0000000  0  9G29G26G02G12G25G21G15G05G30
 -13487422.83248 -10499526.50346  21419238.2274                   21419236.1094
  -8261124.08247  -6426101.52945  22241621.6804                   22241620.4844
 -25609544.30547 -19935370.53845  22066937.2424                   22066932.6024
 -18077640.81647 -14067874.61945  22365099.0474                   22365097.4384
 -15760403.25048 -12261450.02546  21758338.8134                   21758339.8244
   7123472.39847   5558922.22444  24772504.6334                   24772503.1254
   -830710.46946   -636027.96344  23048680.1564                   23048679.2544
 -24502374.28548 -19073587.35346  20868662.6254                   20868660.2424
 -12372555.57447  -9621347.85845  22045367.0634                   22045365.3204
 11  8 24  2 37  0.0000000  0  9G29G26G02G12G25G21G15G05G30
 -13591305.77048 -10580474.21846  21399469.6024                   21399467.8164
  -8372594.32047  -6512961.40845  22220409.7734                   22220408.2734
 -25598654.02348 -19926884.61545  22069009.0394                   22069004.9734
 -18024723.96147 -14026640.72745  22375168.8524                   22375166.8984
 -15753581.16848 -12256134.13246  21759637.1174                   21759637.8834
   7035368.26246   5490269.68643  24755738.7734                   24755737.5904
   -958249.56646   -735408.99145  23024410.3444                   23024409.6844
 -24475271.12948 -19052468.01246  20873820.4924                   20873817.9104
 -12356589.20747  -9608906.52845  22048405.4774                   22048403.7464
 11  8 24  2 37 30.0000000  0  9G29G26G02G12G25G21G15G05G30
 -12119534.24648  -9433639.22846  21679538.2664                   21679536.5634
  -6908298.34847  -5371951.50645  22499056.3284                   22499054.5634
 -24012253.09847 -18690728.06645  22370891.3134                   22370886.9494
 -16396167.32047 -12757635.57545  22685073.3754                   22685071.3134
 -14170863.80948 -11022847.86946  22060818.3834                   22060818.8874
   8522677.46546   6649211.99743  25038764.2194                   25038762.9694
    489724.21546    392882.31645  23299950.6484                   23299949.6484
 -22872393.57048 -17803472.52446  21178838.1094                   21178835.6724
 -10764761.44547  -8368521.26945  22351320.0234                   22351318.4614
 11  8 24  2 38  0.0000000  0  9G29G26G02G12G25G21G15G05G30
 -12222955.64848  -9514227.31446  21659857.6484                   21659856.1914
  -7019082.91047  -5458277.09345  22477974.6334                   22477973.0664
 -24001183.34447 -18682102.29245  22372997.9694                   22372993.7464
 -16342813.09447 -12716060.87445  22695226.3524                   22695224.1994
 -14163095.64548 -11016794.77246  22062296.5004                   22062296.9694
   8434550.80946   6580541.93444  25021994.8054                   25021992.8014
    362362.25046    293639.27945  23275714.6564                   23275713.6024
 -22844584.96548 -17781803.49746  21184129.8524                   21184127.0634
 -10747916.61347  -8355395.43145  22354525.3444                   22354523.9454
 11  8 24  2 38 30.0000000  0  9G29G26G02G12G25G21G15G05G30
 -12326142.62148  -9594632.69846  21640222.3284                   21640220.3874
  -7129519.09847  -5544331.20545  22456959.2734                   22456957.6134
 -23990023.41847 -18673406.25445  22375121.2034                   22375117.0864
 -16289244.88347 -12674319.42845  22705419.7734                   22705418.2464
 -14154857.67648 -11010375.58946  22063864.2424                   22063864.4304
   8346412.09046   6511862.44843  25005221.6724                   25005220.3484
    235093.87946    194469.18145  23251495.4924                   23251494.9774
 -22816427.11748 -17759862.33246  21189487.8674                   21189485.5084
 -10730636.41047  -8341930.35845  22357813.4224                   22357812.2034
 11  8 24  2 39  0.0000000  0  9G29G26G02G12G25G21G15G05G30
 -12429095.64148  -9674855.83346  21620631.1024                   21620628.7734
  -7239606.22747  -5630113.33845  22436010.0634                   22436008.9384
 -23978775.74647 -18664641.82845  22377261.8914                   22377257.3134
 -16235468.29347 -12632415.63145  22715653.6484                   22715651.3134
 -14146154.96948 -11003594.26846  22065520.4844                   22065520.7854
   8258257.71946   6443170.77943  24988446.9454                   24988445.2274
    107919.04746     95371.96045  23227295.7274                   23227294.4884
 -22787925.39548 -17737653.22246  21194911.5314                   21194909.0864
 -10712926.47347  -8328130.41345  22361183.9224                   22361182.4804
 11  8 24  2 39 30.0000000  0  9G29G26G02G12G25G21G15G05G30
 -12531810.25848  -9754893.16246  21601085.3524                   21601083.1684
  -7349338.65647  -5715619.08745  22415128.9064                   22415127.5784
 -23967438.08247 -18655807.28545  22379418.9064                   22379414.8404
 -16181485.04347 -12590350.78645  22725926.0234                   22725924.1334
 -14136987.76248 -10996450.99846  22067264.6174                   22067265.2504
   8170089.12146   6374468.03643  24971668.2504                   24971666.6954
    -19157.25046     -3648.48145  23203113.9304                   23203112.7814
 -22759080.18048 -17715176.44646  21200400.6024                   21200398.6524
 -10694787.39147  -8313996.06945  22364635.2584                   22364634.3364
 11  8 24  2 40  0.0000000  0  9G29G26G02G12G25G21G15G05G30
 -12634281.53948  -9834740.88146  21581585.3524                   21581582.9064
  -7458710.19547  -5800843.61345  22394315.8444                   22394314.4304
 -23956007.31247 -18646900.19645  22381594.5004                   22381590.4224
 -16127295.17647 -12548124.96045  22736238.3054                   22736236.0354
 -14127355.57448 -10988945.41746  22069097.6024                   22069098.1374
   8081908.58646   6305755.99143  24954887.7504                   24954886.6174
   -146129.14046   -102587.62045  23178951.4304                   23178950.5904
 -22729891.16048 -17692431.76346  21205955.4304                   21205953.1764
 -10676219.09447  -8299527.26245  22368169.0474                   22368167.6684
 11  8 24  2 40 30.0000000  0  9G29G26G02G12G25G21G15G05G30
 -12736507.50048  -9914397.45146  21562132.5314                   21562130.0124
  -7567717.77747  -5885784.54345  22373572.0704                   22373570.8014
 -23944483.48047 -18637920.60645  22383787.6094                   22383783.5234
 -16072902.32847 -12505740.94945  22746588.8444                   22746586.7504
 -14117261.21948 -10981079.69546  22071018.2664                   22071019.2424
   7993714.95746   6237033.77843  24938105.3054                   24938104.1644
   -272994.03146   -201443.27645  23154810.2034                   23154808.8404
 -22700361.52048 -17669421.66346  21211574.7274                   21211572.1564
 -10657224.98447  -8284726.66845  22371783.6094                   22371782.3834
 11  8 24  2 41  0.0000000  0  9G29G26G02G12G25G21G15G05G30
 -12838485.45748  -9993860.76246  21542726.4844                   21542724.4574
  -7676357.58247  -5970438.88945  22352899.0004                   22352897.4884
 -23932866.07048 -18628868.09745  22385998.1414                   22385994.3594
 -16018309.13347 -12463200.83045  22756977.3834                   22756975.5514
 -14106706.66448 -10972855.37946  22073027.0944                   22073027.6764
   7905507.99246   6168301.10043  24921319.8444                   24921318.7464
   -399748.75846   -300213.15245  23130689.7424                   23130688.6094
 -22670493.28148 -17646147.71946  21217258.2974                   21217255.8324
 -10637807.39847  -8269596.09645  22375478.4144                   22375477.1414
 11  8 24  2 41 30.0000000  0  9G29G26G02G12G25G21G15G05G30
 -12940214.51648 -10073130.13946  21523368.2584                   21523365.8094
  -7784627.02347  -6054804.64545  22332295.7894                   22332294.1724
 -23921155.85247 -18619743.25345  22388226.3134                   22388222.3054
 -15963519.89547 -12420507.94845  22767403.8204                   22767401.2384
 -14095695.36748 -10964275.16546  22075122.3754                   22075123.1054
   7817285.86746   6099556.68443  24904532.0394                   24904530.2304
   -526391.23046   -398895.55745  23106590.1414                   23106589.1764
 -22640289.97748 -17622612.69446  21223006.0084                   21223003.2584
 -10617970.18747  -8254138.53845  22379253.6724                   22379252.2934
 11  8 24  2 42  0.0000000  0  9G29G26G02G12G25G21G15G05G30
 -13041696.42648 -10152206.93146  21504057.0164                   21504054.6914
  -7892526.45747  -6138882.09245  22311763.1024                   22311761.4734
 -23909356.59447 -18610549.05545  22390472.0864                   22390467.6914
 -15908541.76647 -12377667.88545  22777865.4844                   22777863.1724
 -14084233.63748 -10955343.96046  22077303.4144                   22077303.8874
   7729044.28546   6030797.00943  24887740.2974                   24887738.9064
   -652922.22346   -497491.08545  23082512.3594                   23082511.2034
 -22609758.15648 -17598821.66946  21228815.9924                   21228813.3054
 -10597720.18047  -8238359.31945  22383106.7194                   22383105.6914
 11  8 24  2 42 30.0000000  0  9G29G26G02G12G25G21G15G05G30
 -13142922.60948 -10231084.44746  21484793.9534                   21484791.9494
  -8000046.89147  -6222664.19145  22291302.8284                   22291301.0234
 -23897462.18447 -18601280.70045  22392735.3364                   22392731.3094
 -15853372.04347 -12334678.51945  22788363.9144                   22788362.2034
 -14072318.15248 -10946059.17946  22079570.9224                   22079571.3204
   7640788.27046   5962026.13743  24870945.5394                   24870944.1564
   -779333.39146   -595993.26345  23058456.8284                   23058455.4574
 -22578894.57448 -17574772.13846  21234689.1024                   21234686.3834
 -10577054.43447  -8222256.15145  22387039.6024                   22387038.4304
 11  8 24  2 43  0.0000000  0  9G29G26G02G12G25G21G15G05G30
 -13243892.76648 -10309762.46446  21465580.1414                   21465578.1684
  -8107186.34847  -6306149.43845  22270914.6804                   22270913.1564
 -23885474.00847 -18591939.26345  22395016.7034                   22395012.4884
 -15798015.90247 -12291543.88145  22798897.4924                   22798895.7974
 -14059953.09848 -10936424.08546  22081923.8674                   22081924.6724
   7552515.49246   5893242.18643  24854148.4614                   24854145.9104
   -905623.11746   -694400.77845  23034424.5474                   23034423.4534
 -22547703.50048 -17550467.41046  21240624.5944                   21240621.6914
 -10555977.53547  -8205832.58945  22391050.2034                   22391048.8284
 11  8 24  2 43 30.0000000  0  9G29G26G02G12G25G21G15G05G30
 -13344609.04748 -10388242.65346  21446414.3674                   21446412.1684
  -8213945.98047  -6389338.71645  22250599.0004                   22250597.6174
 -23873396.28547 -18582528.03745  22397315.0084                   22397311.2234
 -15742480.83647 -12248269.84545  22809466.1024                   22809464.2384
 -14047145.37148 -10926444.06246  22084361.1884                   22084361.5084
   7464220.77746   5824441.19243  24837346.2584                   24837343.6644
  -1031792.90646   -792714.85145  23010415.0784                   23010413.9414
 -22516192.12548 -17525913.09246  21246620.6644                   21246618.3984
 -10534496.88747  -8189094.42445  22395138.2504                   22395136.4734
 11  8 24  2 44  0.0000000  0 10G29G26G02G12G25G21G15G05G30G18
 -13445066.28148 -10466520.99446  21427298.1334                   21427296.2894
  -8320319.62547  -6472227.23445  22230356.9224                   22230355.2234
 -23861225.95347 -18573044.67045  22399630.8524                   22399626.7114
 -15686766.95747 -12204856.46645  22820068.0394                   22820065.9064
 -14033894.65248 -10916118.84746  22086882.8524                   22086883.1174
   7375906.28946   5755624.74943  24820540.3594                   24820538.0944
  -1157837.05146   -890931.01845  22986430.0234                   22986428.8524
 -22484360.21148 -17501109.01046  21252678.1024                   21252675.8874
 -10512612.52347  -8172041.66945  22399302.2664                   22399301.0474
  10849931.79756   8465605.25453  24737819.2974                   24737818.1294
 11  8 24  2 44 30.0000000  0 10G29G26G02G12G25G21G15G05G30G18
 -13545266.18448 -10544598.79646  21408230.6174                   21408228.7304
  -8426307.69547  -6554815.29945  22210187.9454                   22210186.3284
 -23848966.91447 -18563492.16145  22401963.8594                   22401959.4844
 -15630881.57847 -12161309.45345  22830702.7034                   22830700.4924
 -14020207.50448 -10905453.54746  22089487.2734                   22089487.7074
   7287567.68046   5686789.48543  24803730.0864                   24803727.5204
  -1283756.84446   -989050.28545  22962467.5084                   22962466.7274
 -22452214.26248 -17476060.21346  21258795.3054                   21258793.3674
 -10490331.41847  -8154679.77745  22403542.5704                   22403541.2974
  10728443.56346   8370939.21943  24714700.4694                   24714699.4414
 11  8 24  2 45  0.0000000  0 10G29G26G02G12G25G21G15G05G30G18
 -13645211.57048 -10622478.27946  21389211.8284                   21389209.4454
  -8531911.98047  -6637104.31045  22190092.1094                   22190090.5824
 -23836623.79748 -18553874.16345  22404312.9064                   22404308.2544
 -15574833.18747 -12117635.40145  22841367.9844                   22841366.0634
 -14006091.51648 -10894454.08246  22092173.6644                   22092173.7584
   7199199.03946   5617930.89443  24786914.3364                   24786911.2974
  -1409554.12546  -1087074.10645  22938529.6564                   22938528.4384
 -22419761.83648 -17450772.61046  21264970.9844                   21264968.4024
 -10467661.64147  -8137015.01845  22407856.4694                   22407854.9694
  10607112.41846   8276395.56143  24691612.6804                   24691610.6844
 11  8 24  2 45 30.0000000  0 10G29G26G02G12G25G21G15G05G30G18
 -13744898.77048 -10700156.57446  21370241.8444                   21370239.7584
  -8637127.60947  -6719090.47945  22170070.3134                   22170068.5044
 -23824194.60548 -18544189.07045  22406678.1024                   22406673.4844
 -15518623.23047 -12073835.46645  22852064.6174                   22852063.1024
 -13991547.63748 -10883121.20346  22094941.3364                   22094941.6214
   7110801.39146   5549049.62143  24770092.7344                   24770089.6094
  -1535224.12946  -1184998.71245  22914615.5474                   22914614.1644
 -22387004.01648 -17425247.03846  21271204.3594                   21271202.1604
 -10444604.43447  -8119048.38945  22412243.8594                   22412242.3594
  10485940.72346   8181976.18043  24668553.9224                   24668553.1174
 11  8 24  2 46  0.0000000  0 10G29G26G02G12G25G21G15G05G30G18
 -13844318.48048 -10777626.44046  21351322.9454                   21351320.7034
  -8741944.30947  -6800765.78345  22150124.2034                   22150122.2544
 -23811672.38748 -18534431.50845  22409060.7894                   22409056.6374
 -15462248.11747 -12029906.84245  22862792.7584                   22862790.4534
 -13976571.53148 -10871451.52646  22097791.1484                   22097791.7504
   7022380.71546   5480150.43643  24753266.8524                   24753264.2734
  -1660757.14546  -1282816.60245  22890727.2584                   22890725.6764
 -22353936.55148 -17399480.18046  21277497.0084                   21277494.7774
 -10421156.00047  -8100776.89145  22416706.0634                   22416704.8284
  10364936.75446   8087687.56543  24645526.8674                   24645525.7304
 11  8 24  2 46 30.0000000  0 10G29G26G02G12G25G21G15G05G30G18
 -13943467.53548 -10854885.40746  21332455.2814                   21332453.0354
  -8846357.66447  -6882126.81345  22130254.8984                   22130253.5744
 -23799056.25448 -18524600.77645  22411461.8984                   22411457.5354
 -15405710.05947 -11985851.23545  22873551.5234                   22873549.5824
 -13961165.02748 -10859446.49146  22100722.8054                   22100723.0164
   6933937.26246   5411233.52143  24736436.8204                   24736433.6334
  -1786149.52747  -1380524.88245  22866865.8754                   22866864.3914
 -22320561.17648 -17373473.38746  21283848.2974                   21283845.8674
 -10397318.46547  -8082202.19945  22421242.4844                   22421240.6294
  10244102.69946   7993531.29342  24622532.6804                   24622531.4694
 11  8 24  2 47  0.0000000  0 10G29G26G02G12G25G21G15G05G30G18
 -14042342.98848 -10931931.17946  21313640.1094                   21313637.8014
  -8950363.73847  -6963170.46345  22110463.0784                   22110461.5084
 -23786345.01648 -18514695.93545  22413880.2424                   22413875.8244
 -15349011.60247 -11941670.64645  22884341.0394                   22884339.2734
 -13945329.94548 -10847107.47646  22103736.1804                   22103736.7624
   6845471.38346   5342299.12643  24719602.0554                   24719599.3914
  -1911397.36747  -1478120.54145  22843031.8444                   22843030.5784
 -22286879.53548 -17347227.95546  21290257.3134                   21290254.9264
 -10373094.10247  -8063326.08945  22425852.2584                   22425850.6374
  10123440.24645   7899508.64542  24599571.3444                   24599569.8244
 11  8 24  2 47 30.0000000  0 10G29G26G02G12G25G21G15G05G30G18
 -14140942.16048 -11008761.66846  21294877.1724                   21294875.2504
  -9053958.41847  -7043893.56745  22090749.4534                   22090747.9414
 -23773537.87948 -18504716.34145  22416317.7814                   22416313.2584
 -15292155.57447 -11897367.30545  22895159.9924                   22895159.0044
 -13929068.42248 -10834436.17346  22106830.5164                   22106831.0944
   6756982.46546   5273346.78643  24702763.2424                   24702760.8324
  -2036497.19147  -1575600.85745  22819226.0864                   22819224.9614
 -22252894.03148 -17320745.72946  21296724.8674                   21296721.9304
 -10348485.42647  -8044150.50545  22430534.8284                   22430533.2974
  10002951.34846   7805621.32842  24576643.1484                   24576641.1804
 11  8 24  2 48  0.0000000  0 10G29G26G02G12G25G21G15G05G30G18
 -14239259.52048 -11085372.55846  21276167.9844                   21276166.0704
  -9157135.60947  -7124291.34445  22071115.5314                   22071114.0744
 -23760631.30548 -18494659.28145  22418773.5704                   22418769.2424
 -15235141.87947 -11852941.07945  22906010.0234                   22906007.9184
 -13912379.87948 -10821432.12746  22110006.3674                   22110006.8794
   6668473.56346   5204378.89043  24685920.2584                   24685918.0234
  -2161442.83647  -1672961.05045  22795449.9694                   22795448.5944
 -22218604.30948 -17294026.46346  21303250.0704                   21303247.5234
 -10323492.19947  -8024675.29245  22435291.0234                   22435289.3444
   9882639.92246   7711872.28942  24553748.4064                   24553746.3484
 11  8 24  2 48 30.0000000  0 10G29G26G02G12G25G21G15G05G30G18
 -14337295.96548 -11161764.56246  21257512.2504                   21257510.3634
  -9259894.82047  -7204363.42845  22051561.3204                   22051559.6564
 -23747628.30547 -18484527.10445  22421248.1484                   22421243.8324
 -15177976.86747 -11808396.94345  22916888.1644                   22916886.4844
 -13895270.17248 -10808099.91146  22113262.3054                   22113262.6764
   6579940.69146   5135392.36843  24669072.7114                   24669070.3484
  -2286234.78147  -1770201.46745  22771702.5004                   22771701.3754
 -22184015.38748 -17267074.06046  21309832.3134                   21309829.8484
 -10298120.73847  -8004905.33545  22440119.1024                   22440117.7774
   9762503.98046   7618259.97742  24530887.4454                   24530885.0044
 11  8 24  2 49  0.0000000  0 10G29G26G02G12G25G21G15G05G30G18
 -14435050.41048 -11237936.82846  21238910.0944                   21238907.9144
  -9362233.64147  -7284107.92745  22032086.9454                   22032085.1024
 -23734529.54347 -18474320.28745  22423740.2734                   22423735.7774
 -15120664.71947 -11763738.16745  22927793.6724                   22927792.8484
 -13877742.91048 -10794442.33546  22116597.5784                   22116598.0904
   6491382.18446   5066385.86443  24652220.1024                   24652218.3834
  -2410870.58247  -1867320.20945  22747985.2894                   22747983.6954
 -22149131.32848 -17239891.67746  21316470.1804                   21316467.8364
 -10272375.01247  -7984843.75945  22445018.4614                   22445016.8874
   9642543.85546   7524784.68842  24508059.6884                   24508057.6884
 11  8 24  2 49 30.0000000  0 10G29G26G02G12G25G21G15G05G30G18
 -14532515.69548 -11313883.77046  21220362.9384                   21220360.7424
  -9464144.59047  -7363519.04345  22012694.1804                   22012692.0434
 -23721329.90647 -18464034.87145  22426252.1414                   22426248.0984
 -15063204.03947 -11718963.64445  22938728.6564                   22938726.9494
 -13859796.18748 -10780457.89846  22120012.6644                   22120013.0234
   6402802.07046   4997362.44943  24635364.1724                   24635361.7194
  -2535343.06647  -1964311.69945  22724298.4614                   22724297.3754
 -22113949.99648 -17212477.65446  21323164.7504                   21323162.6094
 -10246253.43747  -7964489.32645  22449989.1884                   22449987.4804
   9522765.27046   7431450.84343  24485266.3914                   24485265.0514
 11  8 24  2 50  0.0000000  0 10G29G26G02G12G25G21G15G05G30G18
 -14629692.62548 -11389606.02646  21201870.5864                   21201868.7274
  -9565627.12947  -7442596.30545  21993382.4774                   21993380.5164
 -23708032.55947 -18453673.31545  22428782.8674                   22428778.5634
 -15005600.89147 -11674078.11345  22949689.6564                   22949688.3404
 -13841435.73448 -10766151.07646  22123506.7274                   22123507.1764
   6314196.79346   4928319.51843  24618502.7664                   24618501.2424
  -2659651.88347  -2061175.63645  22700643.1884                   22700642.2734
 -22078477.15248 -17184836.47646  21329915.2424                   21329912.9574
 -10219762.17647  -7943846.82145  22455030.3524                   22455028.5514
   9403166.07446   7338256.75243  24462507.4534                   24462505.7774
 11  8 24  2 50 30.0000000  0 10G29G26G02G12G25G21G15G05G30G18
 -14726580.30548 -11465102.90046  21183433.8674                   21183431.3054
  -9666679.32847  -7521338.25945  21974152.3284                   21974151.0594
 -23694638.34847 -18443236.30645  22431331.6334                   22431327.0124
 -14947860.30947 -11629085.49945  22960677.5704                   22960676.2504
 -13822665.51648 -10751524.95646  22127078.6724                   22127079.2034
   6225564.34046   4859255.34143  24601636.9384                   24601635.2464
  -2783795.41047  -2157910.79945  22677019.8204                   22677017.9184
 -22042716.86348 -17156971.32146  21336720.1804                   21336717.9024
 -10192905.56247  -7922919.60045  22460140.7114                   22460139.3914
   9283746.25446   7245202.46943  24439782.5314                   24439781.2934
 11  8 24  2 51  0.0000000  0 10G29G26G02G12G25G21G15G05G30G18
 -14823172.15248 -11540369.23846  21165052.9304                   21165050.3364
  -9767293.49248  -7599738.87345  21955006.9224                   21955004.6914
 -23681142.60247 -18432720.16145  22433899.7194                   22433895.5744
 -14889980.60547 -11583984.46245  22971691.8364                   22971690.2774
 -13803483.89148 -10736578.25046  22130728.4844                   22130729.1564
   6136908.42246   4790172.94143  24584766.5704                   24584764.1174
  -2907766.23847  -2254511.38445  22653428.4924                   22653427.3714
 -22006667.16048 -17128880.63946  21343580.7734                   21343577.4104
 -10165682.23847  -7901706.65445  22465321.4844                   22465319.7154
   9164511.17647   7152292.19543  24417093.3914                   24417091.4344
 11  8 24  2 51 30.0000000  0 10G29G26G02G12G25G21G15G05G30G18
 -14919471.05148 -11615407.31646  21146727.5784                   21146725.8324
  -9867471.56647  -7677799.67745  21935943.3134                   21935941.7154
 -23667550.08647 -18422128.63345  22436486.1564                   22436482.0084
 -14831970.44147 -11538781.76845  22982730.9924                   22982729.0664
 -13783898.87948 -10721317.21646  22134455.6094                   22134456.1134
   6048223.14846   4721067.60843  24567890.0234                   24567887.4614
  -3031566.95347  -2350979.43145  22629870.2974                   22629869.0044
 -21970335.78548 -17100570.46546  21350494.0784                   21350491.1524
 -10138100.69547  -7880214.57745  22470569.8834                   22470568.3954
   9045456.78146   7059522.65743  24394437.4694                   24394436.2034
 11  8 24  2 52  0.0000000  0 10G29G26G02G12G25G21G15G05G30G18
 -15015474.39848 -11690215.08946  21128459.2664                   21128456.9384
  -9967209.93747  -7755517.86245  21916963.1954                   21916962.0554
 -23653860.25447 -18411461.25645  22439091.5634                   22439087.1564
 -14773832.63747 -11493479.62645  22993794.2814                   22993792.1684
 -13763912.87148 -10705743.72846  22138258.8914                   22138259.5594
   5959508.32846   4651939.24243  24551008.4144                   24551006.2934
  -3155194.20347  -2447312.28045  22606344.7344                   22606342.8954
 -21933725.00048 -17072042.58646  21357460.0944                   21357457.8244
 -10110163.68047  -7858445.49345  22475886.2894                   22475884.7934
   8926584.22746   6966894.81843  24371816.3984                   24371815.1024
 11  8 24  2 52 30.0000000  0 10G29G26G02G12G25G21G15G05G30G18
 -15111177.30948 -11764788.77146  21110246.8674                   21110245.1134
 -10066503.11748  -7832889.13945  21898068.5234                   21898066.8834
 -23640070.37947 -18400715.93545  22441715.7114                   22441711.7734
 -14715567.75047 -11448078.46845  23004881.9534                   23004879.8484
 -13743526.19148 -10689858.01146  22142138.4694                   22142139.0554
   5870765.91446   4582789.38243  24534120.5394                   24534118.7934
  -3278642.33247  -2543505.58745  22582853.0944                   22582851.7464
 -21896834.88748 -17043297.04246  21364480.7114                   21364477.8284
 -10081871.70747  -7836399.84345  22481269.7274                   22481268.4614
   8807897.25446   6874411.57943  24349230.7114                   24349230.1454
 11  8 24  2 53  0.0000000  0 10G29G26G02G12G25G21G15G05G30G18
 -15206576.74248 -11839125.97046  21092093.1804                   21092091.1994
 -10165346.73047  -7909910.11345  21879259.6954                   21879258.0864
 -23626179.16447 -18389891.65345  22444359.1884                   22444354.9304
 -14657178.02747 -11402580.00545  23015992.6644                   23015990.7464
 -13722740.53948 -10673661.41146  22146093.6334                   22146094.2894
   5781996.25046   4513618.28943  24517227.9454                   24517226.0164
  -3401907.11747  -2639556.01045  22559396.6414                   22559395.1604
 -21859667.38348 -17014335.34946  21371553.4614                   21371550.9344
 -10053227.00447  -7814079.33545  22486720.5394                   22486719.7194
   8689397.93046   6782074.58243  24326681.9614                   24326679.9574
 11  8 24  2 53 30.0000000  0 10G29G26G02G12G25G21G15G05G30G18
 -15301672.25047 -11913226.35246  21073997.0314                   21073995.3594
 -10263739.35548  -7986579.66545  21860536.1094                   21860534.4344
 -23612188.10247 -18378989.55645  22447021.4144                   22447017.4264
 -14598668.53147 -11356988.23045  23027127.1094                   23027124.6294
 -13701560.56248 -10657157.54946  22150124.3834                   22150124.5354
   5693196.82446   4444423.99743  24500330.3204                   24500328.0554
  -3524987.67647  -2735462.89345  22535975.2504                   22535973.5594
 -21822226.59448 -16985160.70246  21378678.1484                   21378675.6644
 -10024234.41447  -7791487.71445  22492238.1564                   22492236.9654
   8571085.42246   6689883.14043  24304166.8674                   24304165.3244
 11  8 24  2 54  0.0000000  0 10G29G26G02G12G25G21G15G05G30G18
 -15396461.35247 -11987087.96446  21055959.6174                   21055957.1954
 -10361677.84847  -8062895.32945  21841898.7734                   21841897.4494
 -23598096.88347 -18368009.43245  22449702.8134                   22449698.6644
 -14540042.53547 -11311305.64345  23038282.8594                   23038281.3094
 -13679989.05148 -10640348.58146  22154229.2424                   22154229.9494
   5604367.00446   4375205.98743  24483426.3834                   24483424.0864
  -3647880.98847  -2831223.86445  22512589.4224                   22512587.7464
 -21784515.15648 -16955775.15946  21385854.2194                   21385851.9384
  -9994897.12947  -7768627.50645  22497820.5634                   22497819.8324
   8452960.91046   6597838.19843  24281688.1884                   24281687.2544
 11  8 24  2 54 30.0000000  0 10G29G26G02G12G25G21G15G05G30G18
 -15490939.47348 -12060707.26746  21037980.7034                   21037978.4344
 -10459156.49247  -8138852.69045  21823349.1414                   21823347.8284
 -23583902.36747 -18356948.81345  22452403.9384                   22452400.1414
 -14481300.51247 -11265532.66645  23049460.8674                   23049459.5204
 -13658026.25048 -10623234.71246  22158408.4144                   22158409.0434
   5515509.30946   4305966.28243  24466517.5164                   24466515.0234
  -3770581.56247  -2926834.64945  22489240.3834                   22489238.5234
 -21746533.32848 -16926178.92246  21393082.0864                   21393079.6454
  -9965215.72747  -7745499.15245  22503468.8594                   22503467.3954
   8335027.72346   6505942.32343  24259246.2194                   24259244.9964
 11  8 24  2 55  0.0000000  0 10G29G26G02G12G25G21G15G05G30G18
 -15585104.05147 -12134082.24446  21020061.7194                   21020059.5124
 -10556171.71147  -8214448.92845  21804887.9064                   21804886.0354
 -23569604.42647 -18345807.57145  22455124.8674                   22455120.8324
 -14422445.51247 -11219671.67245  23060661.0864                   23060659.3634
 -13635674.82848 -10605818.03946  22162662.0864                   22162662.4184
   5426622.96946   4236704.30043  24449602.9224                   24449600.1214
  -3893085.88347  -3022292.50945  22465927.8914                   22465926.7384
 -21708283.31648 -16896373.72546  21400360.6254                   21400358.2384
  -9935193.28147  -7722105.04645  22509181.8524                   22509180.7854
   8217287.22346   6414196.63543  24236841.2734                   24236839.2734
 11  8 24  2 55 30.0000000  0 10G29G26G02G12G25G21G15G05G30G18
 -15678955.71547 -12207213.40046  21002202.5784                   21002200.0984
 -10652723.55947  -8289684.11645  21786514.4614                   21786512.8484
 -23555205.81247 -18334587.91145  22457864.9144                   22457861.0864
 -14363483.60947 -11173727.37845  23071880.5474                   23071879.3524
 -13612940.65248 -10588103.10046  22166988.0634                   22166988.4614
   5337703.94546   4167416.77943  24432681.8594                   24432679.1764
  -4015394.38347  -3117597.78145  22442653.8594                   22442652.2704
 -21669770.60948 -16866363.81146  21407689.3834                   21407687.0514
  -9904835.87147  -7698449.94545  22514958.6804                   22514957.6214
   8099737.36746   6322599.46143  24214472.3444                   24214469.9574
 11  8 24  2 56  0.0000000  0 10G29G26G02G12G25G21G15G05G30G18
 -15772489.97348 -12280097.23246  20984403.7034                   20984401.3094
 -10748806.38747  -8364553.81845  21768230.6414                   21768229.1134
 -23540703.71147 -18323287.58945  22460625.0234                   22460620.8364
 -14304415.77047 -11127700.52345  23083121.5084                   23083119.9064
 -13589824.05547 -10570090.17446  22171387.2664                   22171387.5744
   5248754.57046   4098105.63343  24415754.9224                   24415753.0474
  -4137501.44147  -3212746.08045  22419417.4304                   22419416.1524
 -21630995.57448 -16836149.49546  21415067.9924                   21415065.5474
  -9874144.15247  -7674534.32145  22520799.4384                   22520797.7544
   7982381.50446   6231153.40643  24192140.2114                   24192138.6414
 11  8 24  2 56 30.0000000  0 10G29G26G02G12G25G21G15G05G30G18
 -15865701.16448 -12352729.31246  20966666.1954                   20966663.9574
 -10844413.58647  -8439052.90545  21750037.1174                   21750035.6454
 -23526094.02347 -18311903.44645  22463404.6094                   22463400.7194
 -14245241.45347 -11081590.70445  23094382.1564                   23094380.3444
 -13566324.54747 -10551778.88046  22175858.7584                   22175859.0164
   5159777.56646   4028772.95143  24398823.6884                   24398821.3284
  -4259400.58247  -3307732.38045  22396220.8754                   22396219.1094
 -21591957.16848 -16805729.95646  21422496.8054                   21422494.1764
  -9843118.11347  -7650358.18545  22526703.2034                   22526702.1254
   7865224.40646   6139862.25743  24169845.7974                   24169843.4064
 11  8 24  2 57  0.0000000  0 10G29G26G02G12G25G21G15G05G30G18
 -15958589.68748 -12425109.96146  20948990.0784                   20948987.4104
 -10939545.02047  -8513181.27145  21731934.0864                   21731932.3524
 -23511379.66047 -18300437.72145  22466205.0944                   22466200.7894
 -14185966.90647 -11035402.79545  23105661.5944                   23105660.1294
 -13542447.80547 -10533173.64446  22180402.0634                   22180402.7114
   5070769.45346   3959416.06043  24381885.6644                   24381883.3954
  -4381091.62547  -3402556.51145  22373063.8524                   22373062.0944
 -21552660.81248 -16775109.40746  21429974.8364                   21429972.2194
  -9811763.57447  -7625926.08045  22532669.8444                   22532668.4924
   7748263.99247   6048724.33743  24147589.6954                   24147587.1294
 11  8 24  2 57 30.0000000  0 10G29G26G02G12G25G21G15G05G30G18
 -16051157.00847 -12497240.32846  20931375.2814                   20931373.0234
 -11034201.14147  -8586939.25745  21713921.8524                   21713920.1294
 -23496563.49647 -18288892.70045  22469024.5784                   22469020.2814
 -14126598.66847 -10989141.86045  23116958.8444                   23116957.0784
 -13518200.17247 -10514279.38845  22185016.1414                   22185017.1454
   4981726.70346   3890032.18143  24364941.2734                   24364938.9924
  -4502575.18047  -3497218.99545  22349946.2734                   22349944.2854
 -21513112.81648 -16744292.78546  21437500.3284                   21437497.7624
  -9780087.26247  -7601243.24645  22538697.6414                   22538696.4734
   7631497.58646   5957737.60343  24125368.6724                   24125366.3244
 11  8 24  2 58  0.0000000  0 10G29G26G02G12G25G21G15G05G30G18
 -16143396.12548 -12569114.94746  20913822.3284                   20913820.2774
 -11128374.60247  -8660321.16145  21696001.0864                   21695999.2814
 -23481641.09448 -18277264.87945  22471864.1804                   22471860.1214
 -14067135.68047 -10942807.12745  23128274.2114                   23128272.6254
 -13493580.52747 -10495095.26046  22189700.7734                   22189702.1334
   4892652.39146   3820623.70343  24347991.1024                   24347988.8794
  -4623844.05947  -3591714.16645  22326869.4534                   22326867.3674
 -21473311.54748 -16713278.81046  21445074.2734                   21445072.1484
  -9748088.32447  -7576309.01745  22544786.5234                   22544785.4574
   7514930.23447   5866906.02343  24103186.5394                   24103184.3134
 11  8 24  2 58 30.0000000  0 10G29G26G02G12G25G21G15G05G30G18
 -16235305.69147 -12640732.77846  20896332.5554                   20896330.6954
 -11222062.47347  -8733324.66145  21678172.8594                   21678171.1024
 -23466612.28547 -18265554.14045  22474723.9064                   22474720.2704
 -14007581.50447 -10896401.30045  23139607.3674                   23139605.7734
 -13468591.80147 -10475623.54245  22194456.4304                   22194457.2274
   4803545.93446   3751190.10843  24331034.7344                   24331032.6994
  -4744895.48447  -3686039.89545  22303834.0554                   22303832.3444
 -21433259.69148 -16682069.56946  21452696.0474                   21452693.6414
  -9715770.02047  -7551125.89645  22550937.0634                   22550935.3324
   7398563.17246   5776230.34943  24081042.5554                   24081040.6174
 11  8 24  2 59  0.0000000  0 10G29G26G02G12G25G21G15G05G30G18
 -16326886.82047 -12712094.66846  20878905.2034                   20878903.2424
 -11315265.28947  -8805950.20945  21660437.0314                   21660435.3014
 -23451480.43047 -18253763.12645  22477603.7584                   22477599.3874
 -13947942.21947 -10849929.18145  23150956.4924                   23150954.4884
 -13443240.59847 -10455869.37946  22199280.7734                   22199281.2234
   4714403.35246   3681728.42544  24314071.4774                   24314069.2544
  -4865729.94147  -3780196.56345  22280840.2424                   22280838.3484
 -21392963.47348 -16650669.92146  21460363.9534                   21460361.2974
  -9683139.25447  -7525699.36245  22557146.1174                   22557145.0234
   7282393.53946   5685708.66243  24058936.4304                   24058934.3794
 11  8 24  2 59 30.0000000  0 10G29G26G02G12G25G21G15G05G30G18
 -16418132.33247 -12783195.03346  20861541.8834                   20861539.5124
 -11407975.13747  -8878191.62345  21642794.8984                   21642792.9654
 -23436240.35547 -18241887.76645  22480503.8204                   22480499.3954
 -13888217.23047 -10803390.27345  23162321.5944                   23162319.8524
 -13417525.03947 -10435831.29846  22204174.1644                   22204174.8674
   4625228.61746   3612241.68344  24297102.2894                   24297100.0744
  -4986339.63747  -3874178.08845  22257888.3984                   22257886.7114
 -21352420.65248 -16619078.11446  21468079.0084                   21468076.3244
  -9650194.44147  -7500028.08645  22563415.3674                   22563413.9734
   7166427.02346   5595345.28643  24036868.1724                   24036866.7544
 11  8 24  3  0  0.0000000  0 10G29G26G02G12G25G21G15G05G30G18
 -16509043.96547 -12854035.24646  20844241.7734                   20844239.3914
 -11500192.95747  -8950049.64845  21625246.4384                   21625244.3284
 -23420895.60247 -18229930.84045  22483423.8054                   22483419.3014
 -13828412.96147 -10756789.58645  23173701.6884                   23173700.2344
 -13391451.82047 -10415514.53245  22209135.8364                   22209136.9024
   4536017.23446   3542726.41043  24280125.3054                   24280123.3794
  -5106725.54747  -3967985.26245  22234980.2194                   22234977.8244
 -21311637.49648 -16587299.01846  21475839.8524                   21475837.3014
  -9616942.59047  -7474117.56145  22569742.9694                   22569741.6914
   7050660.80146   5505137.93043  24014838.6334                   24014837.6764
 11  8 24  3  0 30.0000000  0 10G29G26G02G12G25G21G15G05G30G18
 -16599615.05548 -12924610.09646  20827006.7034                   20827004.3204
 -11591911.32047  -9021518.47645  21607792.8444                   21607791.1844
 -23405441.29347 -18217888.54645  22486364.5004                   22486360.3634
 -13768528.06246 -10710126.08445  23185097.6644                   23185095.9774
 -13365019.47347 -10394917.91645  22214165.8754                   22214166.4224
   4446773.53546   3473185.88043  24263143.1804                   24263140.8634
  -5226880.07447  -4061612.10845  22212115.6024                   22212113.4104
 -21270612.02048 -16555331.11946  21483647.0634                   21483644.2624
  -9583382.48047  -7447966.84345  22576129.4224                   22576128.1844
   6935100.15246   5415090.76643  23992848.8284                   23992846.5274
 11  8 24  3  1  0.0000000  0 10G29G26G02G12G25G21G15G05G30G18
 -16689843.32847 -12994917.82546  20809836.6644                   20809834.4654
 -11683127.21947  -9092595.78345  21590435.1724                   21590433.3054
 -23389877.21147 -18205760.74745  22489326.6254                   22489321.6724
 -13708565.89547 -10663402.37545  23196507.5474                   23196506.2774
 -13338231.16847 -10374043.92745  22219263.5634                   22219264.3204
   4357496.59846   3403619.53743  24246154.2194                   24246151.8714
  -5346800.52047  -4155056.56945  22189295.3674                   22189293.7814
 -21229347.22748 -16523176.72846  21491499.4844                   21491496.3914
  -9549517.60947  -7421578.64445  22582573.6564                   22582572.2074
   6819745.87946   5325204.40243  23970897.1484                   23970896.0594
 11  8 24  3  1 30.0000000  0 10G29G26G02G12G25G21G15G05G30G18
 -16779726.46948 -13064956.60746  20792732.6414                   20792730.3714
 -11773837.53147  -9163279.10945  21573173.3914                   21573171.6374
 -23374202.64847 -18193546.81445  22492309.1724                   22492304.9344
 -13648529.41846 -10616620.73144  23207932.7734                   23207931.1644
 -13311089.57448 -10352894.67246  22224428.1254                   22224429.0944
   4268186.34046   3334027.17144  24229159.4144                   24229156.2584
  -5466483.63347  -4248316.10145  22166520.1174                   22166518.3054
 -21187845.35548 -16490837.60246  21499396.8204                   21499394.3014
  -9515350.90247  -7394955.24945  22589075.5314                   22589074.4614
   6704599.36346   5235479.95443  23948984.9614                   23948983.9534
 11  8 24  3  2  0.0000000  0 10G29G26G02G12G25G21G15G05G30G18
 -15293842.02048 -11907124.54046  21075487.2034                   21075484.8754
 -10288619.27747  -8005966.16445  21855800.7034                   21855798.9534
 -21783001.14547 -16953649.59745  22795104.9454                   22795100.5164
 -12013006.47346  -9342187.32444  23519162.4304                   23519160.6994
 -11708181.68047  -9103875.54946  22529451.5474                   22529452.2624
   5754261.91846   4492008.23644  24511950.5474                   24511947.6644
  -4010505.47747  -3113787.61345  22443583.5554                   22443581.7194
 -19570693.39548 -15230719.19746  21807130.8284                   21807128.1954
  -7905469.78147  -6140502.45745  22895425.4384                   22895424.5984
   8165082.05946   6373518.50343  24226906.4534                   24226904.1334
 11  8 24  3  2 30.0000000  0 10G29G26G02G12G25G21G15G05G30G18
 -15383030.20747 -11976621.81546  21058514.9144                   21058512.4024
 -10378312.02747  -8075856.58145  21838733.0314                   21838730.8594
 -21767107.51247 -16941264.97145  22798129.0704                   22798124.7854
 -11952832.65646  -9295298.68644  23530613.2344                   23530611.1684
 -11680344.81647  -9082184.51446  22534749.1414                   22534749.8674
   5664880.72346   4422360.53943  24494940.9454                   24494938.7894
  -4129707.16847  -3206671.99545  22420900.7504                   22420898.4774
 -19528727.42648 -15198018.44546  21815116.6254                   21815113.8404
  -7870711.46147  -6113418.06245  22902040.2344                   22902038.7194
   8050351.09046   6284117.85543  24205073.5234                   24205071.7034
 11  8 24  3  3  0.0000000  0 10G29G26G02G12G25G21G15G05G30G18
 -15471868.80947 -12045846.66546  21041609.8914                   21041607.3054
 -10467492.37147  -8145347.74546  21821762.6804                   21821760.6054
 -21751104.53547 -16928795.15545  22801174.3754                   22801170.1994
 -11892596.10246  -9248361.15844  23542075.6804                   23542074.1954
 -11652165.69947  -9060226.79046  22540111.2424                   22540112.5864
   5575462.76646   4352684.24943  24477925.5634                   24477923.0514
  -4248665.03547  -3299366.39945  22398262.9924                   22398261.6214
 -19486533.92648 -15165140.40046  21823145.7034                   21823142.9884
  -7835663.15247  -6086107.72245  22908709.0474                   22908708.4104
   7935828.46546   6194879.53643  24183280.2584                   24183278.4414
 11  8 24  3  3 30.0000000  0 10G29G26G02G12G25G21G15G05G30G18
 -15560353.55948 -12114795.78846  21024772.0234                   21024769.2734
 -10556155.69547  -8214435.99645  21804890.3914                   21804888.2344
 -21734989.99647 -16916238.41945  22804240.8674                   22804236.6524
 -11832297.87946  -9201375.58344  23553550.3524                   23553548.3484
 -11623645.49247  -9038003.28046  22545538.3524                   22545539.2814
   5486009.10546   4282980.14343  24460902.7034                   24460900.6414
  -4367373.40647  -3391866.37945  22375673.9064                   22375671.9884
 -19444113.79748 -15132085.75046  21831217.9064                   21831215.5514
  -7800326.27747  -6058572.53745  22915433.6024                   22915432.8054
   7821516.25846   6105805.19443  24161527.6884                   24161525.6054
 11  8 24  3  4  0.0000000  0 10G29G26G02G12G25G21G15G05G30G18
 -15648481.57847 -12183466.95946  21008001.3914                   21007998.8164
 -10644298.29747  -8283118.52345  21788117.1724                   21788115.2584
 -21718762.70347 -16903593.79845  22807328.6724                   22807324.4064
 -11771940.36746  -9154343.78844  23565035.7664                   23565034.2854
 -11594786.59447  -9015515.85946  22551029.9614                   22551030.8364
   5396519.57446   4213248.11943  24443873.7424                   24443870.9884
  -4485829.10247  -3484169.44745  22353132.5474                   22353130.6294
 -19401468.84448 -15098855.92346  21839332.8444                   21839330.5984
  -7764703.47747  -6030814.53845  22922212.2814                   22922211.2814
   7707416.32446   6016896.21943  24139814.7114                   24139813.5434
 11  8 24  3  4 30.0000000  0 10G29G26G02G12G25G21G15G05G30G18
 -15736251.67647 -12251859.21446  20991298.9304                   20991296.5944
 -10731918.52747  -8351393.99945  21771443.9614                   21771441.8134
 -21702423.51647 -16890862.00245  22810438.1724                   22810434.0234
 -11711527.42246  -9107268.83344  23576532.2894                   23576530.6644
 -11565592.91447  -8992767.55246  22556585.7504                   22556586.5274
   5306992.87546   4143487.11344  24426837.3594                   24426834.6024
  -4604030.24247  -3576274.18646  22330639.4064                   22330637.6214
 -19358602.54748 -15065453.61746  21847490.1174                   21847487.6294
  -7728798.87947  -6002836.94945  22929044.8674                   22929043.6134
   7593528.87946   5928152.79943  24118142.6094                   24118140.7624
 11  8 24  3  5  0.0000000  0 10G29G26G02G12G25G21G15G05G30G18
 -15823658.34847 -12319968.28946  20974665.9304                   20974663.7464
 -10819010.08647  -8419257.52546  21754870.7274                   21754869.2194
 -21685968.90647 -16878040.26345  22813569.4064                   22813565.5354
 -11651059.20747  -9060150.79344  23588039.2894                   23588037.3714
 -11536064.33647  -8969758.29146  22562204.6804                   22562205.6644
   5217432.02746   4073699.49944  24409794.3134                   24409791.4884
  -4721970.48447  -3668175.62446  22308196.0474                   22308194.2584
 -19315514.25848 -15031878.33646  21855689.3444                   21855686.6764
  -7692612.67247  -5974639.93845  22935930.7194                   22935930.2234
   7479858.08646   5839578.30043  24096511.4534                   24096509.4804
 11  8 24  3  5 30.0000000  0 10G29G26G02G12G25G21G15G05G30G18
 -15910706.50448 -12387797.99546  20958101.3594                   20958099.4694
 -10905577.51647  -8486712.62445  21738397.7734                   21738395.3204
 -21669405.71547 -16865133.90545  22816721.1334                   22816717.2114
 -11590546.42647  -9012998.01245  23599554.0474                   23599552.6094
 -11506211.14547  -8946496.08646  22567885.3054                   22567886.1724
   5127829.18446   4003879.16644  24392743.2344                   24392740.6414
  -4839654.25847  -3759877.20245  22285801.7344                   22285799.7774
 -19272213.81648 -14998137.74046  21863929.3594                   21863926.8634
  -7656155.35247  -5946231.66745  22942868.8054                   22942867.7734
   7366397.16447   5751167.25743  24074920.5084                   24074918.9924
 11  8 24  3  6  0.0000000  0 10G29G26G02G12G25G21G15G05G30G18
 -15997386.66048 -12455340.95446  20941606.7424                   20941604.5084
 -10991610.28147  -8553751.13245  21722026.1884                   21722024.4844
 -21652725.98447 -16852136.72845  22819895.1884                   22819891.1884
 -11529984.27047  -8965806.77645  23611078.4144                   23611077.1174
 -11476028.76647  -8922977.37845  22573628.9844                   22573629.9454
   5038191.31646   3934031.51544  24375685.8054                   24375683.5784
  -4957070.62547  -3851370.43945  22263458.0084                   22263456.3954
 -19228696.06248 -14964227.80946  21872210.3834                   21872207.9614
  -7619422.59047  -5917608.77345  22949859.0394                   22949857.6684
   7253154.34447   5662926.22444  24053371.4454                   24053369.5744
 11  8 24  3  6 30.0000000  0 10G29G26G02G12G25G21G15G05G30G18
 -16083700.97748 -12522598.84747  20925181.8594                   20925179.6954
 -11077110.09447  -8620374.33345  21705755.9924                   21705754.1134
 -21635933.57847 -16839051.75745  22823090.8284                   22823086.7464
 -11469380.02747  -8918582.75245  23622611.3364                   23622610.2544
 -11445524.63347  -8899207.94445  22579433.8984                   22579434.5204
   4948513.73046   3864152.97044  24358620.4844                   24358617.9574
  -5074221.13347  -3942656.49646  22241165.0474                   22241163.2894
 -19184967.80948 -14930153.85546  21880531.8134                   21880529.1134
  -7582422.09047  -5888777.22845  22956900.1644                   22956898.2194
   7140126.37947   5574852.56243  24031863.0554                   24031860.2934
 11  8 24  3  7  0.0000000  0 10G29G26G02G12G25G21G15G05G30G18
 -16169646.76648 -12589569.55946  20908826.8284                   20908824.3874
 -11162073.91047  -8686579.88446  21689588.0634                   21689586.0554
 -21619027.93747 -16825878.54145  22826308.2114                   22826303.8874
 -11408736.63747  -8871328.22144  23634151.6884                   23634150.2074
 -11414701.47347  -8875189.92645  22585299.0554                   22585299.5864
   4858796.27346   3794243.35043  24341547.8524                   24341545.6644
  -5191102.78547  -4033733.06345  22218923.2734                   22218921.2114
 -19141031.18048 -14895917.51846  21888892.6094                   21888889.8164
  -7545156.76247  -5859739.34944  22963991.2734                   22963989.5784
   7027314.27747   5486947.09743  24010395.0704                   24010393.3594
 11  8 24  3  7 30.0000000  0 10G29G26G02G12G25G21G15G05G30G18
 -16255219.16848 -12656249.33347  20892542.7194                   20892540.6454
 -11246495.82448  -8752363.15245  21673523.0474                   21673520.8874
 -21602005.74647 -16812614.50845  22829547.0864                   22829543.0434
 -11348054.23847  -8824043.28244  23645698.8204                   23645698.1024
 -11383559.57447  -8850923.52645  22591225.5634                   22591225.8524
   4769041.46546   3724304.58443  24324467.7814                   24324465.1644
  -5307709.55947  -4124595.42946  22196733.6954                   22196731.8014
 -19096886.18048 -14861518.80046  21897292.9844                   21897290.7774
  -7507627.12947  -5830495.49645  22971133.1644                   22971131.2234
   6914721.71547   5399212.70743  23988969.9534                   23988967.8014
 11  8 24  3  8  0.0000000  0 10G29G26G02G12G25G21G15G05G30G18
 -16340416.46948 -12722636.82247  20876330.2664                   20876327.9494
 -11330373.93748  -8817722.69646  21657561.3054                   21657559.2664
 -21584867.06247 -16799259.70445  22832808.7814                   22832804.9534
 -11287335.99647  -8776730.42644  23657253.4064                   23657252.1024
 -11352102.39147  -8826411.45645  22597211.5004                   22597212.3204
   4679248.05146   3654335.82043  24307381.1414                   24307377.9774
  -5424039.10947  -4215241.79446  22174596.9454                   22174594.9414
 -19052535.58248 -14826959.89146  21905732.7274                   21905730.2344
  -7469836.89547  -5801048.58445  22978323.9924                   22978322.5044
   6802349.04347   5311649.67743  23967586.2194                   23967584.1644
 11  8 24  3  8 30.0000000  0 10G29G26G02G12G25G21G15G05G30G18
 -16425239.09847 -12788732.35447  20860189.1564                   20860186.7704
 -11413707.95747  -8882658.26545  21641703.3134                   21641701.7734
 -21567614.43747 -16785816.11145  22836091.9534                   22836088.1254
 -11226588.46946  -8729394.75544  23668813.4534                   23668812.1334
 -11320335.86347  -8801658.33745  22603256.4454                   22603257.1884
   4589412.88346   3584334.37643  24290285.7504                   24290282.5594
  -5540091.21947  -4305671.97046  22152512.8444                   22152510.7344
 -19007984.55148 -14792244.79846  21914210.5084                   21914208.1954
  -7431792.18447  -5771403.38645  22985563.7814                   22985562.4734
   6690194.26647   5224256.36143  23946243.6024                   23946241.3054
 11  8 24  3  9  0.0000000  0 10G29G26G02G12G25G21G15G05G30G18
 -16509683.32448 -12854533.03046  20844119.8984                   20844117.4414
 -11496494.05947  -8947166.87746  21625949.7424                   21625948.0554
 -21550245.90647 -16772282.19045  22839396.7814                   22839393.1024
 -11165813.16846  -8682037.45344  23680378.2424                   23680376.9384
 -11288261.63747  -8776665.44145  22609360.1954                   22609360.9654
   4499536.97346   3514301.31043  24273181.8594                   24273179.6994
  -5655861.58647  -4395882.59746  22130482.3754                   22130480.4224
 -18963234.20348 -14757374.39346  21922726.2194                   21922723.9654
  -7393494.85947  -5741561.33445  22992851.5394                   22992850.0784
   6578259.58246   5137034.56843  23924942.5394                   23924940.6994
 11  8 24  3  9 30.0000000  0 10G29G26G02G12G25G21G15G05G30G18
 -16593742.21948 -12920033.45146  20828123.8134                   20828121.6954
 -11578724.12548  -9011242.23445  21610301.7734                   21610299.9694
 -21532756.18047 -16758653.85045  22842725.0004                   22842721.3404
 -11105007.62147  -8634656.56544  23691949.4304                   23691948.0904
 -11255877.57047  -8751431.13545  22615522.6804                   22615523.2384
   4409625.34446   3444240.36244  24256073.2584                   24256070.6604
  -5771341.79347  -4485867.12646  22108507.4614                   22108505.4574
 -18918281.98048 -14722346.68746  21931280.5554                   21931277.9344
  -7354943.01247  -5711520.95345  23000187.9454                   23000186.2664
   6466550.75046   5049988.84143  23903685.2814                   23903683.9144
 11  8 24  3 10  0.0000000  0 10G29G26G02G12G25G21G15G05G30G18
 -16677418.54348 -12985235.76647  20812200.7194                   20812198.4264
 -11660400.75048  -9074886.31446  21594759.5474                   21594757.1604
 -21515149.84447 -16744934.64745  22846075.3674                   22846071.6884
 -11044179.84447  -8587258.32344  23703525.2664                   23703523.0274
 -11223191.86347  -8725961.77445  22621742.4454                   22621743.2734
   4319672.34847   3374147.20844  24238955.5864                   24238953.2074
  -5886534.30947  -4575627.48946  22086586.6334                   22086584.9574
 -18873135.33648 -14687167.47546  21939871.5084                   21939868.9734
  -7316145.05547  -5681288.81145  23007570.9454                   23007569.6604
   6355063.85946   4963115.98943  23882470.1254                   23882467.9224
 11  8 24  3 10 30.0000000  0 10G29G26G02G12G25G21G15G05G30G18
 -16760709.09048 -13050137.47547  20796351.1334                   20796348.7384
 -11741520.14848  -9138096.20146  21579322.9454                   21579320.9964
 -21497425.37947 -16731123.41045  22849447.9844                   22849444.2894
 -10983332.07447  -8539844.52644  23715104.1024                   23715102.0434
 -11190206.51647  -8700258.93145  22628019.1804                   22628020.5704
   4229678.48446   3304022.18044  24221830.3914                   24221827.7274
  -6001434.61347  -4665160.14346  22064721.8914                   22064719.9024
 -18827795.48048 -14651837.72246  21948499.2194                   21948497.1484
  -7277103.12947  -5650866.55245  23014999.7274                   23014998.9494
   6243800.67646   4876417.50543  23861297.8364                   23861295.2194
 11  8 24  3 11  0.0000000  0 10G29G26G02G12G25G21G15G05G30G18
 -16843613.64848 -13114738.41546  20780574.9064                   20780572.6524
 -11822082.07048  -9200871.67846  21563992.5944                   21563990.4494
 -21479584.57047 -16717221.51045  22852843.3134                   22852839.2584
 -10922469.60547  -8492419.24044  23726685.4614                   23726683.9804
 -11156926.84447  -8674326.74045  22634352.4534                   22634352.8244
   4139641.09447   3233863.23144  24204696.5314                   24204694.2234
  -6116042.33247  -4754464.81946  22042912.6334                   22042910.7624
 -18782267.09848 -14616361.04246  21957163.3204                   21957161.0164
  -7237822.86347  -5620258.58544  23022474.6644                   23022473.5044
   6132759.66046   4789892.11943  23840167.0474                   23840164.2194
 11  8 24  3 11 30.0000000  0 10G29G26G02G12G25G21G15G05G30G18
 -16926131.50848 -13179038.01347  20764872.3204                   20764870.0124
 -11902084.74648  -9263211.38646  21548768.5084                   21548766.4414
 -21461627.95747 -16703229.34245  22856259.9384                   22856256.3554
 -10861596.41047  -8444985.65244  23738269.3984                   23738267.7384
 -11123357.13347  -8648168.55545  22640740.4534                   22640741.0314
   4049558.99246   3163669.41444  24187554.7344                   24187551.8444
  -6230355.75047  -4843540.16746  22021159.2274                   22021157.4494
 -18736553.93448 -14580740.40046  21965862.3984                   21965859.4734
  -7198308.58647  -5589468.24745  23029994.2974                   23029993.0274
   6021940.28546   4703539.44343  23819078.2344                   23819076.5824
 11  8 24  3 12  0.0000000  0 10G29G26G02G12G25G21G15G05G30G18
 -17008257.22348 -13243032.07246  20749244.1954                   20749241.9494
 -11981522.48048  -9325110.87646  21533652.0704                   21533650.1214
 -21443552.05947 -16689144.25545  22859699.5084                   22859696.2624
 -10800712.21547  -8397543.45744  23749855.4844                   23749854.0864
 -11089497.03947  -8621784.10545  22647184.0554                   22647184.2344
   3959435.17646   3093443.14644  24170404.6024                   24170402.0044
  -6344368.41047  -4932381.15646  21999463.2814                   21999461.6374
 -18690655.21148 -14544975.15846  21974596.3524                   21974594.0044
  -7158560.30947  -5558495.59045  23037558.2664                   23037556.6684
   5911346.66846   4617362.64044  23798033.5004                   23798030.8284
 11  8 24  3 12 30.0000000  0 10G29G26G02G12G25G21G15G05G30G18
 -17089983.18048 -13306714.62247  20733692.1484                   20733689.6644
 -12060387.23048  -9386563.89346  21518644.4144                   21518642.3524
 -21425351.39147 -16674961.94445  22863163.4924                   22863159.8014
 -10739814.74647  -8350090.92944  23761443.7504                   23761442.3364
 -11055344.54747  -8595171.79545  22653683.1484                   22653683.9574
   3869274.23446   3023187.89743  24153246.5944                   24153244.9774
  -6458072.30947  -5020981.54246  21977826.3914                   21977824.2734
 -18644567.89848 -14509062.96646  21983366.0554                   21983363.7934
  -7118576.06247  -5527339.08345  23045167.1954                   23045165.6094
   5800984.75846   4531366.39043  23777031.5704                   23777030.2544
 11  8 24  3 13  0.0000000  0 10G29G26G02G12G25G21G15G05G30G18
 -17171309.07448 -13370085.43347  20718216.3914                   20718213.8984
 -12138678.27348  -9447569.86246  21503745.8204                   21503743.9964
 -21407026.91047 -16660683.14345  22866650.5944                   22866646.6454
 -10678908.58247  -8302631.64344  23773033.8284                   23773032.5234
 -11020904.40647  -8568335.34445  22660236.9384                   22660237.1374
   3779074.00846   2952902.05544  24136082.6954                   24136079.8484
  -6571466.08647  -5109340.28046  21956248.2504                   21956245.9654
 -18598295.92248 -14473006.87846  21992171.6094                   21992169.2034
  -7078360.90247  -5496002.61044  23052819.5944                   23052818.6804
   5690853.48046   4445549.88344  23756074.7344                   23756072.7304
 11  8 24  3 13 30.0000000  0 10G29G26G02G12G25G21G15G05G30G18
 -17252239.46548 -13433148.06946  20702815.9454                   20702813.4494
 -12216400.19948  -9508132.35346  21488956.1414                   21488953.8014
 -21388585.17247 -16646312.98345  22870159.6884                   22870156.2624
 -10618003.30547  -8255173.05844  23784623.7424                   23784622.5704
 -10986186.62947  -8541282.57345  22666843.3524                   22666844.0864
   3688827.30146   2882579.99244  24118908.6884                   24118906.1024
  -6684553.52347  -5197460.30346  21934728.1094                   21934725.8444
 -18551848.66848 -14436814.20846  22001010.2274                   22001007.7584
  -7037924.92247  -5464494.07444  23060514.3674                   23060513.3554
   5580946.93446   4359908.47344  23735159.9224                   23735157.8834
